[[{"header":{"parameterUnit":"m.s-1","parameterCategory":1,"la1":31.0,"la2":29.5877,"lo1":-88.7671,"lo2":-86.6584,"dy":0.0162,"dx":0.0185,"nx":115,"ny":88,"refTime":"2023-04-10T00:00:00:Z","depth":0,"parameterNumber":2,"parameterNumberName":"U-component_of_WINDS"},"data":[0.0,0.0,0.0,0.0,0.0,0.0,0.0,0.0,0.0,0.0,0.0,0.0,0.0,0.0,0.0,0.0,0.0,0.0,0.0,0.0,0.0,0.0,0.0,0.0,0.0,0.0,0.0,0.0,0.0,0.0,0.0,0.0,0.0,0.0,0.0,0.0,0.0,0.0,0.0,0.0,0.0,0.0,0.0,0.0,0.0,0.0,0.0,0.0,0.0,0.0,0.0,0.0,0.0,0.0,0.0,0.0,0.0,0.0,0.0,0.0,0.0,0.0,0.0,0.0,0.0,0.0,0.0,0.0,0.0,0.0,0.0,0.0,0.0,0.0,0.0,0.0,0.0,0.0,0.0,0.0,0.0,0.0,0.0,0.0,0.0,0.0,0.0,0.0,0.0,0.0,0.0,0.0,0.0,0.0,0.0,0.0,0.0,0.0,0.0,0.0,0.0,0.0,0.0,0.0,0.0,0.0,0.0,0.0,0.0,0.0,0.0,0.0,0.0,0.0,0.0,0.0,0.0,0.0,0.0,0.0,0.0,0.0,0.0,0.0,0.0,0.0,0.0,0.0,0.0,0.0,0.0,0.0,0.0,0.0,0.0,0.0,0.0,0.0,0.0,0.0,0.0,0.0,0.0,0.0,0.0,0.0,0.0,0.0,0.0,0.0,0.0,0.0,0.0,0.0,0.0,0.0,0.0,0.0,0.0,0.0,0.0,0.0,0.0,0.0,0.0,0.0,0.0,0.0,0.0,0.0,0.0,0.0,0.0,0.0,0.0,0.0,0.0,0.0,0.0,0.0,0.0,0.0,0.0,0.0,0.0,0.0,0.0,0.0,0.0,0.0,0.0,0.0,0.0,0.0,0.0,0.0,0.0,0.0,0.0,0.0,0.0,0.0,0.0,0.0,0.0,0.0,0.0,0.0,0.0,0.0,0.0,0.0,0.0,0.0,0.0,0.0,0.0,0.0,0.0,0.0,0.0,0.0,0.0,0.0,0.0,0.0,0.0,0.0,0.0,0.0,0.0,0.0,0.0,0.0,0.0,0.0,0.0,0.0,0.0,0.0,0.0,0.0,0.0,0.0,0.0,0.0,0.0,0.0,0.0,0.0,0.0,0.0,0.0,0.0,0.0,0.0,0.0,0.0,0.0,0.0,0.0,0.0,0.0,0.0,0.0,0.0,0.0,0.0,0.0,0.0,0.0,0.0,0.0,0.0,0.0,0.0,0.0,0.0,0.0,0.0,0.0,0.0,0.0,0.0,0.0,0.0,0.0,0.0,0.0,0.0,0.0,0.0,0.0,0.0,0.0,0.0,0.0,0.0,0.0,0.0,0.0,0.0,0.0,0.0,0.0,0.0,0.0,0.0,0.0,0.0,0.0,0.0,0.0,0.0,0.0,0.0,0.0,0.0,0.0,0.0,0.0,0.0,0.0,0.0,0.0,0.0,0.0,0.0,0.0,0.0,0.0,0.0,0.0,0.0,0.0,0.0,0.0,0.0,0.0,0.0,0.0,0.0,0.0,0.0,0.0,0.0,0.0,0.0,0.0,0.0,0.0,0.0,0.0,0.0,0.0,0.0,0.0,0.0,0.0,0.0,0.0,0.0,0.0,0.0,0.0,0.0,0.0,0.0,0.0,0.0,0.0,0.0,0.0,0.0,0.0,0.0,0.0,0.0,0.0,0.0,0.0,0.0,0.0,0.0,0.0,0.0,0.0,0.0,0.0,0.0,0.0,0.0,0.0,0.0,0.0,0.0,0.0,0.0,0.0,0.0,0.0,0.0,0.0,0.0,0.0,0.0,0.0,0.0,0.0,0.0,0.0,0.0,0.0,0.0,0.0,0.0,0.0,0.0,0.0,0.0,0.0,0.0,0.0,0.0,0.0,0.0,0.0,0.0,0.0,0.0,0.0,0.0,0.0,0.0,0.0,0.0,0.0,0.0,0.0,0.0,0.0,0.0,0.0,0.0,0.0,0.0,0.0,0.0,0.0,0.0,0.0,0.0,0.0,0.0,0.0,0.0,0.0,0.0,0.0,0.0,0.0,0.0,0.0,0.0,0.0,0.0,0.0,0.0,0.0,0.0,0.0,0.0,0.0,0.0,0.0,0.0,0.0,0.0,0.0,0.0,0.0,0.0,0.0,0.0,0.0,0.0,0.0,0.0,0.0,0.0,0.0,0.0,0.0,0.0,0.0,0.0,0.0,0.0,0.0,0.0,0.0,0.0,0.0,0.0,0.0,0.0,0.0,0.0,0.0,0.0,0.0,0.0,0.0,0.0,0.0,0.0,0.0,0.0,0.0,0.0,0.0,0.0,0.0,0.0,0.0,0.0,0.0,0.0,0.0,0.0,0.0,0.0,0.0,0.0,0.0,0.0,0.0,0.0,0.0,0.0,0.0,0.0,0.0,0.0,0.0,0.0,0.0,0.0,0.0,0.0,0.0,0.0,0.0,0.0,0.0,0.0,0.0,0.0,0.0,0.0,0.0,0.0,0.0,0.0,0.0,0.0,0.0,0.0,0.0,0.0,0.0,0.0,0.0,0.0,0.0,0.0,0.0,0.0,0.0,0.0,0.0,0.0,0.0,0.0,0.0,0.0,0.0,0.0,0.0,0.0,0.0,0.0,0.0,0.0,0.0,0.0,0.0,0.0,0.0,0.0,0.0,0.0,0.0,0.0,0.0,0.0,0.0,0.0,0.0,0.0,0.0,0.0,0.0,0.0,0.0,0.0,0.0,0.0,0.0,0.0,0.0,0.0,0.0,0.0,0.0,0.0,0.0,0.0,0.0,0.0,0.0,0.0,0.0,0.0,0.0,0.0,0.0,0.0,0.0,0.0,0.0,0.0,0.0,0.0,0.0,0.0,0.0,0.0,0.0,0.0,0.0,0.0,0.0,0.0,0.0,0.0,0.0,0.0,0.0,0.0,0.0,0.0,0.0,0.0,0.0,0.0,0.0,0.0,0.0,0.0,0.0,0.0,0.0,0.0,0.0,0.0,0.0,0.0,0.0,0.0,0.0,0.0,0.0,0.0,0.0,0.0,0.0,0.0,0.0,0.0,0.0,0.0,0.0,0.0,0.0,0.0,0.0,0.0,0.0,0.0,0.0,0.0,0.0,0.0,0.0,0.0,0.0,0.0,0.0,0.0,0.0,0.0,0.0,0.0,0.0,0.0,0.0,0.0,0.0,0.0,0.0,0.0,0.0,0.0,0.0,0.0,0.0,0.0,0.0,0.0,0.0,0.0,0.0,0.0,0.0,0.0,0.0,0.0,0.0,0.0,0.0,0.0,0.0,0.0,0.0,0.0,0.0,0.0,0.0,0.0,0.0,0.0,0.0,0.0,0.0,0.0,0.0,0.0,0.0,0.0,0.0,0.0,0.0,0.0,0.0,0.0,0.0,0.0,0.0,0.0,0.0,0.0,0.0,0.0,0.0,0.0,0.0,0.0,0.0,0.0,0.0,0.0,0.0,0.0,0.0,0.0,0.0,0.0,0.0,0.0,0.0,0.0,0.0,0.0,0.0,0.0,0.0,0.0,0.0,0.0,0.0,0.0,0.0,0.0,0.0,0.0,0.0,0.0,0.0,0.0,0.0,0.0,0.0,0.0,0.0,0.0,0.0,0.0,0.0,0.0,0.0,0.0,0.0,0.0,0.0,0.0,0.0,0.0,0.0,0.0,0.0,0.0,0.0,0.0,0.0,0.0,0.0,0.0,0.0,0.0,0.0,0.0,0.0,0.0,0.0,0.0,0.0,0.0,0.0,0.0,0.0,0.0,0.0,0.0,0.0,0.0,0.0,0.0,0.0,0.0,0.0,0.0,0.0,0.0,0.0,0.0,0.0,0.0,0.0,0.0,0.0,0.0,0.0,0.0,0.0,0.0,0.0,0.0,0.0,0.0,0.0,0.0,0.0,0.0,0.0,0.0,0.0,0.0,0.0,0.0,0.0,0.0,0.0,0.0,0.0,0.0,0.0,0.0,0.0,0.0,0.0,0.0,0.0,0.0,0.0,0.0,0.0,0.0,0.0,0.0,0.0,0.0,0.0,0.0,0.0,0.0,0.0,0.0,0.0,0.0,0.0,0.0,0.0,0.0,0.0,0.0,0.0,0.0,0.0,0.0,0.0,0.0,0.0,0.0,0.0,0.0,0.0,0.0,0.0,0.0,0.0,0.0,0.0,0.0,0.0,0.0,0.0,0.0,0.0,0.0,0.0,0.0,0.0,0.0,0.0,0.0,0.0,0.0,0.0,0.0,0.0,0.0,0.0,0.0,0.0,0.0,2.0388,0.0,0.0,0.0,0.0,0.0,0.0,0.0,0.0,0.0,0.0,0.0,0.0,0.0,0.0,0.0,0.0,0.0,0.0,0.0,0.0,0.0,0.0,0.0,0.0,0.0,0.0,0.0,0.0,0.0,0.0,0.0,0.0,0.0,0.0,0.0,0.0,0.0,0.0,0.0,0.0,0.0,0.0,0.0,0.0,0.0,0.0,0.0,0.0,0.0,0.0,0.0,0.0,0.0,0.0,0.0,0.0,0.0,0.0,0.0,0.0,0.0,0.0,0.0,0.0,0.0,0.0,0.0,0.0,0.0,0.0,0.0,0.0,0.0,0.0,0.0,0.0,0.0,0.0,0.0,0.0,0.0,0.0,0.0,0.0,0.0,0.0,0.0,0.0,0.0,0.0,0.0,0.0,0.0,0.0,0.0,0.0,0.0,0.0,0.0,0.0,0.0,0.0,0.0,0.0,0.0,0.0,0.0,0.0,0.0,0.0,1.9837,2.0104,2.0087,1.9973,1.9706,0.0,0.0,0.0,0.0,0.0,0.0,0.0,0.0,0.0,0.0,0.0,0.0,0.0,0.0,0.0,0.0,0.0,0.0,0.0,0.0,0.0,0.0,0.0,0.0,0.0,0.0,0.0,0.0,0.0,0.0,0.0,0.0,0.0,0.0,0.0,0.0,0.0,0.0,0.0,0.0,0.0,0.0,0.0,0.0,0.0,0.0,0.0,0.0,0.0,0.0,0.0,0.0,0.0,0.0,0.0,0.0,0.0,0.0,0.0,0.0,0.0,0.0,0.0,0.0,0.0,0.0,0.0,0.0,0.0,0.0,0.0,0.0,0.0,0.0,0.0,0.0,0.0,0.0,0.0,0.0,0.0,0.0,0.0,0.0,0.0,0.0,0.0,0.0,0.0,0.0,0.0,0.0,0.0,0.0,0.0,0.0,0.0,0.0,0.0,0.0,0.0,0.0,0.0,0.0,0.0,0.0,0.0,0.0,0.0,0.0,0.0,0.0,1.9373,1.914,1.8662,0.0,0.0,0.0,0.0,0.0,0.0,0.0,0.0,0.0,0.0,0.0,0.0,0.0,0.0,0.0,0.0,0.0,0.0,0.0,0.0,0.0,0.0,0.0,0.0,0.0,0.0,0.0,0.0,0.0,0.0,0.0,0.0,0.0,0.0,0.0,0.0,0.0,0.0,0.0,0.0,0.0,0.0,0.0,0.0,0.0,0.0,0.0,0.0,0.0,0.0,0.0,0.0,0.0,0.0,0.0,0.0,0.0,0.0,0.0,0.0,0.0,0.0,0.0,0.0,0.0,0.0,0.0,0.0,0.0,0.0,0.0,0.0,0.0,0.0,0.0,0.0,0.0,0.0,0.0,0.0,0.0,0.0,0.0,0.0,0.0,0.0,0.0,0.0,0.0,0.0,0.0,0.0,0.0,0.0,0.0,0.0,0.0,0.0,0.0,0.0,0.0,0.0,0.0,0.0,0.0,0.0,0.0,0.0,0.0,0.0,1.8666,1.885,1.8689,0.0,1.7175,0.0,0.0,0.0,0.0,0.0,0.0,0.0,0.0,0.0,0.0,0.0,0.0,0.0,0.0,0.0,0.0,0.0,0.0,0.0,0.0,0.0,0.0,0.0,0.0,0.0,0.0,0.0,0.0,0.0,0.0,0.0,0.0,0.0,0.0,0.0,0.0,0.0,0.0,0.0,0.0,0.0,0.0,0.0,0.0,0.0,0.0,0.0,0.0,0.0,0.0,0.0,0.0,0.0,0.0,0.0,0.0,0.0,0.0,0.0,0.0,0.0,0.0,0.0,0.0,0.0,0.0,0.0,0.0,0.0,0.0,0.0,0.0,0.0,0.0,0.0,0.0,0.0,0.0,0.0,0.0,0.0,0.0,0.0,0.0,0.0,0.0,0.0,0.0,0.0,0.0,0.0,0.0,0.0,0.0,0.0,0.0,0.0,0.0,0.0,0.0,0.0,0.0,0.0,0.0,0.0,0.0,0.0,0.0,0.0,0.0,1.8063,1.8133,1.7807,1.731,0.0,0.0,0.0,0.0,0.0,0.0,0.0,0.0,0.0,0.0,0.0,0.0,0.0,0.0,0.0,0.0,0.0,0.0,0.0,0.0,0.0,0.0,0.0,0.0,0.0,0.0,0.0,0.0,0.0,0.0,0.0,0.0,0.0,0.0,0.0,0.0,0.0,0.0,0.0,0.0,0.0,0.0,0.0,0.0,0.0,0.0,0.0,0.0,0.0,0.0,0.0,0.0,0.0,0.0,0.0,0.0,0.0,0.0,0.0,0.0,0.0,0.0,0.0,0.0,0.0,0.0,0.0,0.0,0.0,0.0,0.0,0.0,0.0,0.0,0.0,0.0,0.0,0.0,0.0,0.0,0.0,0.0,0.0,0.0,0.0,0.0,0.0,0.0,0.0,0.0,0.0,0.0,0.0,0.0,0.0,0.0,0.0,0.0,0.0,0.0,0.0,0.0,0.0,0.0,0.0,0.0,0.0,0.0,0.0,0.0,1.7293,1.7387,1.7364,1.7073,1.6663,1.6174,0.0,0.0,0.0,0.0,0.0,0.0,0.0,0.0,0.0,0.0,0.0,0.0,0.0,0.0,0.0,0.0,0.0,0.0,0.0,0.0,0.0,0.0,0.0,0.0,0.0,0.0,0.0,0.0,0.0,0.0,0.0,0.0,0.0,0.0,0.0,0.0,0.0,0.0,0.0,0.0,0.0,0.0,0.0,0.0,0.0,0.0,0.0,0.0,0.0,0.0,0.0,0.0,0.0,0.0,0.0,0.0,0.0,0.0,0.0,0.0,0.0,0.0,0.0,0.0,0.0,0.0,0.0,0.0,0.0,0.0,0.0,0.0,0.0,0.0,0.0,0.0,0.0,0.0,0.0,0.0,0.0,0.0,0.0,0.0,0.0,0.0,0.0,0.0,0.0,0.0,0.0,0.0,0.0,0.0,0.0,0.0,0.0,0.0,0.0,0.0,0.0,0.0,0.0,0.0,0.0,0.0,0.0,0.0,1.6636,1.6659,1.6659,1.6659,1.6636,1.6239,0.0,0.0,0.0,0.0,0.0,0.0,0.0,0.0,0.0,0.0,0.0,0.0,0.0,0.0,0.0,0.0,0.0,0.0,0.0,0.0,0.0,0.0,0.0,0.0,0.0,0.0,0.0,0.0,0.0,0.0,0.0,0.0,0.0,0.0,0.0,0.0,0.0,0.0,0.0,0.0,0.0,0.0,0.0,0.0,0.0,0.0,0.0,0.0,0.0,0.0,0.0,0.0,0.0,0.0,0.0,0.0,0.0,0.0,0.0,0.0,0.0,0.0,0.0,0.0,0.0,0.0,0.0,0.0,0.0,0.0,0.0,0.0,0.0,0.0,0.0,0.0,0.0,0.0,0.0,0.0,0.0,0.0,0.0,0.0,0.0,0.0,0.0,0.0,0.0,0.0,0.0,0.0,0.0,0.0,0.0,0.0,0.0,0.0,0.0,0.0,0.0,0.0,0.0,0.0,0.0,0.0,0.0,0.0,0.0,1.6343,1.6329,1.6329,1.6343,1.6163,1.5784,0.0,0.0,0.0,0.0,0.0,0.0,0.0,0.0,0.0,0.0,0.0,0.0,0.0,0.0,0.0,0.0,0.0,0.0,0.0,0.0,0.0,0.0,0.0,0.0,0.0,0.0,0.0,0.0,0.0,0.0,0.0,0.0,0.0,0.0,0.0,0.0,0.0,0.0,0.0,0.0,0.0,0.0,0.0,0.0,0.0,0.0,0.0,0.0,0.0,0.0,0.0,0.0,0.0,0.0,0.0,0.0,0.0,0.0,0.0,0.0,0.0,0.0,0.0,0.0,0.0,0.0,0.0,0.0,0.0,0.0,0.0,0.0,0.0,0.0,0.0,0.0,0.0,0.0,0.0,0.0,0.0,0.0,0.0,0.0,0.0,0.0,0.0,0.0,0.0,0.0,0.0,0.0,0.0,0.0,0.0,0.0,0.0,0.0,0.0,0.0,0.0,0.0,0.0,0.0,0.0,0.0,0.0,0.0,0.0,1.6069,0.0,1.6069,1.6069,1.5879,1.5528,0.0,0.0,0.0,0.0,0.0,0.0,0.0,0.0,0.0,0.0,0.0,0.0,0.0,0.0,0.0,0.0,0.0,0.0,0.0,0.0,0.0,0.0,0.0,0.0,0.0,0.0,0.0,0.0,0.0,0.0,0.0,0.0,0.0,0.0,0.0,0.0,0.0,0.0,0.0,0.0,0.0,0.0,0.0,0.0,0.0,0.0,0.0,0.0,0.0,0.0,0.0,0.0,0.0,0.0,0.0,0.0,0.0,0.0,0.0,0.0,0.0,0.0,0.0,0.0,0.0,0.0,0.0,0.0,0.0,0.0,0.0,0.0,0.0,0.0,0.0,0.0,0.0,0.0,0.0,0.0,0.0,0.0,0.0,0.0,0.0,0.0,0.0,0.0,0.0,0.0,0.0,0.0,0.0,0.0,0.0,0.0,0.0,0.0,0.0,0.0,0.0,0.0,0.0,0.0,0.0,0.0,0.0,0.0,1.5808,1.5808,1.5832,1.5832,1.5808,1.5808,1.5565,0.0,0.0,0.0,0.0,0.0,0.0,0.0,0.0,0.0,0.0,0.0,0.0,0.0,0.0,0.0,0.0,0.0,0.0,0.0,0.0,0.0,0.0,0.0,0.0,0.0,0.0,0.0,0.0,0.0,0.0,0.0,0.0,0.0,0.0,0.0,0.0,0.0,0.0,0.0,0.0,0.0,0.0,0.0,0.0,0.0,0.0,0.0,0.0,0.0,0.0,0.0,0.0,0.0,0.0,0.0,0.0,0.0,0.0,0.0,0.0,0.0,0.0,0.0,0.0,0.0,0.0,0.0,0.0,0.0,0.0,0.0,0.0,0.0,0.0,0.0,0.0,0.0,0.0,0.0,0.0,0.0,0.0,0.0,0.0,0.0,0.0,0.0,0.0,0.0,0.0,0.0,0.0,0.0,0.0,0.0,0.0,0.0,0.0,0.0,0.0,0.0,0.0,0.0,0.0,0.0,0.0,0.0,0.0,0.0,1.5808,1.5808,1.5808,1.5808,1.5808,1.5565,0.0,0.0,0.0,0.0,0.0,0.0,0.0,0.0,0.0,0.0,0.0,0.0,0.0,0.0,0.0,0.0,0.0,0.0,0.0,0.0,0.0,0.0,0.0,0.0,0.0,0.0,0.0,0.0,0.0,0.0,0.0,0.0,0.0,0.0,0.0,0.0,0.0,0.0,0.0,0.0,0.0,0.0,0.0,0.0,0.0,0.0,0.0,0.0,0.0,0.0,0.0,0.0,0.0,0.0,0.0,0.0,0.0,0.0,0.0,0.0,0.0,0.0,0.0,0.0,0.0,0.0,0.0,0.0,0.0,0.0,0.0,0.0,0.0,0.0,0.0,0.0,0.0,0.0,0.0,0.0,0.0,0.0,0.0,0.0,0.0,0.0,0.0,0.0,0.0,0.0,0.0,0.0,0.0,0.0,0.0,0.0,0.0,0.0,0.0,0.0,0.0,0.0,0.0,0.0,0.0,0.0,0.0,0.0,0.0,1.4857,1.4966,1.5013,1.5013,1.4893,1.4974,1.5291,0.0,0.0,0.0,0.0,0.0,0.0,0.0,0.0,0.0,0.0,0.0,0.0,0.0,0.0,0.0,0.0,0.0,0.0,0.0,0.0,0.0,0.0,0.0,0.0,0.0,0.0,0.0,0.0,0.0,0.0,0.0,0.0,0.0,0.0,0.0,0.0,0.0,0.0,0.0,0.0,0.0,0.0,0.0,0.0,0.0,0.0,0.0,0.0,0.0,0.0,0.0,0.0,0.0,0.0,0.0,0.0,0.0,0.0,0.0,0.0,0.0,0.0,0.0,0.0,0.0,0.0,0.0,0.0,0.0,0.0,0.0,0.0,0.0,0.0,0.0,0.0,0.0,0.0,0.0,0.0,0.0,0.0,0.0,0.0,0.0,0.0,0.0,0.0,0.0,0.0,0.0,0.0,0.0,0.0,0.0,0.0,0.0,0.0,0.0,0.0,0.0,0.0,0.0,0.0,0.0,0.0,0.0,0.0,1.3069,1.3305,1.3438,1.3538,1.3308,1.3932,0.0,0.0,0.0,0.0,0.0,0.0,0.0,0.0,0.0,0.0,0.0,0.0,0.0,0.0,0.0,0.0,0.0,0.0,0.0,0.0,0.0,0.0,0.0,0.0,0.0,0.0,0.0,0.0,0.0,0.0,0.0,0.0,0.0,0.0,0.0,0.0,0.0,0.0,0.0,0.0,0.0,0.0,0.0,0.0,0.0,0.0,0.0,0.0,0.0,0.0,0.0,0.0,0.0,0.0,0.0,0.0,0.0,0.0,0.0,0.0,0.0,0.0,0.0,0.0,0.0,0.0,0.0,0.0,0.0,0.0,0.0,0.0,0.0,0.0,0.0,0.0,0.0,0.0,0.0,0.0,0.0,0.0,0.0,0.0,0.0,0.0,0.0,0.0,0.0,0.0,0.0,0.0,0.0,0.0,0.0,0.0,0.0,0.0,0.0,0.0,0.0,0.0,0.0,0.0,0.0,0.0,0.0,0.0,0.0,1.1592,1.0395,1.0319,1.1398,1.2386,1.3017,0.0,0.0,0.0,0.0,0.0,0.0,0.0,0.0,0.0,0.0,0.0,0.0,0.0,0.0,0.0,0.0,0.0,0.0,0.0,0.0,0.0,0.0,0.0,0.0,0.0,0.0,0.0,0.0,0.0,0.0,0.0,0.0,0.0,0.0,0.0,0.0,0.0,0.0,0.0,0.0,0.0,0.0,0.0,0.0,0.0,0.0,0.0,0.0,0.0,0.0,0.0,0.0,0.0,0.0,0.0,0.0,0.0,0.0,0.0,0.0,0.0,0.0,0.0,0.0,0.0,0.0,0.0,0.0,0.0,0.0,0.0,0.0,0.0,0.0,0.0,0.0,0.0,0.0,0.0,0.0,0.0,0.0,0.0,0.0,0.0,0.0,0.0,0.0,0.0,0.0,0.0,0.0,0.0,0.0,0.0,0.0,0.0,0.0,0.0,0.0,0.0,0.0,0.0,0.0,0.0,0.0,0.0,0.0,1.153,1.0819,0.8427,0.7546,0.8421,1.0673,1.2154,0.0,0.0,0.0,0.0,0.0,0.0,0.0,0.0,0.0,0.0,0.0,0.0,0.0,0.0,0.0,0.0,0.0,0.0,0.0,0.0,0.0,0.0,0.0,0.0,0.0,0.0,0.0,0.0,0.0,0.0,0.0,0.0,0.0,0.0,0.0,0.0,0.0,0.0,0.0,0.0,0.0,0.0,0.0,0.0,0.0,0.0,0.0,0.0,0.0,0.0,0.0,0.0,0.0,0.0,0.0,0.0,0.0,0.0,0.0,0.0,0.0,0.0,0.0,0.0,0.0,0.0,0.0,0.0,0.0,0.0,0.0,0.0,0.0,0.0,0.0,0.0,0.0,0.0,0.0,0.0,0.0,0.0,0.0,0.0,0.0,0.0,0.0,0.0,0.0,0.0,0.0,0.0,0.0,0.0,0.0,0.0,0.0,0.0,0.0,0.0,0.0,0.0,0.0,0.0,0.0,0.0,0.0,0.0,0.9965,1.0346,0.7134,0.5387,0.5499,0.8753,1.1307,0.0,0.0,0.0,0.0,0.0,0.0,0.0,0.0,0.0,0.0,0.0,0.0,0.0,0.0,0.0,0.0,0.0,0.0,0.0,0.0,0.0,0.0,0.0,0.0,0.0,0.0,0.0,0.0,0.0,0.0,0.0,0.0,0.0,0.0,0.0,0.0,0.0,0.0,0.0,0.0,0.0,0.0,0.0,0.0,0.0,0.0,0.0,0.0,0.0,0.0,0.0,0.0,0.0,0.0,0.0,0.0,0.0,0.0,0.0,0.0,0.0,0.0,0.0,0.0,0.0,0.0,0.0,0.0,0.0,0.0,0.0,0.0,0.0,0.0,0.0,0.0,0.0,0.0,0.0,0.0,0.0,0.0,0.0,0.0,0.0,0.0,0.0,0.0,0.0,0.0,0.0,0.0,0.0,0.0,0.0,0.0,0.0,0.0,0.0,0.0,0.0,0.0,0.0,0.0,0.0,0.0,0.0,0.0,0.936,0.893,0.6621,0.5406,0.5495,0.8578,1.0379,0.0,0.0,0.0,0.0,0.0,0.0,0.0,0.0,0.0,0.0,0.0,0.0,0.0,0.0,0.0,0.0,0.0,0.0,0.0,0.0,0.0,0.0,0.0,0.0,0.0,0.0,0.0,0.0,0.0,0.0,0.0,0.0,0.0,0.0,0.0,0.0,0.0,0.0,0.0,0.0,0.0,0.0,0.0,0.0,0.0,0.0,0.0,0.0,1.9334,0.0,0.0,0.0,0.0,0.0,0.0,0.0,0.0,0.0,0.0,0.0,0.0,0.0,0.0,0.0,0.0,0.0,0.0,0.0,0.0,0.0,0.0,0.0,0.0,0.0,0.0,0.0,0.0,0.0,0.0,0.0,0.0,0.0,0.0,0.0,0.0,0.0,0.0,0.0,0.0,0.0,0.0,0.0,0.0,0.0,0.0,0.0,0.0,0.0,0.0,0.0,0.0,0.0,0.0,0.0,0.0,0.0,0.0,0.0,0.9135,0.8349,0.6447,0.5498,0.5619,0.7972,0.9486,0.0,0.0,0.0,0.0,0.0,0.0,0.0,0.0,0.0,0.0,0.0,0.0,0.0,0.0,0.0,0.0,0.0,0.0,0.0,0.0,0.0,0.0,0.0,0.0,0.0,0.0,0.0,0.0,0.0,0.0,0.0,0.0,0.0,0.0,0.0,0.0,0.0,0.0,0.0,0.0,0.0,0.0,0.0,0.0,0.0,0.0,0.0,0.0,0.0,0.0,0.0,0.0,0.0,0.0,0.0,0.0,0.0,0.0,0.0,0.0,0.0,0.0,0.0,0.0,0.0,0.0,0.0,0.0,0.0,0.0,0.0,0.0,0.0,0.0,0.0,0.0,0.0,0.0,0.0,0.0,0.0,0.0,0.0,0.0,0.0,0.0,0.0,0.0,0.0,0.0,0.0,0.0,0.0,0.0,0.0,0.0,0.0,0.0,0.0,0.0,0.0,0.0,0.0,0.0,0.0,0.0,0.0,0.9929,0.8885,0.7841,0.6301,0.5558,0.5654,0.7267,0.8816,1.0225,0.0,0.0,0.0,0.0,0.0,0.0,0.0,0.0,0.0,0.0,0.0,0.0,0.0,0.0,0.0,0.0,0.0,0.0,0.0,0.0,0.0,0.0,0.0,0.0,0.0,0.0,0.0,0.0,0.0,0.0,0.0,0.0,0.0,0.0,0.0,0.0,0.0,0.0,1.7687,1.8235,0.0,0.0,0.0,0.0,0.0,0.0,0.0,0.0,2.229,0.0,0.0,0.0,0.0,0.0,0.0,0.0,0.0,0.0,0.0,0.0,0.0,0.0,0.0,0.0,0.0,0.0,0.0,0.0,0.0,0.0,0.0,0.0,0.0,0.0,0.0,0.0,0.0,0.0,0.0,0.0,0.0,0.0,0.0,0.0,0.0,0.0,0.0,0.0,0.0,0.0,0.0,0.0,0.0,0.0,0.0,0.0,0.0,0.0,0.0,0.0,0.0,0.0,0.0,0.0,0.0,0.9013,0.8946,0.7993,0.6178,0.5764,0.5619,0.5709,0.7099,0.8555,1.0005,0.0,0.0,0.0,0.0,0.0,0.0,0.0,0.0,0.0,0.0,0.0,0.0,0.0,0.0,0.0,0.0,0.0,0.0,0.0,0.0,0.0,0.0,0.0,0.0,0.0,0.0,0.0,0.0,0.0,0.0,0.0,0.0,0.0,0.0,0.0,0.0,0.0,0.0,0.0,1.8034,1.8906,0.0,0.0,0.0,0.0,0.0,0.0,0.0,0.0,2.1833,0.0,0.0,0.0,0.0,0.0,0.0,0.0,0.0,0.0,0.0,0.0,0.0,0.0,0.0,0.0,0.0,0.0,0.0,0.0,0.0,0.0,0.0,0.0,0.0,0.0,0.0,0.0,0.0,0.0,0.0,0.0,0.0,0.0,0.0,0.0,0.0,0.0,0.0,0.0,0.0,0.0,0.0,0.0,0.0,0.0,0.0,0.0,0.0,0.0,0.0,0.0,0.0,0.0,0.0,0.0,0.8345,0.815,0.7291,0.5756,0.5682,0.5679,0.5731,0.6842,0.8049,0.0,0.0,0.0,0.0,0.0,0.0,0.0,0.0,0.0,0.0,0.0,0.0,0.0,0.0,0.0,0.0,0.0,0.0,0.0,0.0,0.0,0.0,0.0,0.0,0.0,0.0,0.0,0.0,0.0,0.0,0.0,0.0,0.0,0.0,0.0,0.0,0.0,0.0,0.0,0.0,1.7474,1.777,1.7041,0.0,0.0,0.0,0.0,0.0,0.0,2.0808,2.1959,0.0,0.0,0.0,0.0,0.0,0.0,0.0,0.0,0.0,0.0,0.0,0.0,0.0,0.0,0.0,0.0,0.0,0.0,0.0,0.0,0.0,0.0,0.0,0.0,0.0,0.0,0.0,0.0,0.0,0.0,0.0,0.0,0.0,0.0,0.0,0.0,0.0,0.0,0.0,0.0,0.0,0.0,0.0,0.0,0.0,0.0,0.0,0.0,0.0,0.0,0.0,0.0,0.0,0.0,0.0,0.8119,0.7624,0.6816,0.5759,0.5695,0.5692,0.573,0.6865,0.7929,0.0,0.0,0.0,0.0,0.0,0.0,0.0,0.0,0.0,0.0,0.0,0.0,0.0,0.0,0.0,0.0,0.0,0.0,0.0,0.0,0.0,0.0,0.0,0.0,0.0,0.0,0.0,0.0,0.0,0.0,0.0,0.0,0.0,0.0,0.0,0.0,0.0,0.0,0.0,0.0,0.0,1.654,1.5867,1.745,0.0,0.0,0.0,0.0,2.0221,2.0764,0.0,0.0,0.0,0.0,0.0,0.0,0.0,0.0,0.0,0.0,0.0,0.0,0.0,0.0,0.0,0.0,0.0,0.0,0.0,0.0,0.0,0.0,0.0,0.0,0.0,0.0,0.0,0.0,0.0,0.0,0.0,0.0,0.0,0.0,0.0,0.0,0.0,0.0,0.0,0.0,0.0,0.0,0.0,0.0,0.0,0.0,0.0,0.0,0.0,0.0,0.0,0.0,0.0,0.0,0.0,0.0,0.8085,0.7465,0.6666,0.5759,0.5688,0.5691,0.573,0.7744,0.8765,0.0,0.0,0.0,0.0,0.0,0.0,0.0,0.0,0.0,0.0,0.0,0.0,0.0,0.0,0.0,0.0,0.0,0.0,0.0,0.0,0.0,0.0,0.0,0.0,0.0,0.0,0.0,0.0,0.0,0.0,0.0,0.0,0.0,0.0,0.0,0.0,0.0,0.0,0.0,0.0,0.0,1.6326,1.5124,1.7103,1.8891,0.0,0.0,1.807,1.8371,1.7387,0.0,0.0,0.0,0.0,0.0,0.0,0.0,0.0,0.0,0.0,0.0,0.0,0.0,0.0,0.0,0.0,0.0,0.0,0.0,0.0,0.0,0.0,0.0,0.0,0.0,0.0,0.0,0.0,0.0,0.0,0.0,0.0,0.0,0.0,0.0,0.0,0.0,0.0,0.0,0.0,0.0,0.0,0.0,0.0,0.0,0.0,0.0,0.0,0.0,0.0,0.0,0.0,0.0,0.0,0.0,0.7802,0.7636,0.6763,0.6116,0.5733,0.5696,0.5696,0.5694,0.7401,0.8223,0.0,0.0,0.0,0.0,0.0,0.0,0.0,0.0,0.0,0.0,0.0,0.0,0.0,0.0,0.0,0.0,0.0,0.0,0.0,0.0,0.0,0.0,0.0,0.0,0.0,0.0,0.0,0.0,0.0,0.0,0.0,0.0,0.0,0.0,0.0,0.0,0.0,0.0,0.0,0.0,0.0,0.0,1.452,1.6053,0.0,0.0,0.0,1.8084,1.9429,0.0,0.0,0.0,0.0,0.0,0.0,0.0,0.0,0.0,0.0,0.0,0.0,0.0,0.0,0.0,0.0,0.0,0.0,0.0,0.0,0.0,0.0,0.0,0.0,0.0,0.0,0.0,0.0,0.0,0.0,0.0,0.0,0.0,0.0,0.0,0.0,0.0,0.0,0.0,0.0,0.0,0.0,0.0,0.0,0.0,0.0,0.0,0.0,0.0,0.0,0.0,0.0,0.0,0.0,0.0,0.0,0.0,0.7261,0.6263,0.5696,0.5696,0.5696,0.5696,0.5728,0.688,0.0,0.0,0.0,0.0,0.0,0.0,0.0,0.0,0.0,0.0,0.0,0.0,0.0,0.0,0.0,0.0,0.0,0.0,0.0,0.0,0.0,0.0,0.0,0.0,0.0,0.0,0.0,1.2501,0.0,0.0,0.0,0.0,0.0,0.0,0.0,0.0,0.0,0.0,0.0,0.0,0.0,0.0,1.3885,1.4068,1.5194,1.5864,0.0,0.0,1.7923,1.9221,1.6883,1.6295,0.0,0.0,0.0,0.0,0.0,0.0,0.0,0.0,0.0,0.0,0.0,0.0,0.0,0.0,0.0,0.0,0.0,0.0,0.0,0.0,0.0,0.0,0.0,0.0,0.0,0.0,0.0,0.0,0.0,0.0,0.0,0.0,0.0,0.0,0.0,0.0,0.0,0.0,0.0,0.0,0.0,0.0,0.0,0.0,0.0,0.0,0.0,0.0,0.0,0.0,0.0,0.0,0.0,0.0,0.7065,0.7244,0.6263,0.5696,0.5696,0.5696,0.5696,0.5733,0.6568,0.7126,0.0,0.0,0.0,0.0,0.0,0.0,0.0,0.0,0.0,0.0,0.0,0.0,0.0,0.0,0.0,0.0,0.0,0.0,0.0,0.0,0.0,0.0,0.0,0.0,0.0,0.0,0.0,0.0,0.0,0.0,0.0,0.0,0.0,0.0,0.0,0.0,0.0,0.0,0.0,0.0,0.0,1.38,1.38,1.4851,1.5224,0.0,1.5796,1.6821,1.5942,1.3919,1.3675,1.7319,0.0,0.0,0.0,0.0,0.0,0.0,0.0,0.0,0.0,0.0,0.0,0.0,0.0,0.0,0.0,0.0,0.0,0.0,0.0,0.0,0.0,0.0,0.0,0.0,0.0,0.0,0.0,0.0,0.0,0.0,0.0,0.0,0.0,0.0,0.0,0.0,0.0,0.0,0.0,0.0,0.0,0.0,0.0,0.0,0.0,0.0,0.0,0.0,0.0,0.0,0.0,0.0,0.0,0.7081,0.716,0.6202,0.5696,0.5696,0.5696,0.5696,0.5696,0.6273,0.6704,0.0,0.0,0.0,0.0,0.0,0.0,0.0,0.0,0.0,0.0,0.0,0.0,0.0,0.0,0.0,0.0,0.0,0.0,0.0,0.0,0.0,0.0,0.0,0.0,0.0,0.0,0.0,0.0,1.0815,1.0818,1.1088,0.0,0.0,0.0,0.0,0.0,0.0,0.0,0.0,0.0,0.0,1.2839,1.2568,1.35,0.0,0.0,1.4804,1.5881,1.6169,1.4415,1.4245,1.7837,1.7837,0.0,0.0,0.0,0.0,0.0,0.0,0.0,0.0,0.0,0.0,0.0,0.0,0.0,0.0,0.0,0.0,0.0,0.0,0.0,0.0,0.0,0.0,0.0,0.0,0.0,0.0,0.0,0.0,0.0,0.0,0.0,0.0,0.0,0.0,0.0,0.0,0.0,0.0,0.0,0.0,0.0,0.0,0.0,0.0,0.0,0.0,0.0,0.0,0.0,0.0,0.0,0.0,0.7056,0.6994,0.6132,0.5696,0.5696,0.5696,0.5696,0.5733,0.5963,0.6334,0.0,0.0,0.0,0.0,0.0,0.0,0.0,0.0,0.0,0.0,0.0,0.0,0.0,0.0,0.0,0.0,0.0,0.0,0.0,0.0,0.0,0.0,0.0,0.0,0.0,0.0,0.0,0.0,1.01,1.0119,1.0186,0.0,0.0,0.0,0.0,0.0,0.0,0.0,0.0,0.0,0.0,1.2077,1.2152,1.2978,1.357,1.3534,1.4565,1.5521,1.5891,1.466,1.4643,1.7572,0.0,0.0,0.0,0.0,0.0,0.0,0.0,0.0,0.0,0.0,0.0,0.0,0.0,0.0,0.0,0.0,0.0,0.0,0.0,0.0,0.0,0.0,0.0,0.0,0.0,0.0,0.0,0.5851,0.0,0.0,0.4244,0.0,0.0,0.0,0.0,0.0,0.0,0.0,0.0,0.0,0.0,0.0,0.0,0.0,0.0,0.0,0.0,0.0,0.0,0.0,0.0,0.0,0.0,0.6985,0.6725,0.609,0.5739,0.5694,0.5696,0.5741,0.5739,0.5728,0.5911,0.6327,0.0,0.0,0.0,0.0,0.0,0.0,0.0,0.0,0.0,0.0,0.0,0.0,0.0,0.0,0.0,0.0,0.0,0.0,0.0,0.0,0.0,0.0,0.0,0.0,0.0,0.0,0.8568,0.8402,0.8323,0.0,0.0,0.0,0.0,0.0,0.0,0.0,0.0,0.0,1.2906,1.1914,1.1699,1.2932,1.3652,1.3934,1.3771,1.5244,1.5922,1.4524,1.4059,1.4376,0.0,0.0,0.0,0.0,0.0,0.0,0.0,0.0,0.0,0.0,0.0,0.0,0.0,0.0,0.0,0.0,0.0,0.0,0.0,0.0,0.0,0.0,0.0,0.0,0.0,0.0,0.0,0.5302,0.4868,0.0,0.0,0.0,0.0,0.0,0.0,0.0,0.0,0.0,0.0,0.0,0.435,0.4853,0.0,0.0,0.0,0.0,0.0,0.0,0.0,0.0,0.0,0.0,0.0,0.0,0.7244,0.7214,0.6738,0.6344,0.6124,0.621,0.6231,0.6231,0.6148,0.6505,0.7407,0.0,0.0,0.0,0.0,0.0,0.0,0.0,0.0,0.0,0.0,0.0,0.0,0.0,0.0,0.0,0.0,0.0,0.0,0.0,0.0,0.0,0.0,0.0,0.0,0.0,0.8796,0.0,0.0,0.0,0.0,0.0,0.0,0.0,0.0,0.0,0.0,1.1949,1.217,1.1476,1.1425,1.1522,1.165,1.2122,1.2516,0.0,0.0,0.0,0.0,0.0,0.0,0.0,0.0,0.0,0.0,0.0,0.0,0.0,0.0,1.8729,1.883,1.9313,1.9565,1.9059,0.0,0.0,0.0,0.0,0.0,0.0,0.0,0.0,0.0,0.0,0.0,0.0,0.0,0.0,0.5354,0.4961,0.431,0.0,0.0,0.0,0.0,0.0,0.0,0.0,0.0,0.3604,0.3972,0.4218,0.4843,0.5148,0.5199,0.5945,0.6334,0.0,0.0,0.0,0.0,0.0,0.0,0.0,0.0,0.7143,0.7174,0.7015,0.6765,0.6577,0.6688,0.6723,0.6723,0.6612,0.6882,0.7604,0.8081,0.8272,0.0,0.0,0.0,0.0,0.0,0.0,0.0,0.0,0.0,0.0,0.0,0.0,0.0,0.0,0.0,0.0,0.0,0.0,0.0,0.0,0.0,0.0,0.0,0.8192,0.0,0.0,0.0,0.0,0.0,0.0,0.0,0.0,0.0,1.0136,1.0866,1.1047,1.0384,1.0573,1.0889,1.1083,0.0,0.0,0.0,0.0,0.0,0.0,0.0,1.4449,1.5433,1.5338,1.5408,1.6157,1.6632,1.6989,1.7388,0.0,0.0,1.7873,1.8483,1.88,1.8384,1.8934,1.9491,1.9355,1.946,1.9562,0.0,0.0,0.0,0.0,0.5165,0.0,0.0,0.0,0.6075,0.5949,0.0,0.4833,0.0,0.0,0.0,0.0,0.2738,0.3105,0.0,0.0,0.4107,0.445,0.4464,0.4838,0.5183,0.5526,0.5889,0.6178,0.6476,0.7352,0.0,0.0,0.0,0.0,0.0,0.0,0.6801,0.6682,0.6893,0.6979,0.701,0.7132,0.7218,0.7211,0.7095,0.7013,0.7004,0.7781,0.8134,0.792,0.8174,0.0,0.0,0.0,0.0,0.0,0.0,0.0,0.0,0.0,0.0,0.0,0.0,0.0,0.0,0.0,0.0,0.0,0.0,0.0,0.0,0.7306,0.0,0.0,0.0,0.0,0.0,0.0,0.0,0.0,0.0,0.8866,0.9345,0.9565,0.9628,0.9704,0.0,0.0,0.0,0.0,1.2268,1.3572,1.3911,1.388,1.3653,1.373,1.3831,1.3938,0.0,0.0,1.5365,1.5616,1.5885,1.6304,1.6754,1.721,1.7636,1.7776,1.7799,1.7746,1.8362,1.871,1.856,1.8939,1.9109,0.3755,0.0,0.0,0.0,0.0,0.4581,0.4857,0.5346,0.5275,0.5251,0.5283,0.5006,0.0,0.0,0.0,0.0,0.0,0.0,0.3449,0.3723,0.3994,0.4364,0.491,0.526,0.5608,0.599,0.6348,0.6704,0.7048,0.754,0.7567,0.7085,0.0,0.0,0.0,0.0,0.6962,0.7389,0.766,0.7679,0.7418,0.7592,0.7681,0.7622,0.7808,0.7999,0.8188,0.8509,0.8607,0.8426,0.8594,0.0,0.0,0.0,0.0,0.0,0.0,0.0,0.0,0.0,0.0,0.0,0.0,0.0,0.0,0.0,0.0,0.0,0.0,0.0,0.6807,0.713,0.695,0.0,0.0,0.0,0.0,0.0,0.0,0.0,0.0,0.0,0.9023,0.9754,1.0111,0.0,0.0,1.013,1.0579,1.1249,1.1902,1.2322,1.3094,0.0,1.3469,1.3631,1.3822,1.3954,1.4341,1.4754,1.5077,1.5554,1.5898,1.6018,1.6199,1.6447,1.6588,1.7537,1.8059,1.7876,1.8435,1.9155,1.935,1.9425,1.9452,0.3619,0.3745,0.4098,0.4324,0.4485,0.4485,0.4814,0.5328,0.5504,0.5615,0.5721,0.5584,0.5178,0.4534,0.4067,0.0,0.0,0.0,0.3881,0.4254,0.4254,0.4627,0.524,0.564,0.6001,0.6429,0.6757,0.7153,0.7473,0.7358,0.7251,0.7201,0.0,0.6724,0.6896,0.7044,0.7257,0.754,0.7962,0.8073,0.7905,0.8068,0.8178,0.8123,0.8304,0.8434,0.8505,0.8875,0.8976,0.8646,0.8848,0.8488,0.0,0.0,0.0,0.0,0.0,0.0,0.0,0.0,0.0,0.0,0.0,0.5447,0.5119,0.0,0.0,0.0,0.6589,0.6507,0.6234,0.6492,0.0,0.0,0.0,0.0,0.0,0.0,0.0,0.7634,0.8484,0.9123,0.934,1.0089,1.0471,1.0085,1.0245,1.0382,1.0419,0.0,1.1733,1.1773,1.267,1.3259,1.3085,1.3209,1.3387,1.359,1.4034,1.4527,1.506,1.539,1.5687,1.6074,1.6231,1.6267,1.6102,1.7002,1.7743,1.7576,1.8235,1.8926,1.9293,1.9401,1.9494,0.3654,0.3647,0.4048,0.4433,0.48,0.48,0.5242,0.5978,0.6351,0.6553,0.6665,0.6364,0.5991,0.5531,0.4295,0.0,0.424,0.424,0.4451,0.4807,0.4845,0.5109,0.5559,0.5974,0.6355,0.6766,0.7109,0.7448,0.7699,0.699,0.6906,0.7498,0.7988,0.7767,0.6892,0.7251,0.743,0.7263,0.7795,0.8146,0.8311,0.8522,0.8607,0.8607,0.8517,0.8434,0.8215,0.8917,0.918,0.8782,0.8928,0.8889,0.8458,0.0,0.0,0.0,0.0,0.0,0.0,0.0,0.0,0.0,0.0,0.0,0.0,0.0,0.0,0.6187,0.6586,0.0,0.5823,0.5755,0.0,0.0,0.0,0.6704,0.7291,0.8103,0.8615,0.8723,0.0,0.0,1.0051,1.0507,1.074,1.0617,1.0529,1.0519,1.0539,1.1195,1.1712,1.1746,1.245,1.2863,1.2701,1.2705,1.2898,1.3191,1.34,1.4018,1.4883,1.5087,1.541,1.6108,1.6412,1.6274,1.5997,1.6121,1.6489,1.6878,1.7651,1.8296,1.8546,1.8906,1.9069,0.385,0.3917,0.4651,0.4862,0.4788,0.4788,0.5095,0.5522,0.5635,0.5743,0.5897,0.611,0.5987,0.5638,0.4905,0.4626,0.4673,0.4673,0.468,0.4807,0.5185,0.5563,0.5978,0.6393,0.677,0.7147,0.7264,0.7339,0.7415,0.7591,0.734,0.6802,0.735,0.7078,0.6111,0.5983,0.6227,0.6741,0.707,0.7661,0.8485,0.8587,0.8607,0.8607,0.8562,0.8419,0.8305,0.8657,0.8875,0.8941,0.9183,0.9053,0.8447,0.6707,0.0,0.0,0.0,0.0,0.0,0.0,0.0,0.0,0.0,0.359,0.326,0.0,0.3888,0.0,0.6118,0.7128,0.7047,0.7222,0.0,0.0,0.6721,0.712,0.7181,0.8527,0.9314,0.8966,0.979,1.0467,1.0543,1.0732,1.1058,1.141,1.0931,1.0398,1.0197,1.0913,1.147,1.1616,1.2278,1.2857,1.2872,1.3077,1.3288,1.3608,1.371,1.3877,1.4253,1.4295,1.4373,1.4571,1.4703,1.4731,1.4671,1.4434,1.4453,1.4996,1.6249,1.7424,1.7837,1.7902,1.7912,0.3913,0.3974,0.4849,0.5006,0.4691,0.4886,0.512,0.5315,0.551,0.5631,0.5701,0.5939,0.5955,0.582,0.528,0.4996,0.4967,0.4967,0.5084,0.5318,0.5519,0.5894,0.6512,0.6744,0.7053,0.7482,0.748,0.754,0.7544,0.7785,0.7599,0.7115,0.7395,0.7095,0.6166,0.5699,0.5622,0.5884,0.6557,0.7464,0.8546,0.8607,0.8308,0.7671,0.7623,0.7233,0.6519,0.6805,0.6982,0.7011,0.733,0.7313,0.6775,0.5349,0.4391,0.0,0.0,0.0,0.0,0.0,0.0,0.0,0.0,0.0,0.0,0.0,0.4036,0.4445,0.6232,0.7221,0.6828,0.7307,0.7357,0.678,0.765,0.8336,0.8346,0.9582,1.037,1.0181,1.0671,1.1079,1.1161,1.1368,1.159,1.1933,1.1626,1.1229,1.0963,1.1444,1.1906,1.1923,1.2556,1.3035,1.3084,1.3186,1.3299,1.3388,1.3415,1.3522,1.3901,1.3986,1.3986,1.3992,1.4051,1.3998,1.3798,1.3749,1.3851,1.4202,1.5151,1.5967,1.6142,1.6043,1.6059,0.3992,0.4036,0.49,0.5002,0.4672,0.5084,0.5191,0.5039,0.5407,0.5616,0.5666,0.5712,0.5827,0.5863,0.5441,0.521,0.5202,0.5242,0.5489,0.5891,0.5913,0.6284,0.7003,0.7082,0.7322,0.7684,0.7762,0.7799,0.7799,0.7811,0.7762,0.7621,0.7633,0.7263,0.6446,0.5844,0.5419,0.5068,0.6272,0.7377,0.8369,0.8256,0.7606,0.6443,0.634,0.566,0.4362,0.4568,0.4681,0.4541,0.4946,0.5157,0.5108,0.3967,0.3439,0.0,0.2565,0.0,0.0,0.0,0.0,0.0,0.0,0.0,0.0,0.4723,0.4884,0.5382,0.6705,0.7174,0.6385,0.7128,0.7637,0.763,0.8911,0.9822,0.9951,1.0807,1.1427,1.161,1.1648,1.1748,1.1862,1.2085,1.2263,1.2227,1.2324,1.2248,1.2004,1.2212,1.2432,1.25,1.2929,1.3157,1.3082,1.3114,1.3051,1.2907,1.2822,1.3054,1.3485,1.3626,1.3689,1.374,1.374,1.3665,1.3208,1.3522,1.3802,1.3796,1.4128,1.4386,1.4468,1.4532,1.4233,0.4142,0.422,0.5153,0.5491,0.5405,0.5491,0.5004,0.4149,0.423,0.4454,0.4866,0.5288,0.5455,0.5418,0.5322,0.5251,0.5204,0.561,0.5816,0.5938,0.6607,0.7,0.7165,0.7488,0.7694,0.7774,0.7791,0.7799,0.7799,0.7831,0.751,0.6774,0.6875,0.6431,0.5594,0.0,0.0,0.0,0.6397,0.7095,0.7277,0.6508,0.5912,0.5609,0.5362,0.0,0.4629,0.4417,0.4418,0.4657,0.4969,0.0,0.0,0.0,0.0,0.0,0.0,0.0,0.0,0.0,0.0,0.0,0.509,0.496,0.5015,0.5048,0.5519,0.6544,0.7251,0.7821,0.8354,0.9069,0.9241,0.8738,0.9936,1.063,1.023,1.1067,1.177,1.1906,1.2009,1.2159,1.2232,1.2379,1.2417,1.2471,1.2455,1.2488,1.2542,1.2487,1.2491,1.255,1.2724,1.2857,1.2913,1.3012,1.2905,1.2625,1.2513,1.2431,1.2271,1.2178,1.2271,1.2683,1.2802,1.3021,1.3234,1.3205,1.3048,1.3006,1.2738,1.2886,1.4355,1.4704,1.4698,0.4226,0.4291,0.5225,0.5475,0.0,0.5258,0.4808,0.408,0.4539,0.489,0.5126,0.5343,0.5412,0.5382,0.5143,0.4987,0.4961,0.4959,0.5333,0.6034,0.6366,0.6921,0.7578,0.7742,0.7827,0.7868,0.7954,0.7995,0.8003,0.8047,0.7875,0.7372,0.7455,0.7288,0.6915,0.6986,0.6742,0.6186,0.6738,0.7234,0.7734,0.732,0.6674,0.6037,0.5822,0.0,0.0,0.0,0.0,0.0,0.0,0.0,0.0,0.5225,0.0,0.6115,0.5405,0.5331,0.6085,0.6109,0.6341,0.6928,0.6991,0.6719,0.607,0.6517,0.7172,0.7881,0.8227,0.8618,0.913,0.9981,1.0122,0.9236,1.0638,1.1424,1.0733,1.1403,1.2129,1.2237,1.2314,1.2379,1.2439,1.2602,1.27,1.2716,1.2814,1.2845,1.2933,1.2765,1.2656,1.2776,1.2542,1.2476,1.2581,1.2446,1.2482,1.242,1.2502,1.2527,1.2584,1.2589,1.2641,1.2641,1.2687,1.2723,1.2623,1.2721,1.281,1.281,1.2757,1.2995,1.4018,1.3782,1.3365,0.4265,0.4317,0.5247,0.5449,0.5056,0.51,0.4873,0.4555,0.5181,0.0,0.0,0.551,0.5533,0.5488,0.5054,0.4907,0.495,0.4652,0.52,0.6382,0.6324,0.6922,0.7961,0.7965,0.7965,0.797,0.8154,0.8223,0.8228,0.8254,0.829,0.829,0.8307,0.8411,0.8522,0.866,0.8247,0.7369,0.7163,0.7487,0.8352,0.8179,0.7567,0.6456,0.6365,0.582,0.4717,0.463,0.4606,0.4603,0.4559,0.4664,0.4944,0.4947,0.5161,0.5736,0.5786,0.6253,0.7329,0.7335,0.7686,0.8705,0.8737,0.8312,0.7302,0.8093,0.8746,0.8905,0.9167,0.9318,0.931,1.0375,1.0624,0.9455,1.1175,1.2005,1.1111,1.1793,1.2476,1.2564,1.2596,1.2569,1.2623,1.2835,1.2899,1.282,1.2888,1.31,1.3073,1.2802,1.2634,1.2637,1.244,1.2349,1.2369,1.2321,1.2159,1.2599,1.2619,1.2807,1.3153,1.3285,1.3127,1.2842,1.281,1.2646,1.2329,1.2704,1.2915,1.2915,1.3285,1.3607,1.3555,1.2863,1.2377,0.4374,0.446,0.5416,0.5826,0.578,0.5735,0.5705,0.5557,0.5193,0.5,0.4997,0.5423,0.5591,0.5591,0.5494,0.5664,0.6098,0.6354,0.6875,0.7478,0.7808,0.8062,0.8234,0.8234,0.8234,0.8238,0.8258,0.827,0.8274,0.8286,0.829,0.8303,0.8411,0.8534,0.8685,0.8676,0.8651,0.8614,0.7699,0.7355,0.7471,0.6583,0.6023,0.5858,0.5612,0.5319,0.5037,0.4793,0.4621,0.4621,0.4846,0.542,0.6361,0.6715,0.7349,0.8289,0.8365,0.8479,0.8618,0.8655,0.8712,0.895,0.8971,0.8823,0.8473,0.8732,0.8995,0.9105,0.9298,0.9473,0.9456,1.042,1.0832,1.0268,1.1523,1.2256,1.1707,1.2121,1.2613,1.2808,1.2835,1.2872,1.3018,1.3049,1.2922,1.2626,1.2672,1.2611,1.2621,1.2549,1.2272,1.1999,1.2275,1.2486,1.2511,1.3017,1.2901,1.2837,1.2726,1.2621,1.2435,1.244,1.2545,1.2757,1.2863,1.2968,1.318,1.3444,1.3444,1.3444,1.3549,1.3607,1.3607,1.3391,1.3285,0.4441,0.4539,0.5459,0.5875,0.5875,0.5875,0.5907,0.5829,0.5567,0.5407,0.535,0.558,0.5654,0.5605,0.5358,0.5475,0.5908,0.5865,0.6385,0.7295,0.7512,0.7858,0.829,0.829,0.829,0.8294,0.8387,0.8411,0.8415,0.8456,0.8441,0.8489,0.857,0.8681,0.8803,0.8856,0.8901,0.8942,0.841,0.8144,0.8144,0.7677,0.7442,0.7493,0.7316,0.7275,0.7282,0.7105,0.7061,0.7017,0.7194,0.7501,0.8049,0.8297,0.8617,0.9146,0.9163,0.9163,0.9158,0.9163,0.9179,0.922,0.9224,0.9191,0.9105,0.9134,0.9191,0.9281,0.9399,0.9477,0.9485,1.0505,1.0993,1.0451,1.1838,1.2576,1.2232,1.2584,1.291,1.3008,1.2775,1.267,1.277,1.2523,1.2455,1.246,1.2761,1.2828,1.2303,1.2221,1.2291,1.2562,1.244,1.2255,1.2207,1.1873,1.1959,1.2175,1.2334,1.2493,1.2651,1.281,1.2915,1.318,1.3232,1.3338,1.3607,1.3607,1.3607,1.3607,1.3607,1.3607,1.3607,1.3607,1.3607,0.471,0.4738,0.5615,0.5976,0.5915,0.5962,0.5954,0.5897,0.5897,0.5837,0.574,0.5733,0.5756,0.5706,0.5387,0.5534,0.5884,0.5712,0.6279,0.7286,0.7435,0.7798,0.8368,0.8456,0.8412,0.8464,0.853,0.8607,0.8615,0.8632,0.8668,0.8677,0.8734,0.8811,0.8901,0.8971,0.9028,0.906,0.8999,0.8954,0.8934,0.8934,0.8975,0.906,0.9065,0.9114,0.9147,0.9156,0.9156,0.9156,0.9156,0.9236,0.9305,0.931,0.9338,0.9399,0.9408,0.9408,0.9408,0.9424,0.9444,0.9469,0.9489,0.9506,0.9522,0.9473,0.944,0.9477,0.9555,0.9566,0.9744,1.0653,1.1152,1.0757,1.1983,1.2634,1.2298,1.2574,1.2842,1.2807,1.2611,1.2466,1.2403,1.2261,1.2305,1.2692,1.3022,1.2857,1.2228,1.2122,1.2545,1.3021,1.2545,1.18,1.1699,1.1382,1.1382,1.2017,1.2281,1.2757,1.3343,1.3555,1.3607,1.3549,1.3602,1.3549,1.3607,1.3607,1.3607,1.3607,1.3607,1.3607,1.3607,1.3607,1.3607,0.5422,0.5459,0.5987,0.6131,0.6132,0.6129,0.6102,0.6011,0.6006,0.5967,0.5907,0.5899,0.5894,0.5934,0.6189,0.6567,0.7113,0.7523,0.7971,0.8471,0.8692,0.8774,0.8849,0.8857,0.8869,0.8857,0.8861,0.8857,0.8857,0.8878,0.889,0.8848,0.8902,0.8905,0.8987,0.9007,0.9089,0.9248,0.9248,0.9203,0.9074,0.907,0.9115,0.9252,0.9252,0.9297,0.9367,0.9383,0.9383,0.9383,0.9379,0.9383,0.9399,0.9395,0.9399,0.9416,0.9416,0.9408,0.942,0.9436,0.9571,0.9653,0.9726,0.9749,0.9822,0.983,0.9765,0.9714,0.9738,0.9765,0.9902,1.083,1.1292,1.0891,1.1774,1.2251,1.1906,1.17,1.179,1.1834,1.2365,1.2661,1.2738,1.2979,1.31,1.2774,1.2578,1.2545,1.2598,1.2598,1.2757,1.3074,1.2228,1.1382,1.1382,1.207,1.2281,1.2651,1.3079,1.3343,1.3549,1.3607,1.3607,1.3607,1.3607,1.3607,1.3607,1.3607,1.3607,1.3607,1.3607,1.3613,1.3607,1.3618,1.3618,0.6539,0.652,0.6985,0.72,0.7175,0.7175,0.6942,0.66,0.6597,0.6369,0.6077,0.6356,0.6269,0.5921,0.6399,0.6892,0.7396,0.7904,0.8358,0.8774,0.8898,0.8919,0.8919,0.8919,0.8919,0.8919,0.8919,0.8919,0.8919,0.8919,0.8897,0.8946,0.8954,0.9024,0.9154,0.9171,0.9232,0.935,0.9354,0.9338,0.9305,0.9297,0.9318,0.935,0.9354,0.9371,0.9403,0.9408,0.9408,0.9412,0.9407,0.9514,0.9567,0.962,0.9673,0.9671,0.968,0.968,0.968,0.9716,0.9749,0.984,0.9826,0.9862,0.9895,0.9899,0.9883,0.9926,0.9906,0.9862,1.0002,1.0622,1.1052,1.105,1.1843,1.2439,1.2353,1.2567,1.2802,1.2838,1.2738,1.2753,1.2799,1.2968,1.3021,1.2863,1.2757,1.2915,1.2863,1.281,1.2704,1.2545,1.1964,1.1858,1.1964,1.207,1.244,1.2704,1.2968,1.318,1.3549,1.3607,1.3607,1.3607,1.3607,1.3607,1.3607,1.3607,1.3607,1.3618,1.3684,1.3711,1.3711,1.3711,1.3711,0.7734,0.7689,0.7849,0.7917,0.7896,0.7896,0.7671,0.7288,0.7236,0.6963,0.663,0.7013,0.6903,0.6515,0.6892,0.729,0.7657,0.8169,0.8586,0.8913,0.898,0.8993,0.8946,0.8946,0.8946,0.8946,0.895,0.895,0.895,0.8975,0.9016,0.9077,0.9105,0.9183,0.9301,0.9314,0.9359,0.9436,0.9444,0.9457,0.9477,0.9481,0.9469,0.9399,0.9444,0.9457,0.9481,0.9481,0.9493,0.9522,0.9533,0.9661,0.9751,0.982,0.9834,0.9891,0.9899,0.9899,0.9903,0.9923,0.9936,0.9936,0.9956,1.0076,1.018,1.0232,1.0366,1.0569,1.0478,1.0444,1.0076,1.0648,1.1043,1.1049,1.1949,1.2618,1.2583,1.2915,1.3016,1.3074,1.2852,1.2863,1.2968,1.3074,1.3074,1.3127,1.3338,1.3496,1.3127,1.3021,1.2863,1.244,1.2387,1.2387,1.2545,1.244,1.2387,1.2651,1.2915,1.3232,1.3549,1.3607,1.3607,1.3607,1.3607,1.3607,1.3607,1.3607,1.3629,1.3662,1.3722,1.3803,1.3825,1.3814,1.3787,0.9036,0.8952,0.8314,0.8067,0.7949,0.7952,0.7896,0.7893,0.7844,0.7841,0.7729,0.783,0.779,0.7704,0.8,0.8119,0.8209,0.868,0.8969,0.9024,0.905,0.9087,0.9083,0.9083,0.9083,0.9083,0.9087,0.9083,0.9087,0.9212,0.9265,0.9269,0.933,0.9383,0.9403,0.9408,0.9448,0.9489,0.9505,0.9583,0.9657,0.9669,0.9628,0.9509,0.9489,0.9583,0.9657,0.9719,0.9706,0.9741,0.9745,0.984,0.9875,0.9895,0.9903,0.9911,0.9907,0.9907,0.9923,1.0032,1.0125,1.0138,1.0195,1.046,1.0971,1.1024,1.1187,1.1685,1.1666,1.1292,1.0557,1.1173,1.1556,1.1253,1.2108,1.2483,1.2065,1.2228,1.2017,1.2228,1.2651,1.3021,1.3444,1.3549,1.3502,1.3502,1.3607,1.3549,1.3496,1.3496,1.3444,1.3444,1.3338,1.318,1.2281,1.244,1.2757,1.2968,1.3232,1.3549,1.3549,1.3607,1.3607,1.3607,1.3607,1.3607,1.3607,1.3629,1.3667,1.3711,1.3765,1.3884,1.3934,1.3852,1.3825,1.0737,1.0571,0.9949,0.9665,0.9537,0.9185,0.8807,0.8511,0.8462,0.8236,0.8001,0.8288,0.8416,0.8387,0.8811,0.8753,0.8468,0.8945,0.9212,0.9261,0.9297,0.9314,0.931,0.9265,0.9265,0.9314,0.9314,0.9314,0.9314,0.9346,0.9363,0.9363,0.9391,0.9436,0.9493,0.9555,0.9624,0.9714,0.9724,0.9773,0.9793,0.9857,0.9785,0.9753,0.9696,0.9763,0.9801,0.9857,0.9873,0.985,0.9854,0.9891,1.0028,1.0089,1.007,1.007,1.0122,1.0122,1.0126,1.0098,1.0325,1.0694,1.0725,1.1011,1.1487,1.1593,1.1699,1.1858,1.1911,1.1646,1.1487,1.1699,1.1858,1.1805,1.2281,1.2757,1.2598,1.2757,1.2968,1.3021,1.3232,1.3391,1.3502,1.3607,1.3607,1.3607,1.3607,1.3607,1.3607,1.3607,1.3607,1.3607,1.3607,1.3496,1.3127,1.3127,1.3338,1.3338,1.3496,1.3549,1.3607,1.3607,1.3607,1.3607,1.3607,1.3607,1.3607,1.3613,1.3662,1.3749,1.3809,1.389,1.4053,1.3944,1.3912,1.2011,1.1506,1.1134,1.0825,1.0538,1.018,0.9673,0.9147,0.9093,0.886,0.8617,0.8856,0.8993,0.9015,0.9305,0.9224,0.8873,0.9189,0.935,0.9403,0.9408,0.9408,0.9408,0.9408,0.9408,0.9408,0.9408,0.9408,0.9412,0.9436,0.9452,0.9399,0.9506,0.9571,0.9586,0.9722,0.9804,0.9814,0.9871,0.9899,0.9899,0.9899,0.9915,0.9979,0.9934,0.9914,0.9903,0.9899,0.9919,0.9936,0.9991,1.0032,1.0118,1.0183,1.0216,1.0216,1.0371,1.0481,1.0534,1.064,1.0905,1.1276,1.1382,1.1593,1.2122,1.2175,1.2281,1.2387,1.244,1.244,1.244,1.244,1.2387,1.2334,1.2704,1.3074,1.3074,1.3343,1.3555,1.3555,1.3555,1.3607,1.3607,1.3607,1.3607,1.3607,1.3607,1.3607,1.3607,1.3607,1.3607,1.3607,1.3607,1.3607,1.3449,1.3449,1.3502,1.3549,1.3549,1.3602,1.3607,1.3607,1.3607,1.3607,1.3607,1.3607,1.3607,1.3607,1.3667,1.3765,1.3814,1.3874,1.3966,1.4015,1.395,1.2787,1.1807,1.1643,1.133,1.0889,1.0681,1.0324,0.974,0.9681,0.9569,0.9498,0.9615,0.9512,0.9509,0.9497,0.9489,0.9423,0.9407,0.9428,0.9436,0.9432,0.9428,0.9432,0.944,0.944,0.9436,0.942,0.9424,0.9448,0.9522,0.9509,0.9537,0.9671,0.9736,0.9812,0.9838,0.9895,0.9907,0.9919,0.9919,0.9903,0.9923,0.996,1.0073,1.0073,1.004,0.9919,0.9919,0.996,1.0069,1.0081,1.0122,1.0244,1.0318,1.0269,1.0428,1.0799,1.1064,1.117,1.154,1.1752,1.1911,1.1911,1.2175,1.2651,1.281,1.2968,1.3285,1.3444,1.3502,1.3449,1.3444,1.3285,1.2968,1.3232,1.3496,1.3549,1.3602,1.3607,1.3607,1.3607,1.3607,1.3607,1.3607,1.3607,1.3607,1.3607,1.3607,1.3607,1.3607,1.3607,1.3607,1.3607,1.3607,1.3607,1.3607,1.3607,1.3607,1.3607,1.3607,1.3607,1.3607,1.3607,1.3607,1.3607,1.3607,1.3607,1.3613,1.3667,1.3749,1.3792,1.3852,1.3928,1.3966,1.389,1.3968,1.3374,1.2636,1.2156,1.1754,1.1083,1.0619,1.0337,0.9978,0.9738,0.9689,0.9681,0.9661,0.9644,0.9636,0.9636,0.9636,0.9608,0.9595,0.9595,0.9591,0.9591,0.9591,0.9595,0.9595,0.9595,0.9595,0.9628,0.9681,0.9663,0.9708,0.9777,0.9826,0.9858,0.9866,0.9996,1.004,1.0049,1.0102,1.0082,1.0134,1.0134,1.0147,1.0171,1.0175,1.0159,1.0082,1.0134,1.0147,1.0171,1.0171,1.0346,1.0795,1.117,1.1324,1.1382,1.154,1.1646,1.1646,1.1805,1.2122,1.244,1.2545,1.281,1.3232,1.3343,1.3391,1.3607,1.3607,1.3607,1.3607,1.3607,1.3502,1.3391,1.3496,1.3607,1.3607,1.3607,1.3607,1.3607,1.3607,1.3607,1.3607,1.3607,1.3607,1.3607,1.3607,1.3607,1.3607,1.3607,1.3607,1.3607,1.3607,1.3607,1.3607,1.3607,1.3607,1.3607,1.3607,1.3607,1.3607,1.3607,1.3607,1.3607,1.3607,1.3607,1.3607,1.3624,1.3673,1.3722,1.377,1.3847,1.3982,1.3949,1.3809,1.4969,1.44,1.3614,1.2948,1.243,1.1752,1.1283,1.0995,1.0428,1.0134,1.0092,0.9885,0.9763,0.9742,0.9763,0.9759,0.9738,0.9763,0.9783,0.9763,0.9702,0.9697,0.973,0.9771,0.9779,0.9783,0.9783,0.9812,0.9814,0.9869,0.9846,0.9891,0.9931,1.0,0.9956,1.0085,1.0235,1.0401,1.0553,1.064,1.0799,1.0799,1.0852,1.0852,1.0852,1.0852,1.0799,1.0852,1.0746,1.064,1.0693,1.1011,1.1382,1.1699,1.1911,1.1964,1.2122,1.2228,1.2228,1.244,1.2704,1.3021,1.3074,1.3232,1.3549,1.3607,1.3607,1.3607,1.3607,1.3607,1.3607,1.3607,1.3607,1.3607,1.3607,1.3607,1.3607,1.3607,1.3607,1.3607,1.3607,1.3607,1.3607,1.3607,1.3607,1.3607,1.3607,1.3607,1.3607,1.3607,1.3607,1.3607,1.3607,1.3607,1.3607,1.3607,1.3607,1.3607,1.3607,1.3607,1.3607,1.3607,1.3607,1.3607,1.3607,1.3607,1.3607,1.3607,1.3635,1.3694,1.3732,1.3743,1.3829,1.384,1.3727,1.5782,1.4791,1.451,1.3711,1.2776,1.2552,1.2169,1.1662,1.1086,1.0819,1.0651,1.0231,0.9893,0.9853,0.9842,0.9834,0.9849,0.9842,0.9871,0.9834,0.98,0.9759,0.9824,0.9889,0.9866,0.9875,0.9879,0.9947,1.0062,1.0062,0.9963,1.0151,1.0318,1.0246,1.0364,1.0281,1.068,1.1051,1.1112,1.1382,1.1752,1.1805,1.1805,1.1805,1.1752,1.1752,1.1699,1.1805,1.1646,1.1276,1.1593,1.1858,1.1964,1.1964,1.2122,1.2175,1.2545,1.2757,1.2968,1.318,1.3449,1.3502,1.3502,1.3607,1.3607,1.3607,1.3607,1.3607,1.3607,1.3607,1.3607,1.3607,1.3607,1.3607,1.3607,1.3607,1.3607,1.3607,1.3607,1.3607,1.3607,1.3607,1.3607,1.3607,1.3607,1.3607,1.3607,1.3607,1.3607,1.3607,1.3607,1.3607,1.3607,1.3607,1.3607,1.3607,1.3607,1.3607,1.3607,1.3607,1.3607,1.3607,1.3607,1.3607,1.3607,1.3607,1.3607,1.3607,1.3607,1.3635,1.364,1.3613,1.3624,1.3667,1.3678,1.6216,1.541,1.485,1.4195,1.3466,1.2963,1.2597,1.2288,1.1763,1.1314,1.0888,1.0664,1.0355,0.9922,0.9942,0.9887,0.993,0.9895,0.9899,0.9895,0.9858,0.9838,0.9862,0.9887,0.9907,0.9907,0.9971,1.0143,1.0613,1.0618,1.0861,1.1357,1.1313,1.1389,1.1402,1.1368,1.1536,1.1646,1.1699,1.1752,1.1911,1.1964,1.1911,1.1911,1.1964,1.1964,1.1964,1.2334,1.2281,1.1805,1.2281,1.2545,1.2598,1.2863,1.3074,1.3074,1.3232,1.3391,1.3391,1.3502,1.3607,1.3607,1.3607,1.3607,1.3607,1.3607,1.3607,1.3607,1.3607,1.3607,1.3607,1.3607,1.3607,1.3607,1.3607,1.3607,1.3607,1.3607,1.3607,1.3607,1.3607,1.3607,1.3607,1.3607,1.3607,1.3607,1.3607,1.3607,1.3607,1.3607,1.3607,1.3607,1.3607,1.3607,1.3607,1.3607,1.3607,1.3607,1.3607,1.3607,1.3607,1.3607,1.3607,1.3607,1.3607,1.3607,1.3607,1.3607,1.3607,1.3607,1.3607,1.3607,1.3607,1.3629,1.3635,1.6778,1.6091,1.5416,1.4771,1.4175,1.3567,1.3205,1.3005,1.2515,1.2035,1.164,1.136,1.103,1.0683,1.0513,1.0405,1.0324,1.0097,1.0013,1.0065,1.0326,1.0253,1.0076,1.0036,1.0169,1.043,1.0426,1.077,1.1234,1.1343,1.1538,1.1786,1.1911,1.1911,1.1848,1.1911,1.207,1.2228,1.2281,1.2334,1.2598,1.2598,1.2651,1.2598,1.2598,1.2598,1.2651,1.2968,1.2863,1.2545,1.281,1.3127,1.318,1.3396,1.3607,1.3607,1.3607,1.3607,1.3607,1.3607,1.3607,1.3607,1.3607,1.3607,1.3607,1.3607,1.3607,1.3607,1.3607,1.3607,1.3607,1.3607,1.3607,1.3607,1.3607,1.3607,1.3607,1.3607,1.3607,1.3607,1.3607,1.3607,1.3607,1.3607,1.3607,1.3607,1.3607,1.3607,1.3607,1.3607,1.3607,1.3607,1.3607,1.3607,1.3607,1.3607,1.3607,1.3607,1.3607,1.3607,1.3607,1.3607,1.3607,1.3607,1.3607,1.3607,1.3607,1.3607,1.3607,1.3607,1.3607,1.3607,1.3607,1.3607,1.3607,1.7287,1.6782,1.6043,1.5392,1.4736,1.4226,1.3879,1.3707,1.3257,1.2869,1.2623,1.219,1.1858,1.1778,1.1261,1.1116,1.0988,1.0686,1.0509,1.0614,1.0874,1.0892,1.0525,1.0524,1.0764,1.1086,1.1165,1.1474,1.1839,1.1949,1.206,1.2228,1.2228,1.2122,1.2281,1.2175,1.2387,1.281,1.2863,1.3021,1.3338,1.3396,1.3391,1.3391,1.3391,1.3391,1.3444,1.3549,1.3338,1.2915,1.3343,1.3549,1.3549,1.3607,1.3607,1.3607,1.3607,1.3607,1.3607,1.3607,1.3607,1.3607,1.3607,1.3607,1.3607,1.3607,1.3607,1.3607,1.3607,1.3607,1.3607,1.3607,1.3607,1.3607,1.3607,1.3607,1.3607,1.3607,1.3607,1.3607,1.3607,1.3607,1.3607,1.3607,1.3607,1.3607,1.3607,1.3607,1.3607,1.3607,1.3607,1.3607,1.3607,1.3607,1.3607,1.3607,1.3607,1.3607,1.3607,1.3607,1.3607,1.3607,1.3607,1.3607,1.3607,1.3607,1.3607,1.3607,1.3607,1.3607,1.3607,1.3607,1.3607,1.3607,1.3607,1.7488,1.6869,1.618,1.5524,1.4905,1.427,1.3999,1.3923,1.3815,1.3422,1.2963,1.2729,1.2403,1.1935,1.1805,1.168,1.1676,1.154,1.154,1.154,1.1646,1.169,1.1513,1.1545,1.1593,1.1752,1.1752,1.207,1.2493,1.2651,1.281,1.3127,1.3074,1.3232,1.318,1.3074,1.3285,1.3444,1.3391,1.3444,1.3549,1.3607,1.3607,1.3607,1.3607,1.3607,1.3607,1.3607,1.3549,1.3496,1.3496,1.3607,1.3607,1.3607,1.3607,1.3607,1.3607,1.3607,1.3607,1.3607,1.3607,1.3607,1.3607,1.3607,1.3607,1.3607,1.3607,1.3607,1.3607,1.3607,1.3607,1.3607,1.3607,1.3607,1.3607,1.3607,1.3607,1.3607,1.3607,1.3607,1.3607,1.3607,1.3607,1.3607,1.3607,1.3607,1.3607,1.3607,1.3607,1.3607,1.3607,1.3607,1.3607,1.3607,1.3607,1.3607,1.3607,1.3607,1.3607,1.3607,1.3607,1.3607,1.3607,1.3607,1.3607,1.3607,1.3607,1.3607,1.3607,1.3607,1.3607,1.3607,1.3607,1.3607,1.3607,1.7802,1.7399,1.6427,1.582,1.5368,1.4541,1.4091,1.4048,1.4042,1.3809,1.3502,1.3432,1.3234,1.2861,1.2589,1.2487,1.236,1.2108,1.1987,1.204,1.22,1.236,1.2481,1.2661,1.2762,1.2412,1.2334,1.2651,1.3021,1.3185,1.3285,1.3549,1.3607,1.3549,1.3607,1.3613,1.3555,1.3602,1.3607,1.3607,1.3607,1.3607,1.3607,1.3607,1.3607,1.3607,1.3607,1.3607,1.3607,1.3607,1.3607,1.3607,1.3607,1.3607,1.3607,1.3607,1.3607,1.3607,1.3607,1.3607,1.3607,1.3607,1.3607,1.3607,1.3607,1.3607,1.3607,1.3607,1.3607,1.3607,1.3607,1.3607,1.3607,1.3607,1.3607,1.3607,1.3607,1.3607,1.3607,1.3607,1.3607,1.3607,1.3607,1.3607,1.3607,1.3607,1.3607,1.3607,1.3607,1.3607,1.3607,1.3607,1.3607,1.3607,1.3607,1.3607,1.3607,1.3607,1.3607,1.3607,1.3607,1.3607,1.3607,1.3607,1.3607,1.3607,1.3607,1.3607,1.3607,1.3607,1.3607,1.3607,1.3607,1.3607,1.3607,1.8111,1.8021,1.6781,1.6225,1.5929,1.4919,1.4304,1.4173,1.4112,1.4097,1.3999,1.4037,1.3858,1.3842,1.3452,1.3246,1.3112,1.2786,1.2575,1.2629,1.2951,1.3058,1.3186,1.3486,1.3524,1.303,1.2993,1.3312,1.3519,1.3656,1.3652,1.3673,1.3667,1.37,1.3673,1.3662,1.3673,1.3662,1.3651,1.3629,1.3607,1.3607,1.3607,1.3607,1.3607,1.3607,1.3607,1.3607,1.3607,1.3607,1.3607,1.3607,1.3607,1.3607,1.3607,1.3607,1.3607,1.3607,1.3607,1.3607,1.3607,1.3607,1.3607,1.3607,1.3607,1.3607,1.3607,1.3607,1.3607,1.3607,1.3607,1.3607,1.3607,1.3607,1.3607,1.3607,1.3607,1.3607,1.3607,1.3607,1.3607,1.3607,1.3607,1.3607,1.3607,1.3607,1.3607,1.3607,1.3607,1.3607,1.3607,1.3607,1.3607,1.3607,1.3607,1.3607,1.3607,1.3607,1.3607,1.3607,1.3607,1.3607,1.3607,1.3607,1.3607,1.3607,1.3607,1.3607,1.3607,1.3607,1.3607,1.3607,1.3607,1.3607,1.3607,1.8206,1.8035,1.733,1.6646,1.6046,1.5313,1.4747,1.4292,1.4282,1.4216,1.4118,1.4053,1.4053,1.3993,1.3961,1.3852,1.3765,1.3517,1.355,1.355,1.3712,1.3712,1.3777,1.3923,1.389,1.3858,1.3734,1.3788,1.3879,1.3955,1.3857,1.3939,1.3933,1.3928,1.3868,1.3944,1.3879,1.3765,1.3754,1.3716,1.3662,1.364,1.364,1.364,1.3645,1.3635,1.3613,1.3607,1.3607,1.3607,1.3607,1.3607,1.3607,1.3607,1.3607,1.3607,1.3607,1.3607,1.3607,1.3607,1.3607,1.3607,1.3607,1.3607,1.3607,1.3607,1.3607,1.3607,1.3607,1.3607,1.3607,1.3607,1.3607,1.3607,1.3607,1.3607,1.3607,1.3607,1.3607,1.3607,1.3607,1.3607,1.3607,1.3607,1.3607,1.3607,1.3607,1.3607,1.3607,1.3607,1.3607,1.3607,1.3607,1.3607,1.3607,1.3607,1.3607,1.3607,1.3607,1.3607,1.3607,1.3607,1.3607,1.3607,1.3607,1.3607,1.3607,1.3607,1.3607,1.3607,1.3607,1.3607,1.3607,1.3607,1.3607,1.8389,1.8258,1.7612,1.6884,1.6156,1.558,1.4932,1.4381,1.432,1.4232,1.4243,1.4227,1.4205,1.4156,1.4146,1.4146,1.4129,1.4069,1.4053,1.4048,1.4048,1.4048,1.4064,1.4108,1.414,1.4146,1.414,1.4064,1.402,1.4004,1.4026,1.4009,1.4009,1.4009,1.4009,1.3999,1.3982,1.3879,1.3868,1.3847,1.3787,1.3781,1.3835,1.3781,1.3776,1.376,1.3705,1.37,1.3667,1.3618,1.3607,1.3607,1.3607,1.3607,1.3607,1.3607,1.3607,1.3607,1.3607,1.3607,1.3607,1.3607,1.3607,1.3607,1.3607,1.3607,1.3607,1.3607,1.3607,1.3607,1.3607,1.3607,1.3607,1.3607,1.3607,1.3607,1.3607,1.3607,1.3607,1.3607,1.3607,1.3607,1.3607,1.3607,1.3607,1.3607,1.3607,1.3607,1.3607,1.3607,1.3607,1.3607,1.3607,1.3607,1.3607,1.3607,1.3607,1.3607,1.3607,1.3607,1.3607,1.3607,1.3607,1.3607,1.3607,1.3607,1.3607,1.3607,1.3607,1.3607,1.3607,1.3607,1.3607,1.3607,1.3607,1.8559,1.8461,1.7897,1.7136,1.6346,1.5798,1.5117,1.4419,1.433,1.432,1.432,1.4314,1.4314,1.4314,1.4314,1.4309,1.4314,1.4205,1.4178,1.4173,1.4173,1.4118,1.4205,1.426,1.4298,1.4276,1.4287,1.4222,1.4097,1.4119,1.4097,1.4113,1.4097,1.4086,1.4102,1.4124,1.408,1.4048,1.3993,1.4042,1.4015,1.4009,1.4009,1.4009,1.4009,1.3955,1.383,1.3819,1.376,1.3689,1.3651,1.3635,1.3613,1.3607,1.3607,1.3607,1.3607,1.3607,1.3607,1.3607,1.3607,1.3607,1.3607,1.3607,1.3607,1.3607,1.3607,1.3607,1.3607,1.3607,1.3607,1.3607,1.3607,1.3607,1.3607,1.3607,1.3607,1.3607,1.3607,1.3607,1.3607,1.3607,1.3607,1.3607,1.3607,1.3607,1.3607,1.3607,1.3607,1.3607,1.3607,1.3607,1.3607,1.3607,1.3607,1.3607,1.3607,1.3607,1.3607,1.3607,1.3607,1.3607,1.3607,1.3607,1.3607,1.3607,1.3607,1.3607,1.3607,1.3607,1.3607,1.3607,1.3607,1.3607,1.3607,1.8654,1.8474,1.8397,1.7675,1.6519,1.624,1.5511,1.4528,1.4369,1.4325,1.4336,1.432,1.432,1.432,1.432,1.432,1.4314,1.4298,1.4276,1.4271,1.4276,1.4276,1.4237,1.4309,1.432,1.432,1.432,1.4314,1.4243,1.4238,1.426,1.4249,1.4238,1.4265,1.4227,1.4222,1.4222,1.4135,1.4113,1.4069,1.4048,1.4037,1.4037,1.4031,1.4031,1.4026,1.3944,1.3934,1.3879,1.3787,1.3765,1.3711,1.3629,1.3607,1.3607,1.3607,1.3607,1.3607,1.3607,1.3607,1.3607,1.3607,1.3607,1.3607,1.3607,1.3607,1.3607,1.3607,1.3607,1.3607,1.3607,1.3607,1.3607,1.3607,1.3607,1.3607,1.3607,1.3607,1.3607,1.3607,1.3607,1.3607,1.3607,1.3607,1.3607,1.3607,1.3607,1.3607,1.3607,1.3607,1.3607,1.3607,1.3607,1.3607,1.3607,1.3607,1.3607,1.3607,1.3607,1.3607,1.3607,1.3607,1.3607,1.3607,1.3607,1.3607,1.3607,1.3607,1.3607,1.3607,1.3607,1.3607,1.3607,1.3607,1.3607,1.8779,1.866,1.866,1.7882,1.6654,1.6462,1.5729,1.4728,1.4401,1.4358,1.4401,1.4347,1.432,1.432,1.432,1.432,1.432,1.432,1.432,1.432,1.432,1.432,1.432,1.432,1.432,1.432,1.432,1.432,1.432,1.432,1.432,1.432,1.432,1.4309,1.432,1.432,1.4292,1.4199,1.4183,1.4216,1.4178,1.4162,1.4156,1.4156,1.4156,1.4118,1.4075,1.4059,1.3999,1.3906,1.3885,1.383,1.3738,1.37,1.3689,1.3607,1.3607,1.3607,1.3607,1.3607,1.3607,1.3607,1.3607,1.3607,1.3607,1.3607,1.3607,1.3607,1.3607,1.3607,1.3607,1.3607,1.3607,1.3607,1.3607,1.3607,1.3607,1.3607,1.3607,1.3607,1.3607,1.3607,1.3607,1.3607,1.3607,1.3607,1.3607,1.3607,1.3607,1.3607,1.3607,1.3607,1.3607,1.3607,1.3607,1.3607,1.3607,1.3607,1.3607,1.3607,1.3607,1.3607,1.3607,1.3607,1.3607,1.3607,1.3607,1.3607,1.3607,1.3607,1.3607,1.3607,1.3607,1.3607,1.3607,1.882,1.882,1.882,1.8116,1.6962,1.6654,1.5948,1.493,1.4517,1.4401,1.4417,1.4358,1.432,1.432,1.432,1.432,1.432,1.432,1.432,1.432,1.432,1.432,1.432,1.432,1.432,1.432,1.432,1.432,1.432,1.432,1.432,1.432,1.432,1.432,1.432,1.432,1.4309,1.4309,1.4309,1.4303,1.4303,1.4303,1.4309,1.4309,1.4309,1.4276,1.42,1.4184,1.4124,1.4026,1.4004,1.395,1.3852,1.3825,1.3851,1.3727,1.37,1.3667,1.3651,1.364,1.3613,1.3607,1.3607,1.3607,1.3607,1.3607,1.3607,1.3607,1.3607,1.3607,1.3607,1.3607,1.3607,1.3607,1.3607,1.3607,1.3607,1.3607,1.3607,1.3607,1.3607,1.3607,1.3607,1.3607,1.3607,1.3607,1.3607,1.3607,1.3607,1.3607,1.3607,1.3607,1.3607,1.3607,1.3607,1.3607,1.3607,1.3607,1.3607,1.3607,1.3607,1.3607,1.3607,1.3607,1.3607,1.3607,1.3607,1.3607,1.3607,1.3607,1.3607,1.3607,1.3607,1.3607,1.3607,1.882,1.882,1.882,1.8342,1.7614,1.6968,1.6266,1.5436,1.4774,1.4423,1.4352,1.4325,1.432,1.432,1.432,1.432,1.432,1.432,1.432,1.432,1.432,1.432,1.432,1.432,1.432,1.432,1.432,1.432,1.432,1.432,1.432,1.432,1.432,1.432,1.432,1.432,1.432,1.432,1.432,1.432,1.432,1.432,1.432,1.432,1.432,1.4314,1.4303,1.4292,1.4249,1.4129,1.4124,1.4069,1.3972,1.395,1.3923,1.3922,1.3809,1.3776,1.376,1.3667,1.3613,1.3607,1.3607,1.3607,1.3607,1.3607,1.3607,1.3607,1.3607,1.3607,1.3607,1.3607,1.3607,1.3607,1.3607,1.3607,1.3607,1.3607,1.3607,1.3607,1.3607,1.3607,1.3607,1.3607,1.3607,1.3607,1.3607,1.3607,1.3607,1.3607,1.3607,1.3607,1.3607,1.3607,1.3607,1.3607,1.3607,1.3607,1.3607,1.3607,1.3607,1.3607,1.3607,1.3607,1.3607,1.3607,1.3607,1.3607,1.3607,1.3607,1.3607,1.3607,1.3607,1.3607,1.3607,1.882,1.882,1.882,1.8407,1.7755,1.7038,1.6367,1.5768,1.4902,1.4434,1.4325,1.432,1.432,1.432,1.432,1.432,1.432,1.432,1.432,1.432,1.432,1.432,1.432,1.432,1.432,1.432,1.432,1.432,1.432,1.432,1.432,1.432,1.433,1.432,1.432,1.433,1.433,1.433,1.4325,1.4325,1.432,1.432,1.432,1.432,1.432,1.432,1.432,1.432,1.4292,1.426,1.4243,1.4173,1.4091,1.4075,1.4037,1.4042,1.3977,1.3896,1.3852,1.3727,1.3613,1.3607,1.3607,1.3607,1.3607,1.3607,1.3607,1.3607,1.3607,1.3607,1.3607,1.3607,1.3607,1.3607,1.3607,1.3607,1.3607,1.3607,1.3607,1.3607,1.3607,1.3607,1.3607,1.3607,1.3607,1.3607,1.3607,1.3607,1.3607,1.3607,1.3607,1.3607,1.3607,1.3607,1.3607,1.3607,1.3607,1.3607,1.3607,1.3607,1.3607,1.3607,1.3607,1.3607,1.3607,1.3607,1.3607,1.3607,1.3607,1.3607,1.3607,1.3607,1.3607,1.3607,1.3607,1.882,1.882,1.882,1.8523,1.8039,1.7312,1.6722,1.6086,1.5293,1.4684,1.4374,1.4341,1.432,1.432,1.432,1.432,1.432,1.432,1.432,1.432,1.432,1.432,1.432,1.432,1.432,1.4325,1.432,1.432,1.432,1.432,1.432,1.433,1.4358,1.4363,1.433,1.4363,1.4374,1.4379,1.4412,1.4396,1.439,1.4379,1.4341,1.4336,1.432,1.432,1.432,1.432,1.432,1.4309,1.4303,1.4271,1.4222,1.4178,1.414,1.4086,1.4086,1.401,1.395,1.3809,1.3651,1.3613,1.3607,1.3607,1.3607,1.3607,1.3607,1.3607,1.3607,1.3607,1.3607,1.3607,1.3607,1.3607,1.3607,1.3607,1.3607,1.3607,1.3607,1.3607,1.3607,1.3607,1.3607,1.3607,1.3607,1.3607,1.3607,1.3607,1.3607,1.3607,1.3607,1.3607,1.3607,1.3607,1.3607,1.3607,1.3607,1.3607,1.3607,1.3607,1.3607,1.3607,1.3607,1.3607,1.3607,1.3607,1.3607,1.3607,1.3607,1.3607,1.3607,1.3607,1.3607,1.3607,1.3607,1.882,1.882,1.882,1.8762,1.8646,1.8052,1.7344,1.6686,1.5929,1.5208,1.4539,1.4385,1.4325,1.4325,1.432,1.432,1.432,1.432,1.433,1.4347,1.4358,1.4336,1.4336,1.4341,1.4358,1.433,1.4347,1.4358,1.4352,1.4379,1.4369,1.4385,1.445,1.4455,1.4352,1.4445,1.4494,1.4515,1.4597,1.4564,1.4521,1.4499,1.4445,1.4374,1.4352,1.4358,1.4325,1.432,1.432,1.432,1.432,1.4303,1.4292,1.4292,1.4276,1.4271,1.4178,1.4085,1.4058,1.3906,1.3749,1.3624,1.3607,1.3607,1.3607,1.3607,1.3607,1.3607,1.3607,1.3607,1.3607,1.3607,1.3607,1.3607,1.3607,1.3607,1.3607,1.3607,1.3607,1.3607,1.3607,1.3607,1.3607,1.3607,1.3607,1.3607,1.3607,1.3607,1.3607,1.3607,1.3607,1.3607,1.3607,1.3607,1.3607,1.3607,1.3607,1.3607,1.3607,1.3607,1.3607,1.3607,1.3607,1.3607,1.3607,1.3607,1.3607,1.3607,1.3607,1.3607,1.3607,1.3607,1.3607,1.3607,1.3607,1.882,1.882,1.882,1.882,1.8704,1.8117,1.7678,1.7274,1.6264,1.5299,1.4644,1.445,1.439,1.4347,1.432,1.432,1.432,1.4325,1.4341,1.4434,1.4434,1.4445,1.4439,1.4439,1.4439,1.4445,1.4445,1.4488,1.4564,1.4532,1.4542,1.4575,1.4694,1.4591,1.4575,1.4608,1.4613,1.4619,1.4651,1.4646,1.4624,1.4608,1.4559,1.4445,1.4439,1.4407,1.4341,1.4336,1.4336,1.4325,1.432,1.432,1.432,1.432,1.432,1.432,1.426,1.4161,1.414,1.3972,1.3809,1.3689,1.3607,1.3607,1.3607,1.3607,1.3607,1.3607,1.3607,1.3607,1.3607,1.3607,1.3607,1.3607,1.3607,1.3607,1.3607,1.3607,1.3607,1.3607,1.3607,1.3607,1.3607,1.3607,1.3607,1.3607,1.3607,1.3607,1.3607,1.3607,1.3607,1.3607,1.3607,1.3607,1.3607,1.3607,1.3607,1.3607,1.3607,1.3607,1.3607,1.3607,1.3607,1.3607,1.3607,1.3607,1.3607,1.3607,1.3607,1.3607,1.3607,1.3607,1.3607,1.3607,1.3607,1.882,1.882,1.882,1.882,1.8704,1.8349,1.7943,1.7336,1.6294,1.5338,1.4748,1.4548,1.4466,1.439,1.4341,1.432,1.432,1.4325,1.439,1.4494,1.4504,1.4526,1.4548,1.4564,1.4559,1.4564,1.457,1.4602,1.4646,1.4724,1.486,1.5059,1.5081,1.5338,1.5287,1.5229,1.4795,1.4812,1.4782,1.4793,1.4817,1.4779,1.4678,1.4597,1.4548,1.451,1.4423,1.4379,1.4363,1.4341,1.4325,1.4325,1.432,1.432,1.432,1.432,1.4314,1.4254,1.414,1.4086,1.3928,1.3776,1.3673,1.3635,1.364,1.3635,1.3613,1.3607,1.3607,1.3607,1.3607,1.3607,1.3607,1.3607,1.3607,1.3607,1.3607,1.3607,1.3607,1.3607,1.3607,1.3607,1.3607,1.3607,1.3607,1.3607,1.3607,1.3607,1.3607,1.3607,1.3607,1.3607,1.3607,1.3607,1.3607,1.3607,1.3607,1.3607,1.3607,1.3607,1.3607,1.3607,1.3607,1.3607,1.3607,1.3607,1.3607,1.3607,1.3607,1.3607,1.3607,1.3607,1.3607,1.3607,1.3607,1.882,1.882,1.882,1.882,1.8762,1.8704,1.8065,1.6948,1.6248,1.5549,1.4935,1.4705,1.455,1.4466,1.4374,1.4341,1.4363,1.4358,1.445,1.4577,1.4694,1.4732,1.4827,1.4849,1.4906,1.4792,1.4803,1.4928,1.4809,1.5144,1.5429,1.5705,1.5843,1.6115,1.608,1.5774,1.5325,1.5341,1.5381,1.5375,1.5393,1.5088,1.5022,1.495,1.4787,1.467,1.4537,1.4488,1.4428,1.4379,1.433,1.4325,1.432,1.432,1.432,1.4375,1.4431,1.4476,1.4459,1.4475,1.437,1.4383,1.3979,1.3839,1.3732,1.3722,1.3689,1.3656,1.3651,1.3624,1.3607,1.3607,1.3607,1.3607,1.3607,1.3607,1.3607,1.3607,1.3607,1.3607,1.3607,1.3607,1.3607,1.3607,1.3713,1.3607,1.3607,1.3607,1.3607,1.3607,1.3607,1.3607,1.3607,1.3607,1.3607,1.3607,1.3607,1.3607,1.3607,1.3607,1.3607,1.3607,1.3607,1.3607,1.3607,1.3607,1.3607,1.3607,1.3607,1.3607,1.3607,1.3607,1.3607,1.3607,1.3607,1.882,1.882,1.882,1.882,1.882,1.882,1.8291,1.7523,1.7253,1.6576,1.5413,1.5345,1.5011,1.4385,1.4423,1.4501,1.4539,1.4542,1.4651,1.4871,1.523,1.5395,1.5481,1.5492,1.5492,1.5492,1.5504,1.5532,1.5716,1.5901,1.619,1.6545,1.6533,1.6807,1.6749,1.6511,1.6377,1.6255,1.6238,1.6162,1.6029,1.5837,1.5647,1.5469,1.5148,1.4961,1.4822,1.4728,1.4612,1.4517,1.4363,1.4325,1.432,1.432,1.4375,1.498,1.5258,1.5573,1.5526,1.5394,1.5297,1.5182,1.4796,1.4273,1.4052,1.3917,1.3862,1.376,1.3727,1.3716,1.3715,1.3746,1.3729,1.3766,1.3819,1.3919,1.3919,1.3919,1.3919,1.3919,1.3919,1.3919,1.3866,1.3813,1.3919,1.3713,1.3607,1.366,1.3607,1.3607,1.3607,1.3607,1.3607,1.3607,1.3607,1.3607,1.3607,1.3607,1.3607,1.3607,1.3607,1.3607,1.3607,1.3607,1.3607,1.3607,1.3607,1.3607,1.3607,1.3607,1.3607,1.3607,1.3607,1.3607,1.3607,1.882,1.882,1.882,1.882,1.882,1.882,1.853,1.8175,1.7936,1.7133,1.6205,1.6082,1.5748,1.5417,1.5361,1.5361,1.5367,1.5469,1.5573,1.5779,1.5958,1.6097,1.6178,1.626,1.626,1.626,1.6266,1.6289,1.6477,1.6663,1.6954,1.7239,1.7245,1.742,1.7594,1.7704,1.7652,1.7413,1.7193,1.7012,1.678,1.6547,1.6377,1.6156,1.5791,1.5601,1.5441,1.5339,1.5305,1.5242,1.5179,1.5122,1.5099,1.5082,1.5097,1.5591,1.5757,1.5979,1.5954,1.5912,1.5979,1.5973,1.5613,1.5286,1.4756,1.4439,1.4144,1.3917,1.3847,1.3873,1.3844,1.3885,1.3905,1.393,1.4135,1.4288,1.4341,1.4341,1.4341,1.4341,1.4341,1.4341,1.4341,1.4235,1.4182,1.4083,1.3924,1.3813,1.3708,1.3607,1.3607,1.3607,1.3607,1.3607,1.3607,1.3607,1.3607,1.3607,1.3607,1.3607,1.3607,1.3607,1.3607,1.3607,1.3607,1.3607,1.3607,1.3607,1.3607,1.3607,1.3607,1.3607,1.3607,1.3607,1.3607,1.882,1.882,1.882,1.882,1.882,1.882,1.8762,1.8762,1.8175,1.7517,1.7015,1.6801,1.6658,1.6326,1.6245,1.6284,1.6239,1.6275,1.6353,1.6713,1.6795,1.6844,1.6911,1.6954,1.6917,1.6942,1.7006,1.7046,1.7064,1.731,1.7594,1.7884,1.7884,1.8059,1.8414,1.8472,1.8414,1.8298,1.7775,1.7368,1.7245,1.7071,1.6954,1.6948,1.6814,1.6719,1.668,1.6619,1.6639,1.6505,1.6339,1.6209,1.6111,1.6144,1.6144,1.6274,1.6441,1.6533,1.6533,1.6507,1.6458,1.636,1.62,1.6102,1.5686,1.5067,1.4713,1.4585,1.4616,1.4559,1.4539,1.46,1.4667,1.4662,1.478,1.485,1.4868,1.4815,1.4815,1.4809,1.4809,1.4862,1.4862,1.4762,1.4499,1.4446,1.4294,1.4077,1.3813,1.366,1.3607,1.3607,1.3607,1.3607,1.3607,1.3607,1.3607,1.3607,1.3607,1.3607,1.3607,1.3607,1.3607,1.3607,1.3607,1.3607,1.3607,1.3607,1.3607,1.3607,1.3607,1.3607,1.3607,1.3607,1.3607,1.882,1.882,1.882,1.882,1.882,1.882,1.882,1.8762,1.8646,1.818,1.7563,1.7409,1.711,1.6762,1.6811,1.6818,1.6773,1.7,1.6862,1.7119,1.735,1.753,1.7581,1.7594,1.7594,1.7594,1.7652,1.7775,1.8085,1.8253,1.8362,1.8543,1.8557,1.8693,1.881,1.8861,1.8803,1.8796,1.8519,1.815,1.8123,1.7768,1.7594,1.7478,1.7349,1.7058,1.6984,1.6859,1.6758,1.6621,1.6511,1.6456,1.6438,1.6759,1.6926,1.7006,1.7164,1.7291,1.7272,1.7265,1.7252,1.7203,1.7037,1.6871,1.6507,1.5906,1.557,1.5444,1.5379,1.5259,1.5254,1.5326,1.538,1.5408,1.5423,1.5415,1.54,1.5394,1.5388,1.5388,1.5388,1.5388,1.5388,1.523,1.492,1.471,1.4452,1.4241,1.3871,1.366,1.3607,1.3607,1.3607,1.3607,1.3607,1.3607,1.3607,1.3607,1.3607,1.3607,1.3607,1.3607,1.3607,1.3607,1.3607,1.3607,1.3607,1.3607,1.3607,1.3607,1.3607,1.3607,1.3607,1.3607,1.3607,1.882,1.882,1.882,1.882,1.882,1.882,1.882,1.882,1.882,1.8599,1.8243,1.8114,1.7895,1.7531,1.762,1.7524,1.7544,1.773,1.7859,1.7936,1.7943,1.8168,1.8233,1.8233,1.8233,1.8233,1.8298,1.8492,1.8837,1.8877,1.8826,1.8932,1.8945,1.8938,1.8945,1.8945,1.8911,1.8877,1.8911,1.8877,1.8861,1.842,1.8233,1.8059,1.7943,1.7717,1.7697,1.7691,1.7672,1.7614,1.7569,1.7452,1.7464,1.7549,1.7686,1.7696,1.7847,1.7962,1.7948,1.797,1.7936,1.777,1.7701,1.7363,1.7369,1.682,1.6323,1.62,1.5814,1.5705,1.5772,1.5826,1.6029,1.6109,1.6256,1.6366,1.6341,1.6242,1.6236,1.6236,1.6236,1.6236,1.6288,1.6242,1.592,1.5394,1.5131,1.4505,1.4135,1.366,1.3607,1.3607,1.3607,1.3607,1.3607,1.3607,1.3607,1.3607,1.3607,1.3607,1.3607,1.3607,1.3607,1.3607,1.3607,1.3607,1.3607,1.3607,1.3607,1.3607,1.3607,1.3607,1.3607,1.3607,1.3607,1.882,1.882,1.882,1.882,1.882,1.882,1.882,1.882,1.882,1.882,1.8749,1.8749,1.882,1.882,1.882,1.882,1.8697,1.8465,1.8646,1.8646,1.8704,1.8646,1.8646,1.8704,1.8704,1.8724,1.8745,1.8819,1.8959,1.9,1.9067,1.9176,1.9203,1.9196,1.9203,1.9183,1.9115,1.9067,1.9054,1.9027,1.8918,1.8847,1.8731,1.8782,1.882,1.882,1.8762,1.8762,1.8762,1.8657,1.846,1.8309,1.8215,1.8155,1.8185,1.8194,1.8093,1.8138,1.8097,1.7996,1.7997,1.7907,1.7936,1.7922,1.7867,1.7639,1.7086,1.6803,1.6471,1.6384,1.6449,1.6496,1.6692,1.6738,1.6976,1.7088,1.7,1.688,1.6926,1.6926,1.6926,1.6873,1.6926,1.6926,1.6663,1.6183,1.5605,1.5026,1.4505,1.3924,1.3607,1.3607,1.3607,1.3607,1.3607,1.3607,1.3607,1.3607,1.3607,1.3607,1.3607,1.3607,1.3607,1.3607,1.3607,1.3607,1.3607,1.3607,1.3607,1.3607,1.3607,1.3607,1.3607,1.3607,1.3607,1.882,1.882,1.882,1.882,1.882,1.882,1.882,1.882,1.882,1.882,1.882,1.882,1.882,1.882,1.882,1.882,1.882,1.882,1.882,1.8762,1.882,1.882,1.8834,1.8847,1.8827,1.8868,1.8943,1.8966,1.9081,1.9142,1.9183,1.923,1.9223,1.9223,1.9217,1.9217,1.923,1.9203,1.9196,1.9183,1.9115,1.9,1.8871,1.8881,1.882,1.882,1.882,1.882,1.882,1.8807,1.8786,1.8738,1.8626,1.8545,1.8504,1.8464,1.8355,1.8294,1.8226,1.8124,1.8063,1.8002,1.8024,1.7936,1.788,1.786,1.7584,1.7584,1.7363,1.7363,1.7407,1.7407,1.7505,1.7263,1.7325,1.7175,1.7032,1.6998,1.6978,1.6978,1.6978,1.6978,1.6978,1.6926,1.6768,1.6236,1.5651,1.5131,1.4657,1.413,1.3607,1.3607,1.3607,1.3607,1.3607,1.3607,1.3607,1.3607,1.3607,1.3607,1.3607,1.3607,1.3607,1.3607,1.3607,1.3607,1.3607,1.3607,1.3607,1.3607,1.3607,1.3607,1.3607,1.3607,1.3607]},{"header":{"parameterUnit":"m.s-1","parameterCategory":1,"la1":31.0,"la2":29.5877,"lo1":-88.7671,"lo2":-86.6584,"dy":0.0162,"dx":0.0185,"nx":115,"ny":88,"refTime":"2023-04-10T00:00:00:Z","depth":0,"parameterNumber":3,"parameterNumberName":"V-component_of_WINDS"},"data":[0.0,0.0,0.0,0.0,0.0,0.0,0.0,0.0,0.0,0.0,0.0,0.0,0.0,0.0,0.0,0.0,0.0,0.0,0.0,0.0,0.0,0.0,0.0,0.0,0.0,0.0,0.0,0.0,0.0,0.0,0.0,0.0,0.0,0.0,0.0,0.0,0.0,0.0,0.0,0.0,0.0,0.0,0.0,0.0,0.0,0.0,0.0,0.0,0.0,0.0,0.0,0.0,0.0,0.0,0.0,0.0,0.0,0.0,0.0,0.0,0.0,0.0,0.0,0.0,0.0,0.0,0.0,0.0,0.0,0.0,0.0,0.0,0.0,0.0,0.0,0.0,0.0,0.0,0.0,0.0,0.0,0.0,0.0,0.0,0.0,0.0,0.0,0.0,0.0,0.0,0.0,0.0,0.0,0.0,0.0,0.0,0.0,0.0,0.0,0.0,0.0,0.0,0.0,0.0,0.0,0.0,0.0,0.0,0.0,0.0,0.0,0.0,0.0,0.0,0.0,0.0,0.0,0.0,0.0,0.0,0.0,0.0,0.0,0.0,0.0,0.0,0.0,0.0,0.0,0.0,0.0,0.0,0.0,0.0,0.0,0.0,0.0,0.0,0.0,0.0,0.0,0.0,0.0,0.0,0.0,0.0,0.0,0.0,0.0,0.0,0.0,0.0,0.0,0.0,0.0,0.0,0.0,0.0,0.0,0.0,0.0,0.0,0.0,0.0,0.0,0.0,0.0,0.0,0.0,0.0,0.0,0.0,0.0,0.0,0.0,0.0,0.0,0.0,0.0,0.0,0.0,0.0,0.0,0.0,0.0,0.0,0.0,0.0,0.0,0.0,0.0,0.0,0.0,0.0,0.0,0.0,0.0,0.0,0.0,0.0,0.0,0.0,0.0,0.0,0.0,0.0,0.0,0.0,0.0,0.0,0.0,0.0,0.0,0.0,0.0,0.0,0.0,0.0,0.0,0.0,0.0,0.0,0.0,0.0,0.0,0.0,0.0,0.0,0.0,0.0,0.0,0.0,0.0,0.0,0.0,0.0,0.0,0.0,0.0,0.0,0.0,0.0,0.0,0.0,0.0,0.0,0.0,0.0,0.0,0.0,0.0,0.0,0.0,0.0,0.0,0.0,0.0,0.0,0.0,0.0,0.0,0.0,0.0,0.0,0.0,0.0,0.0,0.0,0.0,0.0,0.0,0.0,0.0,0.0,0.0,0.0,0.0,0.0,0.0,0.0,0.0,0.0,0.0,0.0,0.0,0.0,0.0,0.0,0.0,0.0,0.0,0.0,0.0,0.0,0.0,0.0,0.0,0.0,0.0,0.0,0.0,0.0,0.0,0.0,0.0,0.0,0.0,0.0,0.0,0.0,0.0,0.0,0.0,0.0,0.0,0.0,0.0,0.0,0.0,0.0,0.0,0.0,0.0,0.0,0.0,0.0,0.0,0.0,0.0,0.0,0.0,0.0,0.0,0.0,0.0,0.0,0.0,0.0,0.0,0.0,0.0,0.0,0.0,0.0,0.0,0.0,0.0,0.0,0.0,0.0,0.0,0.0,0.0,0.0,0.0,0.0,0.0,0.0,0.0,0.0,0.0,0.0,0.0,0.0,0.0,0.0,0.0,0.0,0.0,0.0,0.0,0.0,0.0,0.0,0.0,0.0,0.0,0.0,0.0,0.0,0.0,0.0,0.0,0.0,0.0,0.0,0.0,0.0,0.0,0.0,0.0,0.0,0.0,0.0,0.0,0.0,0.0,0.0,0.0,0.0,0.0,0.0,0.0,0.0,0.0,0.0,0.0,0.0,0.0,0.0,0.0,0.0,0.0,0.0,0.0,0.0,0.0,0.0,0.0,0.0,0.0,0.0,0.0,0.0,0.0,0.0,0.0,0.0,0.0,0.0,0.0,0.0,0.0,0.0,0.0,0.0,0.0,0.0,0.0,0.0,0.0,0.0,0.0,0.0,0.0,0.0,0.0,0.0,0.0,0.0,0.0,0.0,0.0,0.0,0.0,0.0,0.0,0.0,0.0,0.0,0.0,0.0,0.0,0.0,0.0,0.0,0.0,0.0,0.0,0.0,0.0,0.0,0.0,0.0,0.0,0.0,0.0,0.0,0.0,0.0,0.0,0.0,0.0,0.0,0.0,0.0,0.0,0.0,0.0,0.0,0.0,0.0,0.0,0.0,0.0,0.0,0.0,0.0,0.0,0.0,0.0,0.0,0.0,0.0,0.0,0.0,0.0,0.0,0.0,0.0,0.0,0.0,0.0,0.0,0.0,0.0,0.0,0.0,0.0,0.0,0.0,0.0,0.0,0.0,0.0,0.0,0.0,0.0,0.0,0.0,0.0,0.0,0.0,0.0,0.0,0.0,0.0,0.0,0.0,0.0,0.0,0.0,0.0,0.0,0.0,0.0,0.0,0.0,0.0,0.0,0.0,0.0,0.0,0.0,0.0,0.0,0.0,0.0,0.0,0.0,0.0,0.0,0.0,0.0,0.0,0.0,0.0,0.0,0.0,0.0,0.0,0.0,0.0,0.0,0.0,0.0,0.0,0.0,0.0,0.0,0.0,0.0,0.0,0.0,0.0,0.0,0.0,0.0,0.0,0.0,0.0,0.0,0.0,0.0,0.0,0.0,0.0,0.0,0.0,0.0,0.0,0.0,0.0,0.0,0.0,0.0,0.0,0.0,0.0,0.0,0.0,0.0,0.0,0.0,0.0,0.0,0.0,0.0,0.0,0.0,0.0,0.0,0.0,0.0,0.0,0.0,0.0,0.0,0.0,0.0,0.0,0.0,0.0,0.0,0.0,0.0,0.0,0.0,0.0,0.0,0.0,0.0,0.0,0.0,0.0,0.0,0.0,0.0,0.0,0.0,0.0,0.0,0.0,0.0,0.0,0.0,0.0,0.0,0.0,0.0,0.0,0.0,0.0,0.0,0.0,0.0,0.0,0.0,0.0,0.0,0.0,0.0,0.0,0.0,0.0,0.0,0.0,0.0,0.0,0.0,0.0,0.0,0.0,0.0,0.0,0.0,0.0,0.0,0.0,0.0,0.0,0.0,0.0,0.0,0.0,0.0,0.0,0.0,0.0,0.0,0.0,0.0,0.0,0.0,0.0,0.0,0.0,0.0,0.0,0.0,0.0,0.0,0.0,0.0,0.0,0.0,0.0,0.0,0.0,0.0,0.0,0.0,0.0,0.0,0.0,0.0,0.0,0.0,0.0,0.0,0.0,0.0,0.0,0.0,0.0,0.0,0.0,0.0,0.0,0.0,0.0,0.0,0.0,0.0,0.0,0.0,0.0,0.0,0.0,0.0,0.0,0.0,0.0,0.0,0.0,0.0,0.0,0.0,0.0,0.0,0.0,0.0,0.0,0.0,0.0,0.0,0.0,0.0,0.0,0.0,0.0,0.0,0.0,0.0,0.0,0.0,0.0,0.0,0.0,0.0,0.0,0.0,0.0,0.0,0.0,0.0,0.0,0.0,0.0,0.0,0.0,0.0,0.0,0.0,0.0,0.0,0.0,0.0,0.0,0.0,0.0,0.0,0.0,0.0,0.0,0.0,0.0,0.0,0.0,0.0,0.0,0.0,0.0,0.0,0.0,0.0,0.0,0.0,0.0,0.0,0.0,0.0,0.0,0.0,0.0,0.0,0.0,0.0,0.0,0.0,0.0,0.0,0.0,0.0,0.0,0.0,0.0,0.0,0.0,0.0,0.0,0.0,0.0,0.0,0.0,0.0,0.0,0.0,0.0,0.0,0.0,0.0,0.0,0.0,0.0,0.0,0.0,0.0,0.0,0.0,0.0,0.0,0.0,0.0,0.0,0.0,0.0,0.0,0.0,0.0,0.0,0.0,0.0,0.0,0.0,0.0,0.0,0.0,0.0,0.0,0.0,0.0,0.0,0.0,0.0,0.0,0.0,0.0,0.0,0.0,0.0,0.0,0.0,0.0,0.0,0.0,0.0,0.0,0.0,0.0,0.0,0.0,0.0,0.0,0.0,0.0,0.0,0.0,0.0,0.0,0.0,0.0,0.0,0.0,0.0,0.0,0.0,0.0,0.0,0.0,0.0,0.0,0.0,0.0,0.0,0.0,0.0,0.0,0.0,0.0,0.0,0.0,0.0,0.0,0.0,0.0,0.0,0.0,0.0,0.0,0.0,0.0,0.0,0.0,0.0,0.0,0.0,0.0,0.0,0.0,0.0,0.0,0.0,0.0,0.0,0.0,0.0,0.0,0.0,0.0,0.0,0.0,0.0,0.0,0.0,0.0,4.1514,0.0,0.0,0.0,0.0,0.0,0.0,0.0,0.0,0.0,0.0,0.0,0.0,0.0,0.0,0.0,0.0,0.0,0.0,0.0,0.0,0.0,0.0,0.0,0.0,0.0,0.0,0.0,0.0,0.0,0.0,0.0,0.0,0.0,0.0,0.0,0.0,0.0,0.0,0.0,0.0,0.0,0.0,0.0,0.0,0.0,0.0,0.0,0.0,0.0,0.0,0.0,0.0,0.0,0.0,0.0,0.0,0.0,0.0,0.0,0.0,0.0,0.0,0.0,0.0,0.0,0.0,0.0,0.0,0.0,0.0,0.0,0.0,0.0,0.0,0.0,0.0,0.0,0.0,0.0,0.0,0.0,0.0,0.0,0.0,0.0,0.0,0.0,0.0,0.0,0.0,0.0,0.0,0.0,0.0,0.0,0.0,0.0,0.0,0.0,0.0,0.0,0.0,0.0,0.0,0.0,0.0,0.0,0.0,0.0,0.0,4.1823,4.1739,4.1703,4.1758,4.1842,0.0,0.0,0.0,0.0,0.0,0.0,0.0,0.0,0.0,0.0,0.0,0.0,0.0,0.0,0.0,0.0,0.0,0.0,0.0,0.0,0.0,0.0,0.0,0.0,0.0,0.0,0.0,0.0,0.0,0.0,0.0,0.0,0.0,0.0,0.0,0.0,0.0,0.0,0.0,0.0,0.0,0.0,0.0,0.0,0.0,0.0,0.0,0.0,0.0,0.0,0.0,0.0,0.0,0.0,0.0,0.0,0.0,0.0,0.0,0.0,0.0,0.0,0.0,0.0,0.0,0.0,0.0,0.0,0.0,0.0,0.0,0.0,0.0,0.0,0.0,0.0,0.0,0.0,0.0,0.0,0.0,0.0,0.0,0.0,0.0,0.0,0.0,0.0,0.0,0.0,0.0,0.0,0.0,0.0,0.0,0.0,0.0,0.0,0.0,0.0,0.0,0.0,0.0,0.0,0.0,0.0,0.0,0.0,0.0,0.0,0.0,0.0,4.2083,4.2061,4.1976,0.0,0.0,0.0,0.0,0.0,0.0,0.0,0.0,0.0,0.0,0.0,0.0,0.0,0.0,0.0,0.0,0.0,0.0,0.0,0.0,0.0,0.0,0.0,0.0,0.0,0.0,0.0,0.0,0.0,0.0,0.0,0.0,0.0,0.0,0.0,0.0,0.0,0.0,0.0,0.0,0.0,0.0,0.0,0.0,0.0,0.0,0.0,0.0,0.0,0.0,0.0,0.0,0.0,0.0,0.0,0.0,0.0,0.0,0.0,0.0,0.0,0.0,0.0,0.0,0.0,0.0,0.0,0.0,0.0,0.0,0.0,0.0,0.0,0.0,0.0,0.0,0.0,0.0,0.0,0.0,0.0,0.0,0.0,0.0,0.0,0.0,0.0,0.0,0.0,0.0,0.0,0.0,0.0,0.0,0.0,0.0,0.0,0.0,0.0,0.0,0.0,0.0,0.0,0.0,0.0,0.0,0.0,0.0,0.0,0.0,4.2359,4.2277,4.2348,0.0,4.172,0.0,0.0,0.0,0.0,0.0,0.0,0.0,0.0,0.0,0.0,0.0,0.0,0.0,0.0,0.0,0.0,0.0,0.0,0.0,0.0,0.0,0.0,0.0,0.0,0.0,0.0,0.0,0.0,0.0,0.0,0.0,0.0,0.0,0.0,0.0,0.0,0.0,0.0,0.0,0.0,0.0,0.0,0.0,0.0,0.0,0.0,0.0,0.0,0.0,0.0,0.0,0.0,0.0,0.0,0.0,0.0,0.0,0.0,0.0,0.0,0.0,0.0,0.0,0.0,0.0,0.0,0.0,0.0,0.0,0.0,0.0,0.0,0.0,0.0,0.0,0.0,0.0,0.0,0.0,0.0,0.0,0.0,0.0,0.0,0.0,0.0,0.0,0.0,0.0,0.0,0.0,0.0,0.0,0.0,0.0,0.0,0.0,0.0,0.0,0.0,0.0,0.0,0.0,0.0,0.0,0.0,0.0,0.0,0.0,0.0,4.2619,4.2589,4.2727,4.2509,0.0,0.0,0.0,0.0,0.0,0.0,0.0,0.0,0.0,0.0,0.0,0.0,0.0,0.0,0.0,0.0,0.0,0.0,0.0,0.0,0.0,0.0,0.0,0.0,0.0,0.0,0.0,0.0,0.0,0.0,0.0,0.0,0.0,0.0,0.0,0.0,0.0,0.0,0.0,0.0,0.0,0.0,0.0,0.0,0.0,0.0,0.0,0.0,0.0,0.0,0.0,0.0,0.0,0.0,0.0,0.0,0.0,0.0,0.0,0.0,0.0,0.0,0.0,0.0,0.0,0.0,0.0,0.0,0.0,0.0,0.0,0.0,0.0,0.0,0.0,0.0,0.0,0.0,0.0,0.0,0.0,0.0,0.0,0.0,0.0,0.0,0.0,0.0,0.0,0.0,0.0,0.0,0.0,0.0,0.0,0.0,0.0,0.0,0.0,0.0,0.0,0.0,0.0,0.0,0.0,0.0,0.0,0.0,0.0,0.0,4.2937,4.2899,4.2909,4.3067,4.2641,4.1658,0.0,0.0,0.0,0.0,0.0,0.0,0.0,0.0,0.0,0.0,0.0,0.0,0.0,0.0,0.0,0.0,0.0,0.0,0.0,0.0,0.0,0.0,0.0,0.0,0.0,0.0,0.0,0.0,0.0,0.0,0.0,0.0,0.0,0.0,0.0,0.0,0.0,0.0,0.0,0.0,0.0,0.0,0.0,0.0,0.0,0.0,0.0,0.0,0.0,0.0,0.0,0.0,0.0,0.0,0.0,0.0,0.0,0.0,0.0,0.0,0.0,0.0,0.0,0.0,0.0,0.0,0.0,0.0,0.0,0.0,0.0,0.0,0.0,0.0,0.0,0.0,0.0,0.0,0.0,0.0,0.0,0.0,0.0,0.0,0.0,0.0,0.0,0.0,0.0,0.0,0.0,0.0,0.0,0.0,0.0,0.0,0.0,0.0,0.0,0.0,0.0,0.0,0.0,0.0,0.0,0.0,0.0,0.0,4.3196,4.3187,4.3187,4.3187,4.3196,4.2512,0.0,0.0,0.0,0.0,0.0,0.0,0.0,0.0,0.0,0.0,0.0,0.0,0.0,0.0,0.0,0.0,0.0,0.0,0.0,0.0,0.0,0.0,0.0,0.0,0.0,0.0,0.0,0.0,0.0,0.0,0.0,0.0,0.0,0.0,0.0,0.0,0.0,0.0,0.0,0.0,0.0,0.0,0.0,0.0,0.0,0.0,0.0,0.0,0.0,0.0,0.0,0.0,0.0,0.0,0.0,0.0,0.0,0.0,0.0,0.0,0.0,0.0,0.0,0.0,0.0,0.0,0.0,0.0,0.0,0.0,0.0,0.0,0.0,0.0,0.0,0.0,0.0,0.0,0.0,0.0,0.0,0.0,0.0,0.0,0.0,0.0,0.0,0.0,0.0,0.0,0.0,0.0,0.0,0.0,0.0,0.0,0.0,0.0,0.0,0.0,0.0,0.0,0.0,0.0,0.0,0.0,0.0,0.0,0.0,4.335,4.3313,4.3313,4.335,4.3375,4.2641,0.0,0.0,0.0,0.0,0.0,0.0,0.0,0.0,0.0,0.0,0.0,0.0,0.0,0.0,0.0,0.0,0.0,0.0,0.0,0.0,0.0,0.0,0.0,0.0,0.0,0.0,0.0,0.0,0.0,0.0,0.0,0.0,0.0,0.0,0.0,0.0,0.0,0.0,0.0,0.0,0.0,0.0,0.0,0.0,0.0,0.0,0.0,0.0,0.0,0.0,0.0,0.0,0.0,0.0,0.0,0.0,0.0,0.0,0.0,0.0,0.0,0.0,0.0,0.0,0.0,0.0,0.0,0.0,0.0,0.0,0.0,0.0,0.0,0.0,0.0,0.0,0.0,0.0,0.0,0.0,0.0,0.0,0.0,0.0,0.0,0.0,0.0,0.0,0.0,0.0,0.0,0.0,0.0,0.0,0.0,0.0,0.0,0.0,0.0,0.0,0.0,0.0,0.0,0.0,0.0,0.0,0.0,0.0,0.0,4.341,0.0,4.341,4.341,4.348,4.2735,0.0,0.0,0.0,0.0,0.0,0.0,0.0,0.0,0.0,0.0,0.0,0.0,0.0,0.0,0.0,0.0,0.0,0.0,0.0,0.0,0.0,0.0,0.0,0.0,0.0,0.0,0.0,0.0,0.0,0.0,0.0,0.0,0.0,0.0,0.0,0.0,0.0,0.0,0.0,0.0,0.0,0.0,0.0,0.0,0.0,0.0,0.0,0.0,0.0,0.0,0.0,0.0,0.0,0.0,0.0,0.0,0.0,0.0,0.0,0.0,0.0,0.0,0.0,0.0,0.0,0.0,0.0,0.0,0.0,0.0,0.0,0.0,0.0,0.0,0.0,0.0,0.0,0.0,0.0,0.0,0.0,0.0,0.0,0.0,0.0,0.0,0.0,0.0,0.0,0.0,0.0,0.0,0.0,0.0,0.0,0.0,0.0,0.0,0.0,0.0,0.0,0.0,0.0,0.0,0.0,0.0,0.0,0.0,4.3506,4.3506,4.3497,4.3497,4.3506,4.3506,4.2763,0.0,0.0,0.0,0.0,0.0,0.0,0.0,0.0,0.0,0.0,0.0,0.0,0.0,0.0,0.0,0.0,0.0,0.0,0.0,0.0,0.0,0.0,0.0,0.0,0.0,0.0,0.0,0.0,0.0,0.0,0.0,0.0,0.0,0.0,0.0,0.0,0.0,0.0,0.0,0.0,0.0,0.0,0.0,0.0,0.0,0.0,0.0,0.0,0.0,0.0,0.0,0.0,0.0,0.0,0.0,0.0,0.0,0.0,0.0,0.0,0.0,0.0,0.0,0.0,0.0,0.0,0.0,0.0,0.0,0.0,0.0,0.0,0.0,0.0,0.0,0.0,0.0,0.0,0.0,0.0,0.0,0.0,0.0,0.0,0.0,0.0,0.0,0.0,0.0,0.0,0.0,0.0,0.0,0.0,0.0,0.0,0.0,0.0,0.0,0.0,0.0,0.0,0.0,0.0,0.0,0.0,0.0,0.0,0.0,4.3506,4.3506,4.3506,4.3506,4.3506,4.2763,0.0,0.0,0.0,0.0,0.0,0.0,0.0,0.0,0.0,0.0,0.0,0.0,0.0,0.0,0.0,0.0,0.0,0.0,0.0,0.0,0.0,0.0,0.0,0.0,0.0,0.0,0.0,0.0,0.0,0.0,0.0,0.0,0.0,0.0,0.0,0.0,0.0,0.0,0.0,0.0,0.0,0.0,0.0,0.0,0.0,0.0,0.0,0.0,0.0,0.0,0.0,0.0,0.0,0.0,0.0,0.0,0.0,0.0,0.0,0.0,0.0,0.0,0.0,0.0,0.0,0.0,0.0,0.0,0.0,0.0,0.0,0.0,0.0,0.0,0.0,0.0,0.0,0.0,0.0,0.0,0.0,0.0,0.0,0.0,0.0,0.0,0.0,0.0,0.0,0.0,0.0,0.0,0.0,0.0,0.0,0.0,0.0,0.0,0.0,0.0,0.0,0.0,0.0,0.0,0.0,0.0,0.0,0.0,0.0,4.6677,4.6929,4.7078,4.7078,4.6788,4.516,4.2156,0.0,0.0,0.0,0.0,0.0,0.0,0.0,0.0,0.0,0.0,0.0,0.0,0.0,0.0,0.0,0.0,0.0,0.0,0.0,0.0,0.0,0.0,0.0,0.0,0.0,0.0,0.0,0.0,0.0,0.0,0.0,0.0,0.0,0.0,0.0,0.0,0.0,0.0,0.0,0.0,0.0,0.0,0.0,0.0,0.0,0.0,0.0,0.0,0.0,0.0,0.0,0.0,0.0,0.0,0.0,0.0,0.0,0.0,0.0,0.0,0.0,0.0,0.0,0.0,0.0,0.0,0.0,0.0,0.0,0.0,0.0,0.0,0.0,0.0,0.0,0.0,0.0,0.0,0.0,0.0,0.0,0.0,0.0,0.0,0.0,0.0,0.0,0.0,0.0,0.0,0.0,0.0,0.0,0.0,0.0,0.0,0.0,0.0,0.0,0.0,0.0,0.0,0.0,0.0,0.0,0.0,0.0,0.0,5.2419,5.3487,5.3897,5.3429,5.2399,4.9401,0.0,0.0,0.0,0.0,0.0,0.0,0.0,0.0,0.0,0.0,0.0,0.0,0.0,0.0,0.0,0.0,0.0,0.0,0.0,0.0,0.0,0.0,0.0,0.0,0.0,0.0,0.0,0.0,0.0,0.0,0.0,0.0,0.0,0.0,0.0,0.0,0.0,0.0,0.0,0.0,0.0,0.0,0.0,0.0,0.0,0.0,0.0,0.0,0.0,0.0,0.0,0.0,0.0,0.0,0.0,0.0,0.0,0.0,0.0,0.0,0.0,0.0,0.0,0.0,0.0,0.0,0.0,0.0,0.0,0.0,0.0,0.0,0.0,0.0,0.0,0.0,0.0,0.0,0.0,0.0,0.0,0.0,0.0,0.0,0.0,0.0,0.0,0.0,0.0,0.0,0.0,0.0,0.0,0.0,0.0,0.0,0.0,0.0,0.0,0.0,0.0,0.0,0.0,0.0,0.0,0.0,0.0,0.0,0.0,5.8949,6.3174,6.3147,5.8469,5.4188,5.1022,0.0,0.0,0.0,0.0,0.0,0.0,0.0,0.0,0.0,0.0,0.0,0.0,0.0,0.0,0.0,0.0,0.0,0.0,0.0,0.0,0.0,0.0,0.0,0.0,0.0,0.0,0.0,0.0,0.0,0.0,0.0,0.0,0.0,0.0,0.0,0.0,0.0,0.0,0.0,0.0,0.0,0.0,0.0,0.0,0.0,0.0,0.0,0.0,0.0,0.0,0.0,0.0,0.0,0.0,0.0,0.0,0.0,0.0,0.0,0.0,0.0,0.0,0.0,0.0,0.0,0.0,0.0,0.0,0.0,0.0,0.0,0.0,0.0,0.0,0.0,0.0,0.0,0.0,0.0,0.0,0.0,0.0,0.0,0.0,0.0,0.0,0.0,0.0,0.0,0.0,0.0,0.0,0.0,0.0,0.0,0.0,0.0,0.0,0.0,0.0,0.0,0.0,0.0,0.0,0.0,0.0,0.0,0.0,5.7966,6.1556,6.894,7.1046,6.7366,5.9956,5.4681,0.0,0.0,0.0,0.0,0.0,0.0,0.0,0.0,0.0,0.0,0.0,0.0,0.0,0.0,0.0,0.0,0.0,0.0,0.0,0.0,0.0,0.0,0.0,0.0,0.0,0.0,0.0,0.0,0.0,0.0,0.0,0.0,0.0,0.0,0.0,0.0,0.0,0.0,0.0,0.0,0.0,0.0,0.0,0.0,0.0,0.0,0.0,0.0,0.0,0.0,0.0,0.0,0.0,0.0,0.0,0.0,0.0,0.0,0.0,0.0,0.0,0.0,0.0,0.0,0.0,0.0,0.0,0.0,0.0,0.0,0.0,0.0,0.0,0.0,0.0,0.0,0.0,0.0,0.0,0.0,0.0,0.0,0.0,0.0,0.0,0.0,0.0,0.0,0.0,0.0,0.0,0.0,0.0,0.0,0.0,0.0,0.0,0.0,0.0,0.0,0.0,0.0,0.0,0.0,0.0,0.0,0.0,0.0,6.1186,6.2667,7.203,7.7038,7.6835,6.7048,5.9203,0.0,0.0,0.0,0.0,0.0,0.0,0.0,0.0,0.0,0.0,0.0,0.0,0.0,0.0,0.0,0.0,0.0,0.0,0.0,0.0,0.0,0.0,0.0,0.0,0.0,0.0,0.0,0.0,0.0,0.0,0.0,0.0,0.0,0.0,0.0,0.0,0.0,0.0,0.0,0.0,0.0,0.0,0.0,0.0,0.0,0.0,0.0,0.0,0.0,0.0,0.0,0.0,0.0,0.0,0.0,0.0,0.0,0.0,0.0,0.0,0.0,0.0,0.0,0.0,0.0,0.0,0.0,0.0,0.0,0.0,0.0,0.0,0.0,0.0,0.0,0.0,0.0,0.0,0.0,0.0,0.0,0.0,0.0,0.0,0.0,0.0,0.0,0.0,0.0,0.0,0.0,0.0,0.0,0.0,0.0,0.0,0.0,0.0,0.0,0.0,0.0,0.0,0.0,0.0,0.0,0.0,0.0,0.0,6.3335,6.8995,7.4276,7.7311,7.797,6.7425,6.08,0.0,0.0,0.0,0.0,0.0,0.0,0.0,0.0,0.0,0.0,0.0,0.0,0.0,0.0,0.0,0.0,0.0,0.0,0.0,0.0,0.0,0.0,0.0,0.0,0.0,0.0,0.0,0.0,0.0,0.0,0.0,0.0,0.0,0.0,0.0,0.0,0.0,0.0,0.0,0.0,0.0,0.0,0.0,0.0,0.0,0.0,0.0,0.0,5.3031,0.0,0.0,0.0,0.0,0.0,0.0,0.0,0.0,0.0,0.0,0.0,0.0,0.0,0.0,0.0,0.0,0.0,0.0,0.0,0.0,0.0,0.0,0.0,0.0,0.0,0.0,0.0,0.0,0.0,0.0,0.0,0.0,0.0,0.0,0.0,0.0,0.0,0.0,0.0,0.0,0.0,0.0,0.0,0.0,0.0,0.0,0.0,0.0,0.0,0.0,0.0,0.0,0.0,0.0,0.0,0.0,0.0,0.0,0.0,6.4236,7.1546,7.5585,7.8009,7.851,7.0999,6.5173,0.0,0.0,0.0,0.0,0.0,0.0,0.0,0.0,0.0,0.0,0.0,0.0,0.0,0.0,0.0,0.0,0.0,0.0,0.0,0.0,0.0,0.0,0.0,0.0,0.0,0.0,0.0,0.0,0.0,0.0,0.0,0.0,0.0,0.0,0.0,0.0,0.0,0.0,0.0,0.0,0.0,0.0,0.0,0.0,0.0,0.0,0.0,0.0,0.0,0.0,0.0,0.0,0.0,0.0,0.0,0.0,0.0,0.0,0.0,0.0,0.0,0.0,0.0,0.0,0.0,0.0,0.0,0.0,0.0,0.0,0.0,0.0,0.0,0.0,0.0,0.0,0.0,0.0,0.0,0.0,0.0,0.0,0.0,0.0,0.0,0.0,0.0,0.0,0.0,0.0,0.0,0.0,0.0,0.0,0.0,0.0,0.0,0.0,0.0,0.0,0.0,0.0,0.0,0.0,0.0,0.0,0.0,5.9331,6.5021,7.345,7.6851,7.8867,7.9604,7.5039,6.96,6.3439,0.0,0.0,0.0,0.0,0.0,0.0,0.0,0.0,0.0,0.0,0.0,0.0,0.0,0.0,0.0,0.0,0.0,0.0,0.0,0.0,0.0,0.0,0.0,0.0,0.0,0.0,0.0,0.0,0.0,0.0,0.0,0.0,0.0,0.0,0.0,0.0,0.0,0.0,5.1005,5.1226,0.0,0.0,0.0,0.0,0.0,0.0,0.0,0.0,5.4399,0.0,0.0,0.0,0.0,0.0,0.0,0.0,0.0,0.0,0.0,0.0,0.0,0.0,0.0,0.0,0.0,0.0,0.0,0.0,0.0,0.0,0.0,0.0,0.0,0.0,0.0,0.0,0.0,0.0,0.0,0.0,0.0,0.0,0.0,0.0,0.0,0.0,0.0,0.0,0.0,0.0,0.0,0.0,0.0,0.0,0.0,0.0,0.0,0.0,0.0,0.0,0.0,0.0,0.0,0.0,0.0,6.1925,6.1935,6.7536,7.9056,7.9322,7.9724,8.0383,7.5448,6.9987,6.4304,0.0,0.0,0.0,0.0,0.0,0.0,0.0,0.0,0.0,0.0,0.0,0.0,0.0,0.0,0.0,0.0,0.0,0.0,0.0,0.0,0.0,0.0,0.0,0.0,0.0,0.0,0.0,0.0,0.0,0.0,0.0,0.0,0.0,0.0,0.0,0.0,0.0,0.0,0.0,5.5298,5.5005,0.0,0.0,0.0,0.0,0.0,0.0,0.0,0.0,5.8687,0.0,0.0,0.0,0.0,0.0,0.0,0.0,0.0,0.0,0.0,0.0,0.0,0.0,0.0,0.0,0.0,0.0,0.0,0.0,0.0,0.0,0.0,0.0,0.0,0.0,0.0,0.0,0.0,0.0,0.0,0.0,0.0,0.0,0.0,0.0,0.0,0.0,0.0,0.0,0.0,0.0,0.0,0.0,0.0,0.0,0.0,0.0,0.0,0.0,0.0,0.0,0.0,0.0,0.0,0.0,6.3122,6.5786,7.1622,8.1046,8.062,8.0581,8.1322,7.5825,6.9968,0.0,0.0,0.0,0.0,0.0,0.0,0.0,0.0,0.0,0.0,0.0,0.0,0.0,0.0,0.0,0.0,0.0,0.0,0.0,0.0,0.0,0.0,0.0,0.0,0.0,0.0,0.0,0.0,0.0,0.0,0.0,0.0,0.0,0.0,0.0,0.0,0.0,0.0,0.0,0.0,5.8174,5.9513,6.4869,0.0,0.0,0.0,0.0,0.0,0.0,6.0754,5.9724,0.0,0.0,0.0,0.0,0.0,0.0,0.0,0.0,0.0,0.0,0.0,0.0,0.0,0.0,0.0,0.0,0.0,0.0,0.0,0.0,0.0,0.0,0.0,0.0,0.0,0.0,0.0,0.0,0.0,0.0,0.0,0.0,0.0,0.0,0.0,0.0,0.0,0.0,0.0,0.0,0.0,0.0,0.0,0.0,0.0,0.0,0.0,0.0,0.0,0.0,0.0,0.0,0.0,0.0,0.0,6.3546,6.8915,7.5082,8.1711,8.1442,8.1403,8.1948,7.5156,6.892,0.0,0.0,0.0,0.0,0.0,0.0,0.0,0.0,0.0,0.0,0.0,0.0,0.0,0.0,0.0,0.0,0.0,0.0,0.0,0.0,0.0,0.0,0.0,0.0,0.0,0.0,0.0,0.0,0.0,0.0,0.0,0.0,0.0,0.0,0.0,0.0,0.0,0.0,0.0,0.0,0.0,6.3385,6.8218,6.5124,0.0,0.0,0.0,0.0,6.235,6.2624,0.0,0.0,0.0,0.0,0.0,0.0,0.0,0.0,0.0,0.0,0.0,0.0,0.0,0.0,0.0,0.0,0.0,0.0,0.0,0.0,0.0,0.0,0.0,0.0,0.0,0.0,0.0,0.0,0.0,0.0,0.0,0.0,0.0,0.0,0.0,0.0,0.0,0.0,0.0,0.0,0.0,0.0,0.0,0.0,0.0,0.0,0.0,0.0,0.0,0.0,0.0,0.0,0.0,0.0,0.0,0.0,6.355,6.9561,7.5723,8.1711,8.199,8.2029,8.1948,7.2164,6.5746,0.0,0.0,0.0,0.0,0.0,0.0,0.0,0.0,0.0,0.0,0.0,0.0,0.0,0.0,0.0,0.0,0.0,0.0,0.0,0.0,0.0,0.0,0.0,0.0,0.0,0.0,0.0,0.0,0.0,0.0,0.0,0.0,0.0,0.0,0.0,0.0,0.0,0.0,0.0,0.0,0.0,6.3844,7.0026,6.5983,6.2153,0.0,0.0,6.9405,6.9164,7.2595,0.0,0.0,0.0,0.0,0.0,0.0,0.0,0.0,0.0,0.0,0.0,0.0,0.0,0.0,0.0,0.0,0.0,0.0,0.0,0.0,0.0,0.0,0.0,0.0,0.0,0.0,0.0,0.0,0.0,0.0,0.0,0.0,0.0,0.0,0.0,0.0,0.0,0.0,0.0,0.0,0.0,0.0,0.0,0.0,0.0,0.0,0.0,0.0,0.0,0.0,0.0,0.0,0.0,0.0,0.0,6.1066,6.392,7.3164,7.9374,8.1987,8.2107,8.2107,8.2068,7.0786,6.4359,0.0,0.0,0.0,0.0,0.0,0.0,0.0,0.0,0.0,0.0,0.0,0.0,0.0,0.0,0.0,0.0,0.0,0.0,0.0,0.0,0.0,0.0,0.0,0.0,0.0,0.0,0.0,0.0,0.0,0.0,0.0,0.0,0.0,0.0,0.0,0.0,0.0,0.0,0.0,0.0,0.0,0.0,7.0193,6.9017,0.0,0.0,0.0,6.9926,6.5988,0.0,0.0,0.0,0.0,0.0,0.0,0.0,0.0,0.0,0.0,0.0,0.0,0.0,0.0,0.0,0.0,0.0,0.0,0.0,0.0,0.0,0.0,0.0,0.0,0.0,0.0,0.0,0.0,0.0,0.0,0.0,0.0,0.0,0.0,0.0,0.0,0.0,0.0,0.0,0.0,0.0,0.0,0.0,0.0,0.0,0.0,0.0,0.0,0.0,0.0,0.0,0.0,0.0,0.0,0.0,0.0,0.0,6.4043,7.5875,8.2107,8.2107,8.2107,8.2107,8.1909,7.1859,0.0,0.0,0.0,0.0,0.0,0.0,0.0,0.0,0.0,0.0,0.0,0.0,0.0,0.0,0.0,0.0,0.0,0.0,0.0,0.0,0.0,0.0,0.0,0.0,0.0,0.0,0.0,4.6149,0.0,0.0,0.0,0.0,0.0,0.0,0.0,0.0,0.0,0.0,0.0,0.0,0.0,0.0,7.0202,7.0126,7.1289,7.2303,0.0,0.0,7.0572,6.6618,7.3676,7.5647,0.0,0.0,0.0,0.0,0.0,0.0,0.0,0.0,0.0,0.0,0.0,0.0,0.0,0.0,0.0,0.0,0.0,0.0,0.0,0.0,0.0,0.0,0.0,0.0,0.0,0.0,0.0,0.0,0.0,0.0,0.0,0.0,0.0,0.0,0.0,0.0,0.0,0.0,0.0,0.0,0.0,0.0,0.0,0.0,0.0,0.0,0.0,0.0,0.0,0.0,0.0,0.0,0.0,0.0,6.3868,6.4202,7.5875,8.2107,8.2107,8.2107,8.2107,8.1987,7.6515,7.0382,0.0,0.0,0.0,0.0,0.0,0.0,0.0,0.0,0.0,0.0,0.0,0.0,0.0,0.0,0.0,0.0,0.0,0.0,0.0,0.0,0.0,0.0,0.0,0.0,0.0,0.0,0.0,0.0,0.0,0.0,0.0,0.0,0.0,0.0,0.0,0.0,0.0,0.0,0.0,0.0,0.0,7.0179,7.0179,7.1401,7.3797,0.0,7.4915,7.341,7.7279,8.2347,8.1992,7.028,0.0,0.0,0.0,0.0,0.0,0.0,0.0,0.0,0.0,0.0,0.0,0.0,0.0,0.0,0.0,0.0,0.0,0.0,0.0,0.0,0.0,0.0,0.0,0.0,0.0,0.0,0.0,0.0,0.0,0.0,0.0,0.0,0.0,0.0,0.0,0.0,0.0,0.0,0.0,0.0,0.0,0.0,0.0,0.0,0.0,0.0,0.0,0.0,0.0,0.0,0.0,0.0,0.0,6.4652,6.4722,7.6154,8.2107,8.2107,8.2107,8.2107,8.2107,7.6501,7.0424,0.0,0.0,0.0,0.0,0.0,0.0,0.0,0.0,0.0,0.0,0.0,0.0,0.0,0.0,0.0,0.0,0.0,0.0,0.0,0.0,0.0,0.0,0.0,0.0,0.0,0.0,0.0,0.0,5.9255,6.0962,5.7376,0.0,0.0,0.0,0.0,0.0,0.0,0.0,0.0,0.0,0.0,7.1671,7.4851,7.6077,0.0,0.0,7.7743,7.5935,7.4276,7.8253,7.757,6.5991,6.3114,0.0,0.0,0.0,0.0,0.0,0.0,0.0,0.0,0.0,0.0,0.0,0.0,0.0,0.0,0.0,0.0,0.0,0.0,0.0,0.0,0.0,0.0,0.0,0.0,0.0,0.0,0.0,0.0,0.0,0.0,0.0,0.0,0.0,0.0,0.0,0.0,0.0,0.0,0.0,0.0,0.0,0.0,0.0,0.0,0.0,0.0,0.0,0.0,0.0,0.0,0.0,0.0,6.5087,6.5173,7.6316,8.2107,8.2107,8.2107,8.2107,8.1987,7.7936,7.285,0.0,0.0,0.0,0.0,0.0,0.0,0.0,0.0,0.0,0.0,0.0,0.0,0.0,0.0,0.0,0.0,0.0,0.0,0.0,0.0,0.0,0.0,0.0,0.0,0.0,0.0,0.0,0.0,6.0966,6.2348,5.8891,0.0,0.0,0.0,0.0,0.0,0.0,0.0,0.0,0.0,0.0,7.3902,7.6185,7.7039,7.7453,7.7499,7.6039,7.4015,7.1497,7.3912,7.3198,6.5011,0.0,0.0,0.0,0.0,0.0,0.0,0.0,0.0,0.0,0.0,0.0,0.0,0.0,0.0,0.0,0.0,0.0,0.0,0.0,0.0,0.0,0.0,0.0,0.0,0.0,0.0,0.0,5.6259,0.0,0.0,5.5071,0.0,0.0,0.0,0.0,0.0,0.0,0.0,0.0,0.0,0.0,0.0,0.0,0.0,0.0,0.0,0.0,0.0,0.0,0.0,0.0,0.0,0.0,6.5095,6.5358,7.632,8.2065,8.2068,8.2107,8.2104,8.2065,8.1909,7.8959,7.2772,0.0,0.0,0.0,0.0,0.0,0.0,0.0,0.0,0.0,0.0,0.0,0.0,0.0,0.0,0.0,0.0,0.0,0.0,0.0,0.0,0.0,0.0,0.0,0.0,0.0,0.0,4.9379,5.4591,5.8986,0.0,0.0,0.0,0.0,0.0,0.0,0.0,0.0,0.0,6.0234,7.0722,7.6849,7.2647,7.2555,7.3177,7.3407,6.876,6.664,7.099,7.1084,7.0462,0.0,0.0,0.0,0.0,0.0,0.0,0.0,0.0,0.0,0.0,0.0,0.0,0.0,0.0,0.0,0.0,0.0,0.0,0.0,0.0,0.0,0.0,0.0,0.0,0.0,0.0,0.0,5.6353,5.6352,0.0,0.0,0.0,0.0,0.0,0.0,0.0,0.0,0.0,0.0,0.0,5.7688,5.7647,0.0,0.0,0.0,0.0,0.0,0.0,0.0,0.0,0.0,0.0,0.0,0.0,6.4516,6.5542,7.5128,8.061,8.1215,8.1756,8.2029,8.2029,8.1526,7.7775,7.0471,0.0,0.0,0.0,0.0,0.0,0.0,0.0,0.0,0.0,0.0,0.0,0.0,0.0,0.0,0.0,0.0,0.0,0.0,0.0,0.0,0.0,0.0,0.0,0.0,0.0,5.6942,0.0,0.0,0.0,0.0,0.0,0.0,0.0,0.0,0.0,0.0,5.808,6.1184,6.5923,6.7596,6.9085,7.1043,7.1479,7.2839,0.0,0.0,0.0,0.0,0.0,0.0,0.0,0.0,0.0,0.0,0.0,0.0,0.0,0.0,5.9628,5.4494,5.5402,5.672,5.5944,0.0,0.0,0.0,0.0,0.0,0.0,0.0,0.0,0.0,0.0,0.0,0.0,0.0,0.0,5.827,5.854,5.8004,0.0,0.0,0.0,0.0,0.0,0.0,0.0,0.0,5.9461,6.0103,6.0321,6.0274,5.9975,5.9421,5.9037,5.7543,0.0,0.0,0.0,0.0,0.0,0.0,0.0,0.0,6.4252,6.5507,7.4553,7.9831,8.0748,8.1562,8.199,8.199,8.1176,7.8174,7.2728,6.6109,6.128,0.0,0.0,0.0,0.0,0.0,0.0,0.0,0.0,0.0,0.0,0.0,0.0,0.0,0.0,0.0,0.0,0.0,0.0,0.0,0.0,0.0,0.0,0.0,5.9951,0.0,0.0,0.0,0.0,0.0,0.0,0.0,0.0,0.0,5.9375,6.1231,6.4292,6.9225,6.9197,6.8752,6.8761,0.0,0.0,0.0,0.0,0.0,0.0,0.0,6.197,6.0081,6.0669,6.194,6.3766,6.4895,6.569,6.6192,0.0,0.0,6.0582,6.093,6.1977,6.1205,6.0628,5.9876,5.8482,5.8159,5.7836,0.0,0.0,0.0,0.0,6.0169,0.0,0.0,0.0,6.134,6.1784,0.0,6.0981,0.0,0.0,0.0,0.0,6.0446,6.1171,0.0,0.0,6.3187,6.3634,6.2849,6.2782,6.2794,6.2765,6.1869,6.1016,6.0042,5.754,0.0,0.0,0.0,0.0,0.0,0.0,6.4368,6.5637,7.4565,7.9773,8.0633,8.1524,8.1987,8.191,8.1096,8.0162,7.9065,7.326,6.9368,6.7545,6.0308,0.0,0.0,0.0,0.0,0.0,0.0,0.0,0.0,0.0,0.0,0.0,0.0,0.0,0.0,0.0,0.0,0.0,0.0,0.0,0.0,6.1442,0.0,0.0,0.0,0.0,0.0,0.0,0.0,0.0,0.0,5.9104,6.0058,6.4727,6.8782,6.96,0.0,0.0,0.0,0.0,6.848,5.9527,5.7119,5.6725,5.7142,6.0372,6.455,6.9475,0.0,0.0,7.5523,7.1358,6.8294,6.8075,7.0979,7.1513,6.7136,6.5765,6.4868,6.3991,6.3126,6.1678,6.0825,6.0994,6.0491,6.4265,0.0,0.0,0.0,0.0,6.1196,6.1292,6.1487,6.1454,6.1965,6.2747,6.2299,0.0,0.0,0.0,0.0,0.0,0.0,6.1935,6.2545,6.3038,6.3405,6.3717,6.3728,6.3699,6.3664,6.3394,6.3121,6.277,6.1965,5.9481,5.5448,0.0,0.0,0.0,0.0,6.5215,6.8155,7.4843,7.8846,7.9773,8.1169,8.1631,8.1009,8.0167,7.901,7.7498,7.3965,7.0413,6.6814,6.3404,0.0,0.0,0.0,0.0,0.0,0.0,0.0,0.0,0.0,0.0,0.0,0.0,0.0,0.0,0.0,0.0,0.0,0.0,0.0,5.9455,6.445,6.4431,0.0,0.0,0.0,0.0,0.0,0.0,0.0,0.0,0.0,6.6027,6.4303,6.3615,0.0,0.0,6.1357,5.8504,6.144,6.4219,6.5094,6.3827,0.0,6.8692,6.7186,6.6269,6.8396,7.2302,7.5247,7.5581,7.688,7.7926,7.7861,7.918,7.9727,7.8461,7.577,7.3799,7.3401,7.2094,7.041,6.8897,6.8023,6.7283,6.7637,6.5322,6.4127,6.3838,6.414,6.414,6.4312,6.4546,6.4531,6.4992,6.5806,6.5465,6.5342,6.5351,6.4755,0.0,0.0,0.0,6.461,6.5448,6.5448,6.5657,6.6121,6.6127,6.6095,6.6016,6.6022,6.598,6.5906,6.5211,6.3336,6.0274,0.0,5.7617,5.854,6.3045,6.6598,6.92,7.4969,7.8453,7.9373,8.1005,8.1662,8.1118,8.0275,7.9004,7.7268,7.5338,7.2454,6.8558,6.6366,6.3143,0.0,0.0,0.0,0.0,0.0,0.0,0.0,0.0,0.0,0.0,0.0,5.2099,5.1975,0.0,0.0,0.0,6.1091,6.2239,6.1913,6.5185,0.0,0.0,0.0,0.0,0.0,0.0,0.0,5.7503,6.2592,6.6762,6.8073,6.603,6.5417,6.8243,6.5848,6.3097,6.1031,0.0,6.7186,6.8289,6.7334,6.7817,7.1468,7.1485,7.2008,7.5386,7.7608,7.9345,8.0279,8.2284,8.3619,8.3665,8.3993,8.4423,8.4813,8.2644,8.0449,7.9486,7.8014,7.6442,7.4939,7.4184,7.3393,7.0452,6.9592,6.8004,6.7628,6.8112,6.8112,6.8511,6.9195,6.9123,6.9653,7.0427,6.9671,6.9351,6.9311,6.7794,0.0,6.811,6.811,6.8488,6.9286,6.9284,6.9265,6.9191,6.9156,6.9162,6.9083,6.9088,6.9052,6.8907,6.7569,6.6753,6.6453,6.4192,6.2134,6.0782,6.5223,6.819,6.9465,7.4947,7.8327,7.9488,8.1077,8.1892,8.1892,8.1038,7.9829,7.8163,7.7142,7.5105,7.1848,6.9271,6.6676,6.3974,0.0,0.0,0.0,0.0,0.0,0.0,0.0,0.0,0.0,0.0,0.0,0.0,0.0,0.0,6.078,6.5765,0.0,6.7405,6.5372,0.0,0.0,0.0,6.0607,6.3685,6.4257,6.4623,6.5161,0.0,0.0,6.8011,6.9523,7.2134,7.6454,7.6426,7.4259,6.9479,7.2737,7.4475,6.9958,6.9281,6.9404,7.0902,7.4669,7.9745,8.5393,8.7061,8.637,8.6899,8.6665,8.6291,8.6124,8.6186,8.649,8.7376,8.6717,8.5574,8.3188,8.1509,8.0245,7.9345,7.8939,7.8297,7.3454,7.3215,7.2781,7.1201,6.9014,6.9014,6.907,6.9194,6.9185,7.0038,7.1437,7.1183,7.1115,7.1144,7.0141,6.9416,6.8982,6.8982,6.9099,6.9286,6.9259,6.923,6.9195,6.9158,6.9122,6.9084,6.9111,6.9103,6.9095,6.9312,6.875,6.7549,6.7452,6.6303,6.4202,6.5901,6.8585,7.2068,7.4705,7.7787,8.1159,8.1698,8.1892,8.1892,8.1033,8.0105,7.9018,7.7486,7.5692,7.3481,7.1561,6.9057,6.5827,6.2178,0.0,0.0,0.0,0.0,0.0,0.0,0.0,0.0,0.0,5.3434,5.2359,0.0,5.4745,0.0,6.9928,7.5759,7.3609,7.4573,0.0,0.0,6.5319,6.4687,6.4916,6.8219,6.9574,6.7256,7.0495,7.3319,7.4137,7.5175,7.7457,8.151,7.6567,7.1987,7.0872,7.3846,7.5896,7.4925,7.6442,7.8406,7.9037,8.1417,8.4192,8.7147,8.7487,8.7619,8.8429,8.8382,8.8251,8.8258,8.8751,8.9222,8.9469,8.9864,8.9979,8.9019,8.6097,8.3314,8.3027,8.2454,8.1852,7.5445,7.5051,7.4608,7.3306,7.1565,7.1552,7.1536,7.1521,7.1507,7.2046,7.2941,7.2922,7.3117,7.3441,7.266,7.2014,7.1586,7.1586,7.1577,7.156,7.1114,7.0927,7.0873,7.0851,7.0821,7.0817,7.117,7.136,7.1399,7.1806,7.1551,7.0658,7.1101,7.0464,6.8747,6.769,6.8559,7.1281,7.4477,7.7964,8.1742,8.1892,8.1177,7.967,7.9165,7.7789,7.5461,7.4063,7.2516,7.0786,6.9379,6.7456,6.4803,6.1918,5.9526,0.0,0.0,0.0,0.0,0.0,0.0,0.0,0.0,0.0,0.0,0.0,5.818,6.2107,7.1683,7.63,7.3001,7.4604,7.4285,7.0416,7.0209,7.0761,7.1861,7.4346,7.5581,7.4503,7.6841,7.8834,7.973,8.0885,8.2471,8.4908,8.1755,7.8655,7.7391,7.8624,7.9662,7.9778,8.1578,8.348,8.4698,8.5671,8.7037,8.8919,8.9429,8.9808,9.0975,9.1199,9.1199,9.1238,9.1624,9.1948,9.1978,9.2341,9.2681,9.2273,9.0538,8.8572,8.7627,8.7089,8.6649,7.6967,7.6221,7.5388,7.5068,7.505,7.5062,7.482,7.44,7.4413,7.4476,7.459,7.4664,7.5087,7.5554,7.4881,7.4505,7.4388,7.4386,7.4407,7.4337,7.3591,7.3207,7.3142,7.3134,7.3111,7.3113,7.3851,7.42,7.42,7.4317,7.4244,7.4062,7.4178,7.3745,7.2762,6.9873,6.8849,6.9738,7.4502,7.8404,8.1328,8.1104,7.9441,7.6526,7.6299,7.4512,7.0686,6.9694,6.8551,6.7034,6.6065,6.5069,6.4015,6.1552,5.9979,0.0,5.8029,0.0,0.0,0.0,0.0,0.0,0.0,0.0,0.0,6.2635,6.3837,6.7442,7.2974,7.4931,7.163,7.2777,7.4217,7.5357,7.6003,7.7544,8.0323,8.0725,8.131,8.2941,8.3212,8.3592,8.4405,8.5991,8.6912,8.6996,8.7693,8.7151,8.541,8.4552,8.4441,8.4589,8.5236,8.6426,8.7859,8.8407,8.9325,9.1477,9.1962,9.2521,9.3722,9.3978,9.4048,9.404,9.404,9.4249,9.4353,9.4348,9.4466,9.4427,9.418,9.3469,9.1994,9.143,9.1477,7.9032,7.8871,7.862,7.8519,7.8525,7.8519,7.6986,7.4494,7.4489,7.4828,7.5507,7.6223,7.6211,7.5705,7.5516,7.509,7.4427,7.4398,7.4421,7.4412,7.412,7.3966,7.399,7.3958,7.3976,7.3967,7.4123,7.42,7.42,7.4904,7.4584,7.3281,7.3939,7.3508,7.2088,0.0,0.0,0.0,7.5981,7.8155,7.8727,7.6795,7.5119,7.385,7.379,0.0,7.063,7.033,6.9743,6.8749,6.7865,0.0,0.0,0.0,0.0,0.0,0.0,0.0,0.0,0.0,0.0,0.0,6.7503,6.626,6.508,6.5979,6.8685,7.342,7.7984,8.1226,8.2508,8.4082,8.4378,8.2704,8.2411,8.2482,8.2572,8.3015,8.3747,8.4714,8.5449,8.6177,8.7035,8.8079,8.8705,8.8737,8.8976,8.9208,8.924,8.8498,8.8182,8.8252,8.878,8.9708,9.0805,9.1501,9.2187,9.3527,9.3857,9.4025,9.4401,9.4492,9.4401,9.4346,9.4843,9.5286,9.5296,9.5852,9.6268,9.6353,9.6349,9.5856,9.3948,9.3499,9.346,8.0631,8.0198,7.9712,7.9538,0.0,7.9553,7.8603,7.704,7.6975,7.7189,7.7565,7.7629,7.7389,7.696,7.6546,7.6087,7.5697,7.5658,7.5672,7.5619,7.5121,7.4876,7.4852,7.4835,7.4865,7.4861,7.5677,7.6065,7.6143,7.6963,7.6942,7.6128,7.6552,7.6568,7.6171,7.6949,7.6579,7.494,7.701,7.8731,7.9861,7.8723,7.7251,7.5658,7.5557,0.0,0.0,0.0,0.0,0.0,0.0,0.0,0.0,7.0314,0.0,7.2163,7.1162,7.1207,7.2754,7.2556,7.3398,7.5856,7.6086,7.4463,7.0716,7.3108,7.6226,7.9571,8.307,8.5583,8.6865,8.8462,8.8407,8.6068,8.5867,8.5687,8.5107,8.5532,8.63,8.7074,8.7615,8.8079,8.8505,8.9665,9.0362,9.0478,9.1174,9.1761,9.2025,9.0826,9.0052,9.0903,9.1409,9.2049,9.2823,9.3354,9.4019,9.4736,9.4962,9.5155,9.5581,9.562,9.5613,9.5613,9.5962,9.6233,9.6285,9.6627,9.6891,9.6891,9.6898,9.6669,9.5579,9.5416,9.5475,8.2233,8.1526,8.0728,8.044,8.0505,8.0502,8.0399,8.0222,7.9714,0.0,0.0,7.8792,7.8516,7.848,7.7765,7.7462,7.7459,7.7438,7.7403,7.7315,7.6614,7.6249,7.6147,7.6186,7.6186,7.6225,7.758,7.8241,7.828,7.8945,7.9294,7.9294,7.945,8.0028,8.1077,8.2398,8.1458,7.8326,7.8423,7.957,8.1605,8.123,7.9955,7.7701,7.763,7.6615,7.446,7.3722,7.3332,7.3293,7.1965,7.1762,7.2997,7.2448,7.2668,7.3918,7.4032,7.5248,7.7898,7.7505,7.8923,8.3257,8.3568,8.1648,7.7155,8.0375,8.3213,8.4728,8.7215,8.8652,8.8574,8.9754,8.9764,8.7655,8.7846,8.7855,8.7343,8.7726,8.8421,8.9395,8.9627,8.9788,9.0175,9.1329,9.2148,9.2317,9.3175,9.4329,9.4135,9.2556,9.1712,9.2855,9.3315,9.38,9.4349,9.4788,9.5164,9.5697,9.5852,9.6064,9.6648,9.6827,9.6849,9.6729,9.6891,9.6873,9.6914,9.6905,9.6877,9.6877,9.6827,9.6822,9.6829,9.6884,9.6869,8.434,8.4218,8.4044,8.3978,8.3981,8.3984,8.3555,8.2704,8.0575,7.9609,7.957,7.9424,7.9334,7.9334,7.9184,7.9133,7.914,7.9081,7.9077,7.9022,7.8833,7.8768,7.875,7.875,7.875,7.8789,7.8983,7.91,7.9139,7.9255,7.9294,7.9411,8.0028,8.1193,8.2631,8.2985,8.3184,8.3266,8.1355,8.0524,8.0827,7.8709,7.707,7.6024,7.6082,7.5477,7.4361,7.4377,7.4231,7.4231,7.3943,7.5156,7.8101,7.8228,7.9505,8.2318,8.2624,8.2848,8.3305,8.3223,8.3767,8.5156,8.535,8.4384,8.2338,8.3961,8.5583,8.6632,8.8929,9.0128,8.9502,9.0142,9.0251,8.9255,8.9023,8.8964,8.892,8.9062,8.9743,9.1135,9.1329,9.1955,9.2999,9.3587,9.3801,9.3921,9.4269,9.4593,9.5064,9.4522,9.4007,9.4318,9.4834,9.524,9.5433,9.6036,9.6367,9.669,9.6666,9.6679,9.6901,9.6939,9.6926,9.6898,9.6884,9.687,9.6841,9.6805,9.6805,9.6805,9.679,9.6822,9.6822,9.6812,9.6827,8.5627,8.4839,8.4707,8.4679,8.4679,8.4679,8.4481,8.4017,8.286,8.1814,8.0956,8.0431,8.0231,8.0156,7.9742,7.9538,7.9507,7.951,7.947,7.9392,7.9372,7.9338,7.9294,7.9294,7.9294,7.9333,7.9795,8.0028,8.0067,8.0455,8.0732,8.0766,8.1543,8.2592,8.3757,8.4262,8.469,8.5078,8.3523,8.2686,8.2686,8.1593,8.0987,8.106,8.1077,8.112,8.1197,8.1213,8.1217,8.1221,8.1205,8.2119,8.4069,8.4241,8.5112,8.702,8.7176,8.7176,8.7137,8.7176,8.7331,8.772,8.7759,8.7448,8.6632,8.6904,8.7448,8.8302,8.99,9.0639,9.0245,9.0879,9.1175,9.0846,9.107,9.1286,9.1372,9.1719,9.2226,9.2922,9.3112,9.3481,9.4216,9.4722,9.5007,9.5046,9.5321,9.5825,9.6287,9.6062,9.5777,9.582,9.6112,9.6333,9.6378,9.6695,9.696,9.6973,9.6953,9.6932,9.6912,9.6891,9.6877,9.6841,9.6834,9.682,9.6822,9.6822,9.6822,9.6822,9.6822,9.6822,9.6822,9.6822,9.6822,8.7138,8.5924,8.5675,8.5455,8.5264,8.526,8.5143,8.4991,8.4991,8.4134,8.2731,8.1987,8.1672,8.1597,8.0836,8.0396,8.0371,8.0422,8.0341,8.0256,8.0438,8.0522,8.0464,8.0455,8.046,8.0533,8.1154,8.146,8.1538,8.2126,8.2475,8.2553,8.3097,8.3835,8.469,8.535,8.5894,8.6205,8.5622,8.5195,8.5,8.5,8.5389,8.6205,8.6243,8.671,8.7492,8.7569,8.7569,8.7569,8.7569,8.7875,8.8536,8.8574,8.8846,8.9429,8.9507,8.9507,8.9507,8.9662,8.9856,9.0089,9.0284,9.0439,9.0595,9.0128,8.9818,9.0167,9.0905,9.1493,9.1749,9.216,9.2494,9.2619,9.2981,9.321,9.3412,9.3927,9.4364,9.4487,9.4593,9.4691,9.5014,9.5544,9.5893,9.6,9.6469,9.6845,9.6966,9.6979,9.6926,9.6863,9.6926,9.698,9.7031,9.7069,9.7069,9.6993,9.6959,9.6898,9.6858,9.6829,9.6822,9.679,9.6783,9.679,9.6822,9.6822,9.6822,9.6822,9.6822,9.6822,9.6822,9.6822,9.6822,8.9445,8.9247,8.8391,8.7676,8.7011,8.6972,8.6582,8.5962,8.5884,8.5338,8.4481,8.4364,8.4286,8.4205,8.3286,8.2865,8.2859,8.2862,8.2781,8.2771,8.3572,8.3917,8.3752,8.383,8.3947,8.383,8.3869,8.383,8.383,8.4024,8.4141,8.4185,8.4257,8.4728,8.5505,8.57,8.6477,8.7992,8.7992,8.7564,8.6792,8.6753,8.7181,8.8031,8.8031,8.8458,8.9118,8.9274,8.9274,8.9274,8.9235,8.9274,8.9429,8.939,8.9429,8.9584,8.9584,8.9507,8.9623,9.025,9.1061,9.1838,9.2537,9.3242,9.3941,9.4019,9.3397,9.242,9.2653,9.3397,9.4207,9.4144,9.409,9.4216,9.4189,9.4246,9.4408,9.4434,9.4738,9.5519,9.5531,9.5768,9.6349,9.6553,9.6655,9.662,9.6764,9.6926,9.6919,9.6919,9.6898,9.6856,9.6966,9.7069,9.7069,9.6986,9.6959,9.6912,9.6894,9.6858,9.679,9.6822,9.6822,9.6822,9.6822,9.6822,9.6822,9.6822,9.6822,9.6822,9.6822,9.686,9.6822,9.6899,9.6899,9.0663,8.9724,8.9376,8.9006,8.8694,8.8694,8.8204,8.7525,8.7486,8.6994,8.6231,8.6172,8.563,8.4676,8.4249,8.4054,8.4011,8.4004,8.3921,8.3917,8.4219,8.4413,8.4413,8.4413,8.4413,8.4413,8.4413,8.4413,8.4413,8.4413,8.4651,8.5117,8.5195,8.5855,8.7098,8.7254,8.7836,8.8963,8.9002,8.8846,8.8536,8.8458,8.8652,8.8963,8.9002,8.9157,8.9468,8.9507,8.9507,8.9546,8.9978,9.0517,9.1022,9.1527,9.2032,9.2503,9.2581,9.2581,9.2581,9.2931,9.3242,9.3625,9.398,9.4329,9.464,9.4679,9.4524,9.4441,9.4246,9.4329,9.4668,9.4601,9.4709,9.5141,9.5164,9.5285,9.5848,9.5859,9.6025,9.6296,9.6349,9.6465,9.6814,9.687,9.6863,9.6884,9.6898,9.6877,9.6884,9.6891,9.6905,9.6926,9.6999,9.7012,9.6999,9.6986,9.6939,9.6905,9.687,9.6841,9.679,9.6822,9.6822,9.6822,9.6822,9.6822,9.6822,9.6822,9.6822,9.6899,9.7363,9.7557,9.7557,9.7557,9.7557,9.1862,9.0729,9.0284,8.9925,8.9692,8.9692,8.9359,8.8881,8.8846,8.8476,8.7914,8.7884,8.7109,8.5768,8.519,8.4922,8.485,8.4842,8.4801,8.4806,8.4995,8.5112,8.5117,8.5117,8.5117,8.5117,8.5156,8.5156,8.5156,8.5389,8.5777,8.636,8.6632,8.737,8.8497,8.8613,8.9041,8.9779,8.9856,8.9973,9.0167,9.0206,9.0089,8.99,8.9856,8.9973,9.0206,9.0206,9.0323,9.0595,9.1182,9.1915,9.277,9.343,9.4057,9.4601,9.4679,9.4679,9.4718,9.4912,9.5029,9.5029,9.5223,9.5367,9.5356,9.5351,9.5611,9.6021,9.5678,9.5367,9.5367,9.5305,9.5536,9.6046,9.6017,9.6247,9.6803,9.6877,9.6824,9.6856,9.6807,9.6884,9.687,9.6856,9.6856,9.6849,9.682,9.6798,9.6849,9.6863,9.6884,9.6939,9.6946,9.6946,9.6926,9.6939,9.6946,9.6912,9.6877,9.6834,9.679,9.6822,9.6822,9.6822,9.6822,9.6822,9.6822,9.6822,9.6976,9.7209,9.7634,9.8214,9.8369,9.8292,9.8098,9.3313,9.2968,9.1576,9.05,8.9727,8.9765,8.9692,8.9653,8.9657,8.9618,8.9471,8.9502,8.9035,8.8062,8.6545,8.5788,8.5741,8.5733,8.5782,8.5855,8.6559,8.6909,8.687,8.687,8.687,8.687,8.6909,8.687,8.6909,8.7642,8.8147,8.8186,8.8769,8.9274,8.9468,8.9507,8.9895,9.0755,9.0911,9.1177,9.1877,9.1993,9.1605,9.0949,9.0755,9.1177,9.1877,9.1988,9.2343,9.3164,9.3203,9.3625,9.4446,9.464,9.4718,9.4796,9.4757,9.4757,9.4912,9.5451,9.5834,9.595,9.6494,9.6976,9.6763,9.6757,9.6777,9.6915,9.676,9.6765,9.6887,9.6661,9.6734,9.6888,9.6863,9.6855,9.6947,9.6966,9.6993,9.6966,9.6912,9.6863,9.6805,9.679,9.6836,9.6836,9.6822,9.679,9.6798,9.6798,9.6805,9.6805,9.682,9.6841,9.6959,9.6939,9.6898,9.687,9.6834,9.679,9.679,9.6822,9.6822,9.6822,9.6822,9.6822,9.6822,9.6976,9.7247,9.7557,9.7943,9.84,9.9143,9.8562,9.8369,9.4234,9.3231,9.271,9.1954,9.1221,9.1218,9.0942,9.046,9.0464,9.0171,8.9761,8.9657,8.9448,8.9137,8.8468,8.7885,8.7442,8.7395,8.7642,8.8108,8.8458,8.8613,8.8574,8.8618,8.8618,8.8613,8.8613,8.8613,8.8613,8.8924,8.9079,8.9079,8.9351,8.9779,9.0323,9.0905,9.1566,9.242,9.3008,9.3475,9.3669,9.378,9.3591,9.328,9.2736,9.2887,9.3747,9.378,9.3935,9.4213,9.4252,9.4601,9.5412,9.5994,9.6311,9.6311,9.6305,9.6305,9.6344,9.6583,9.6716,9.6676,9.6947,9.7112,9.7057,9.7044,9.7031,9.7012,9.7006,9.7038,9.7057,9.7031,9.7012,9.7019,9.6959,9.6898,9.6919,9.6898,9.687,9.6863,9.6834,9.6812,9.6836,9.6822,9.6822,9.6822,9.6822,9.6822,9.6822,9.6822,9.6822,9.6822,9.6822,9.6798,9.6849,9.6849,9.682,9.682,9.6798,9.679,9.6822,9.6822,9.6822,9.6822,9.6822,9.6822,9.6822,9.686,9.7209,9.7827,9.8253,9.8833,9.9994,9.922,9.8988,9.4828,9.371,9.3637,9.3201,9.2487,9.2488,9.2032,9.134,9.1306,9.0976,9.0528,9.0427,9.0295,9.0018,8.9949,8.9644,8.909,8.8823,8.8963,8.9468,8.9507,8.9507,8.9507,8.9507,8.9507,8.9507,8.9507,8.9507,8.9546,8.9779,8.9934,8.99,9.0439,9.1061,9.1688,9.2498,9.3275,9.3863,9.4407,9.4679,9.4679,9.4679,9.4834,9.4946,9.4518,9.4324,9.4718,9.4679,9.4873,9.5029,9.5062,9.5451,9.6266,9.6888,9.7199,9.7199,9.7143,9.7171,9.7165,9.7153,9.7124,9.7082,9.7069,9.7044,9.6979,9.6973,9.6959,9.6946,9.6939,9.6939,9.6939,9.6939,9.6946,9.6953,9.6905,9.6856,9.6856,9.6858,9.6829,9.6829,9.6829,9.6822,9.6822,9.6822,9.6822,9.6822,9.6822,9.6822,9.6822,9.6822,9.6822,9.6822,9.6822,9.6822,9.6844,9.6844,9.6836,9.679,9.679,9.6783,9.6822,9.6822,9.6822,9.6822,9.6822,9.6822,9.6822,9.6822,9.7247,9.7943,9.8292,9.8717,9.9375,9.9723,9.9259,9.5121,9.446,9.4402,9.3968,9.3312,9.3297,9.2865,9.2182,9.211,9.2004,9.1814,9.1959,9.146,9.0949,9.0833,9.0755,9.0605,8.9978,8.9701,8.9779,8.974,8.9701,8.974,8.9818,8.9818,8.9779,8.9623,8.9662,8.9895,9.0595,9.0949,9.1221,9.2503,9.3125,9.3353,9.4096,9.464,9.4757,9.4873,9.4873,9.4718,9.4912,9.5262,9.5839,9.5839,9.5528,9.4873,9.4873,9.5262,9.58,9.5917,9.6305,9.696,9.7149,9.7193,9.7176,9.7136,9.7106,9.7094,9.705,9.7025,9.7006,9.7006,9.6973,9.6912,9.6891,9.687,9.6827,9.6805,9.6836,9.6844,9.6805,9.6827,9.687,9.6834,9.6798,9.679,9.6783,9.6822,9.6822,9.6822,9.6822,9.6822,9.6822,9.6822,9.6822,9.6822,9.6822,9.6822,9.6822,9.6822,9.6822,9.6822,9.6822,9.6822,9.6822,9.6822,9.6822,9.6822,9.6822,9.6822,9.6822,9.6822,9.6822,9.6822,9.6822,9.6822,9.686,9.7247,9.7827,9.8137,9.8562,9.9104,9.9375,9.8833,9.6336,9.5158,9.518,9.4731,9.4034,9.4076,9.3657,9.2982,9.2982,9.2653,9.2187,9.211,9.1915,9.176,9.1682,9.1682,9.1682,9.141,9.1294,9.1294,9.1255,9.1255,9.1255,9.1294,9.1294,9.1294,9.1294,9.1605,9.211,9.2426,9.2853,9.3513,9.398,9.4291,9.4368,9.5101,9.5528,9.5606,9.6111,9.6427,9.6422,9.6422,9.6538,9.6771,9.681,9.6655,9.6427,9.6422,9.6538,9.6771,9.6771,9.691,9.7097,9.7094,9.7037,9.7069,9.705,9.7038,9.7038,9.7019,9.6979,9.6939,9.6926,9.6891,9.6834,9.6858,9.6812,9.6822,9.6822,9.6822,9.6822,9.6822,9.6836,9.6812,9.6798,9.6822,9.6822,9.6822,9.6822,9.6822,9.6822,9.6822,9.6822,9.6822,9.6822,9.6822,9.6822,9.6822,9.6822,9.6822,9.6822,9.6822,9.6822,9.6822,9.6822,9.6822,9.6822,9.6822,9.6822,9.6822,9.6822,9.6822,9.6822,9.6822,9.6822,9.6822,9.6822,9.6938,9.7286,9.7634,9.7982,9.8524,9.9096,9.8864,9.8253,9.7253,9.6352,9.6111,9.5533,9.4813,9.486,9.4445,9.3771,9.3797,9.3475,9.3087,9.307,9.2887,9.2692,9.2887,9.2848,9.2653,9.2887,9.3081,9.2887,9.2304,9.2265,9.2576,9.2964,9.3042,9.3081,9.3081,9.3353,9.3863,9.3897,9.4174,9.4601,9.499,9.514,9.5223,9.5956,9.6372,9.6433,9.6848,9.7153,9.7136,9.7136,9.713,9.713,9.713,9.713,9.7136,9.713,9.7142,9.7153,9.7147,9.7112,9.7069,9.7031,9.7006,9.6999,9.6979,9.6966,9.6966,9.6939,9.6905,9.6863,9.6856,9.6834,9.679,9.6822,9.6822,9.6822,9.6822,9.6822,9.6822,9.6822,9.6822,9.6822,9.6822,9.6822,9.6822,9.6822,9.6822,9.6822,9.6822,9.6822,9.6822,9.6822,9.6822,9.6822,9.6822,9.6822,9.6822,9.6822,9.6822,9.6822,9.6822,9.6822,9.6822,9.6822,9.6822,9.6822,9.6822,9.6822,9.6822,9.6822,9.6822,9.6822,9.6822,9.6822,9.6822,9.6822,9.7015,9.7441,9.7711,9.7789,9.8013,9.8091,9.7673,9.7916,9.7873,9.7086,9.6413,9.5832,9.5743,9.5241,9.4557,9.4547,9.45,9.4401,9.4369,9.413,9.3741,9.4135,9.4057,9.3702,9.4135,9.4407,9.4057,9.3236,9.2848,9.3469,9.4091,9.4368,9.4446,9.4485,9.4635,9.474,9.474,9.479,9.5084,9.5656,9.5978,9.6083,9.6799,9.7031,9.6989,9.7061,9.7069,9.7025,9.7019,9.7019,9.7019,9.7025,9.7025,9.7031,9.7019,9.7038,9.7082,9.7044,9.7012,9.6999,9.6999,9.6979,9.6973,9.6926,9.6898,9.687,9.6841,9.6844,9.6836,9.6836,9.6822,9.6822,9.6822,9.6822,9.6822,9.6822,9.6822,9.6822,9.6822,9.6822,9.6822,9.6822,9.6822,9.6822,9.6822,9.6822,9.6822,9.6822,9.6822,9.6822,9.6822,9.6822,9.6822,9.6822,9.6822,9.6822,9.6822,9.6822,9.6822,9.6822,9.6822,9.6822,9.6822,9.6822,9.6822,9.6822,9.6822,9.6822,9.6822,9.6822,9.6822,9.6822,9.6822,9.6822,9.6822,9.6822,9.7015,9.7054,9.686,9.6938,9.7247,9.7325,9.923,9.8687,9.7903,9.7527,9.7354,9.6831,9.6092,9.5344,9.5371,9.515,9.4649,9.4517,9.4552,9.4402,9.4596,9.4562,9.4479,9.464,9.4679,9.464,9.4291,9.4096,9.4329,9.4562,9.4757,9.4757,9.4868,9.5007,9.5466,9.5505,9.5792,9.6403,9.6487,9.6675,9.6791,9.6953,9.7012,9.7038,9.7031,9.7025,9.7006,9.6999,9.7006,9.7006,9.6999,9.6999,9.6999,9.6953,9.6959,9.7019,9.6959,9.6926,9.6919,9.6884,9.6856,9.6856,9.6834,9.6812,9.6812,9.6836,9.6822,9.6822,9.6822,9.6822,9.6822,9.6822,9.6822,9.6822,9.6822,9.6822,9.6822,9.6822,9.6822,9.6822,9.6822,9.6822,9.6822,9.6822,9.6822,9.6822,9.6822,9.6822,9.6822,9.6822,9.6822,9.6822,9.6822,9.6822,9.6822,9.6822,9.6822,9.6822,9.6822,9.6822,9.6822,9.6822,9.6822,9.6822,9.6822,9.6822,9.6822,9.6822,9.6822,9.6822,9.6822,9.6822,9.6822,9.6822,9.6822,9.6822,9.6822,9.6822,9.6822,9.6976,9.7015,9.9929,9.9488,9.8725,9.8468,9.8517,9.8089,9.7429,9.6747,9.6693,9.6282,9.5661,9.5538,9.5419,9.5144,9.5517,9.5489,9.5223,9.5562,9.5767,9.5761,9.5734,9.5545,9.5367,9.5489,9.575,9.5722,9.5683,9.592,9.6261,9.6287,9.6579,9.6863,9.7006,9.7006,9.6935,9.7006,9.6986,9.6966,9.6959,9.6953,9.6919,9.6919,9.6912,9.6919,9.6919,9.6919,9.6912,9.687,9.6884,9.6926,9.6891,9.6849,9.6841,9.6851,9.6822,9.6822,9.6822,9.6822,9.6822,9.6822,9.6822,9.6822,9.6822,9.6822,9.6822,9.6822,9.6822,9.6822,9.6822,9.6822,9.6822,9.6822,9.6822,9.6822,9.6822,9.6822,9.6822,9.6822,9.6822,9.6822,9.6822,9.6822,9.6822,9.6822,9.6822,9.6822,9.6822,9.6822,9.6822,9.6822,9.6822,9.6822,9.6822,9.6822,9.6822,9.6822,9.6822,9.6822,9.6822,9.6822,9.6822,9.6822,9.6822,9.6822,9.6822,9.6822,9.6822,9.6822,9.6822,9.6822,9.6822,9.6822,9.6822,9.6822,9.6822,10.0278,10.0285,9.9535,9.9282,9.9342,9.9259,9.8756,9.8307,9.8211,9.775,9.7112,9.7089,9.6579,9.592,9.6493,9.6628,9.5974,9.6598,9.6932,9.692,9.6852,9.6536,9.6105,9.6577,9.6825,9.6828,9.7055,9.694,9.6857,9.6883,9.6909,9.6966,9.6966,9.6979,9.6959,9.6973,9.6946,9.6891,9.6884,9.6863,9.682,9.6851,9.6812,9.6812,9.6812,9.6812,9.6805,9.679,9.682,9.6877,9.6858,9.679,9.679,9.6822,9.6822,9.6822,9.6822,9.6822,9.6822,9.6822,9.6822,9.6822,9.6822,9.6822,9.6822,9.6822,9.6822,9.6822,9.6822,9.6822,9.6822,9.6822,9.6822,9.6822,9.6822,9.6822,9.6822,9.6822,9.6822,9.6822,9.6822,9.6822,9.6822,9.6822,9.6822,9.6822,9.6822,9.6822,9.6822,9.6822,9.6822,9.6822,9.6822,9.6822,9.6822,9.6822,9.6822,9.6822,9.6822,9.6822,9.6822,9.6822,9.6822,9.6822,9.6822,9.6822,9.6822,9.6822,9.6822,9.6822,9.6822,9.6822,9.6822,9.6822,9.6822,10.1116,10.1142,10.0384,10.0132,10.0107,9.9568,9.9212,9.9065,9.908,9.8622,9.8053,9.7926,9.7495,9.6767,9.7019,9.6876,9.6837,9.705,9.705,9.705,9.7038,9.6954,9.6818,9.7089,9.7044,9.7025,9.7025,9.6986,9.6932,9.6912,9.6891,9.6849,9.6856,9.6834,9.6841,9.6856,9.6827,9.6805,9.6812,9.6805,9.679,9.6822,9.6822,9.6822,9.6822,9.6822,9.6822,9.6822,9.679,9.6798,9.6798,9.6822,9.6822,9.6822,9.6822,9.6822,9.6822,9.6822,9.6822,9.6822,9.6822,9.6822,9.6822,9.6822,9.6822,9.6822,9.6822,9.6822,9.6822,9.6822,9.6822,9.6822,9.6822,9.6822,9.6822,9.6822,9.6822,9.6822,9.6822,9.6822,9.6822,9.6822,9.6822,9.6822,9.6822,9.6822,9.6822,9.6822,9.6822,9.6822,9.6822,9.6822,9.6822,9.6822,9.6822,9.6822,9.6822,9.6822,9.6822,9.6822,9.6822,9.6822,9.6822,9.6822,9.6822,9.6822,9.6822,9.6822,9.6822,9.6822,9.6822,9.6822,9.6822,9.6822,9.6822,10.1934,10.1924,10.1214,10.0955,10.0946,10.0674,10.0264,9.9955,9.9916,9.9436,9.8808,9.8699,9.845,9.8106,9.8102,9.8154,9.8013,9.7729,9.7626,9.7619,9.76,9.758,9.7682,9.7817,9.7764,9.714,9.6953,9.6912,9.6863,9.688,9.6827,9.679,9.6822,9.679,9.6822,9.686,9.6829,9.6783,9.6822,9.6822,9.6822,9.6822,9.6822,9.6822,9.6822,9.6822,9.6822,9.6822,9.6822,9.6822,9.6822,9.6822,9.6822,9.6822,9.6822,9.6822,9.6822,9.6822,9.6822,9.6822,9.6822,9.6822,9.6822,9.6822,9.6822,9.6822,9.6822,9.6822,9.6822,9.6822,9.6822,9.6822,9.6822,9.6822,9.6822,9.6822,9.6822,9.6822,9.6822,9.6822,9.6822,9.6822,9.6822,9.6822,9.6822,9.6822,9.6822,9.6822,9.6822,9.6822,9.6822,9.6822,9.6822,9.6822,9.6822,9.6822,9.6822,9.6822,9.6822,9.6822,9.6822,9.6822,9.6822,9.6822,9.6822,9.6822,9.6822,9.6822,9.6822,9.6822,9.6822,9.6822,9.6822,9.6822,9.6822,10.2712,10.253,10.1988,10.1722,10.165,10.1724,10.1378,10.0845,10.0814,10.0303,9.9607,9.9483,9.939,9.9274,9.9249,9.9355,9.9176,9.8785,9.8418,9.8412,9.837,9.8356,9.8496,9.8692,9.8568,9.7335,9.7458,9.7415,9.7347,9.717,9.7525,9.7286,9.7247,9.7479,9.7286,9.7209,9.7286,9.7209,9.7131,9.6976,9.6822,9.6822,9.6822,9.6822,9.6822,9.6822,9.6822,9.6822,9.6822,9.6822,9.6822,9.6822,9.6822,9.6822,9.6822,9.6822,9.6822,9.6822,9.6822,9.6822,9.6822,9.6822,9.6822,9.6822,9.6822,9.6822,9.6822,9.6822,9.6822,9.6822,9.6822,9.6822,9.6822,9.6822,9.6822,9.6822,9.6822,9.6822,9.6822,9.6822,9.6822,9.6822,9.6822,9.6822,9.6822,9.6822,9.6822,9.6822,9.6822,9.6822,9.6822,9.6822,9.6822,9.6822,9.6822,9.6822,9.6822,9.6822,9.6822,9.6822,9.6822,9.6822,9.6822,9.6822,9.6822,9.6822,9.6822,9.6822,9.6822,9.6822,9.6822,9.6822,9.6822,9.6822,9.6822,10.3251,10.2607,10.253,10.2208,10.1671,10.1705,10.171,10.1696,10.1618,10.1154,10.0458,10.0388,9.9994,9.9568,9.9336,9.9351,9.9521,9.9319,9.9156,9.9156,9.9134,9.9134,9.9204,9.946,9.9228,9.8995,9.8894,9.8887,9.8756,9.8903,9.8601,9.8787,9.8748,9.871,9.8678,9.8826,9.8361,9.7943,9.7866,9.7595,9.7209,9.7054,9.7054,9.7054,9.7092,9.7015,9.686,9.6822,9.6822,9.6822,9.6822,9.6822,9.6822,9.6822,9.6822,9.6822,9.6822,9.6822,9.6822,9.6822,9.6822,9.6822,9.6822,9.6822,9.6822,9.6822,9.6822,9.6822,9.6822,9.6822,9.6822,9.6822,9.6822,9.6822,9.6822,9.6822,9.6822,9.6822,9.6822,9.6822,9.6822,9.6822,9.6822,9.6822,9.6822,9.6822,9.6822,9.6822,9.6822,9.6822,9.6822,9.6822,9.6822,9.6822,9.6822,9.6822,9.6822,9.6822,9.6822,9.6822,9.6822,9.6822,9.6822,9.6822,9.6822,9.6822,9.6822,9.6822,9.6822,9.6822,9.6822,9.6822,9.6822,9.6822,9.6822,10.4289,10.3876,10.3512,10.2961,10.2366,10.2336,10.2196,10.192,10.1889,10.1665,10.1348,10.1231,10.1077,10.0729,10.0651,10.0651,10.0535,10.011,9.9994,9.9955,9.9955,9.9955,10.0071,10.038,10.0613,10.0651,10.0613,10.0071,9.9367,9.9251,9.9406,9.929,9.929,9.929,9.929,9.9212,9.9096,9.8756,9.8678,9.8524,9.8098,9.806,9.8052,9.806,9.8021,9.7905,9.7518,9.7479,9.7247,9.6899,9.6822,9.6822,9.6822,9.6822,9.6822,9.6822,9.6822,9.6822,9.6822,9.6822,9.6822,9.6822,9.6822,9.6822,9.6822,9.6822,9.6822,9.6822,9.6822,9.6822,9.6822,9.6822,9.6822,9.6822,9.6822,9.6822,9.6822,9.6822,9.6822,9.6822,9.6822,9.6822,9.6822,9.6822,9.6822,9.6822,9.6822,9.6822,9.6822,9.6822,9.6822,9.6822,9.6822,9.6822,9.6822,9.6822,9.6822,9.6822,9.6822,9.6822,9.6822,9.6822,9.6822,9.6822,9.6822,9.6822,9.6822,9.6822,9.6822,9.6822,9.6822,9.6822,9.6822,9.6822,9.6822,10.5251,10.503,10.4494,10.379,10.3205,10.3014,10.2682,10.2191,10.1966,10.1889,10.1889,10.185,10.185,10.185,10.185,10.1812,10.185,10.1077,10.0883,10.0845,10.0845,10.0852,10.1077,10.1464,10.1734,10.158,10.1657,10.1193,10.0303,10.0063,9.9909,10.0025,9.9909,9.9831,9.9947,10.0102,9.9793,9.956,9.9568,9.9522,9.9328,9.929,9.929,9.929,9.929,9.8903,9.8408,9.833,9.7905,9.7402,9.7131,9.7015,9.686,9.6822,9.6822,9.6822,9.6822,9.6822,9.6822,9.6822,9.6822,9.6822,9.6822,9.6822,9.6822,9.6822,9.6822,9.6822,9.6822,9.6822,9.6822,9.6822,9.6822,9.6822,9.6822,9.6822,9.6822,9.6822,9.6822,9.6822,9.6822,9.6822,9.6822,9.6822,9.6822,9.6822,9.6822,9.6822,9.6822,9.6822,9.6822,9.6822,9.6822,9.6822,9.6822,9.6822,9.6822,9.6822,9.6822,9.6822,9.6822,9.6822,9.6822,9.6822,9.6822,9.6822,9.6822,9.6822,9.6822,9.6822,9.6822,9.6822,9.6822,9.6822,9.6822,10.579,10.5107,10.5002,10.4571,10.393,10.3262,10.3018,10.2964,10.2237,10.1928,10.2005,10.1889,10.1889,10.1889,10.1889,10.1889,10.185,10.1734,10.158,10.1541,10.158,10.158,10.1703,10.1812,10.1889,10.1889,10.1889,10.185,10.1348,10.1309,10.1464,10.1386,10.1309,10.1502,10.1231,10.1193,10.1193,10.0574,10.0419,10.011,9.956,9.9483,9.9483,9.9444,9.9444,9.9406,9.922,9.9143,9.8756,9.8098,9.7943,9.7557,9.6976,9.6822,9.6822,9.6822,9.6822,9.6822,9.6822,9.6822,9.6822,9.6822,9.6822,9.6822,9.6822,9.6822,9.6822,9.6822,9.6822,9.6822,9.6822,9.6822,9.6822,9.6822,9.6822,9.6822,9.6822,9.6822,9.6822,9.6822,9.6822,9.6822,9.6822,9.6822,9.6822,9.6822,9.6822,9.6822,9.6822,9.6822,9.6822,9.6822,9.6822,9.6822,9.6822,9.6822,9.6822,9.6822,9.6822,9.6822,9.6822,9.6822,9.6822,9.6822,9.6822,9.6822,9.6822,9.6822,9.6822,9.6822,9.6822,9.6822,9.6822,9.6822,9.6822,10.6164,10.5828,10.5828,10.5447,10.4778,10.3939,10.3696,10.3567,10.2469,10.216,10.2469,10.2082,10.1889,10.1889,10.1889,10.1889,10.1889,10.1889,10.1889,10.1889,10.1889,10.1889,10.1889,10.1889,10.1889,10.1889,10.1889,10.1889,10.1889,10.1889,10.1889,10.1889,10.1889,10.1812,10.1889,10.1889,10.1696,10.1433,10.1317,10.1154,10.0883,10.0767,10.0729,10.0729,10.0729,10.0458,10.0148,10.0032,9.9607,9.8949,9.8794,9.8408,9.775,9.7479,9.7402,9.6822,9.6822,9.6822,9.6822,9.6822,9.6822,9.6822,9.6822,9.6822,9.6822,9.6822,9.6822,9.6822,9.6822,9.6822,9.6822,9.6822,9.6822,9.6822,9.6822,9.6822,9.6822,9.6822,9.6822,9.6822,9.6822,9.6822,9.6822,9.6822,9.6822,9.6822,9.6822,9.6822,9.6822,9.6822,9.6822,9.6822,9.6822,9.6822,9.6822,9.6822,9.6822,9.6822,9.6822,9.6822,9.6822,9.6822,9.6822,9.6822,9.6822,9.6822,9.6822,9.6822,9.6822,9.6822,9.6822,9.6822,9.6822,9.6822,9.6822,10.6395,10.6395,10.6395,10.6121,10.5599,10.4778,10.4374,10.417,10.2887,10.2469,10.2585,10.216,10.1889,10.1889,10.1889,10.1889,10.1889,10.1889,10.1889,10.1889,10.1889,10.1889,10.1889,10.1889,10.1889,10.1889,10.1889,10.1889,10.1889,10.1889,10.1889,10.1889,10.1889,10.1889,10.1889,10.1889,10.1812,10.1812,10.1812,10.1773,10.1773,10.1773,10.1812,10.1812,10.1812,10.158,10.1038,10.0922,10.0496,9.98,9.9645,9.9259,9.8562,9.8369,9.8168,9.7673,9.7479,9.7247,9.7131,9.7054,9.686,9.6822,9.6822,9.6822,9.6822,9.6822,9.6822,9.6822,9.6822,9.6822,9.6822,9.6822,9.6822,9.6822,9.6822,9.6822,9.6822,9.6822,9.6822,9.6822,9.6822,9.6822,9.6822,9.6822,9.6822,9.6822,9.6822,9.6822,9.6822,9.6822,9.6822,9.6822,9.6822,9.6822,9.6822,9.6822,9.6822,9.6822,9.6822,9.6822,9.6822,9.6822,9.6822,9.6822,9.6822,9.6822,9.6822,9.6822,9.6822,9.6822,9.6822,9.6822,9.6822,9.6822,9.6822,10.6395,10.6395,10.6395,10.6399,10.6324,10.5638,10.4918,10.4451,10.3482,10.2624,10.2121,10.1928,10.1889,10.1889,10.1889,10.1889,10.1889,10.1889,10.1889,10.1889,10.1889,10.1889,10.1889,10.1889,10.1889,10.1889,10.1889,10.1889,10.1889,10.1889,10.1889,10.1889,10.1889,10.1889,10.1889,10.1889,10.1889,10.1889,10.1889,10.1889,10.1889,10.1889,10.1889,10.1889,10.1889,10.185,10.1773,10.1696,10.1386,10.0535,10.0496,10.011,9.9413,9.9259,9.9065,9.8671,9.8253,9.8021,9.7905,9.7247,9.686,9.6822,9.6822,9.6822,9.6822,9.6822,9.6822,9.6822,9.6822,9.6822,9.6822,9.6822,9.6822,9.6822,9.6822,9.6822,9.6822,9.6822,9.6822,9.6822,9.6822,9.6822,9.6822,9.6822,9.6822,9.6822,9.6822,9.6822,9.6822,9.6822,9.6822,9.6822,9.6822,9.6822,9.6822,9.6822,9.6822,9.6822,9.6822,9.6822,9.6822,9.6822,9.6822,9.6822,9.6822,9.6822,9.6822,9.6822,9.6822,9.6822,9.6822,9.6822,9.6822,9.6822,9.6822,10.6395,10.6395,10.6395,10.6427,10.6459,10.5706,10.5574,10.5508,10.3976,10.2701,10.1928,10.1889,10.1889,10.1889,10.1889,10.1889,10.1889,10.1889,10.1889,10.1889,10.1889,10.1889,10.1889,10.1889,10.1889,10.1889,10.1889,10.1889,10.1889,10.1889,10.1889,10.1889,10.1966,10.1889,10.1889,10.1966,10.1966,10.1966,10.1928,10.1928,10.1889,10.1889,10.1889,10.1889,10.1889,10.1889,10.1889,10.1889,10.1696,10.1464,10.1348,10.0845,10.0264,10.0148,9.9878,9.9522,9.9058,9.8872,9.8562,9.7673,9.686,9.6822,9.6822,9.6822,9.6822,9.6822,9.6822,9.6822,9.6822,9.6822,9.6822,9.6822,9.6822,9.6822,9.6822,9.6822,9.6822,9.6822,9.6822,9.6822,9.6822,9.6822,9.6822,9.6822,9.6822,9.6822,9.6822,9.6822,9.6822,9.6822,9.6822,9.6822,9.6822,9.6822,9.6822,9.6822,9.6822,9.6822,9.6822,9.6822,9.6822,9.6822,9.6822,9.6822,9.6822,9.6822,9.6822,9.6822,9.6822,9.6822,9.6822,9.6822,9.6822,9.6822,9.6822,10.6395,10.6395,10.6395,10.6407,10.6372,10.5938,10.5954,10.6052,10.467,10.3258,10.2276,10.2044,10.1889,10.1889,10.1889,10.1889,10.1889,10.1889,10.1889,10.1889,10.1889,10.1889,10.1889,10.1889,10.1889,10.1928,10.1889,10.1889,10.1889,10.1889,10.1889,10.1966,10.216,10.2199,10.1966,10.2199,10.2276,10.2315,10.2547,10.2431,10.2392,10.2315,10.2044,10.2005,10.1889,10.1889,10.1889,10.1889,10.1889,10.1812,10.1773,10.1541,10.1193,10.0883,10.0613,10.0226,9.9831,9.9684,9.9259,9.8253,9.7131,9.686,9.6822,9.6822,9.6822,9.6822,9.6822,9.6822,9.6822,9.6822,9.6822,9.6822,9.6822,9.6822,9.6822,9.6822,9.6822,9.6822,9.6822,9.6822,9.6822,9.6822,9.6822,9.6822,9.6822,9.6822,9.6822,9.6822,9.6822,9.6822,9.6822,9.6822,9.6822,9.6822,9.6822,9.6822,9.6822,9.6822,9.6822,9.6822,9.6822,9.6822,9.6822,9.6822,9.6822,9.6822,9.6822,9.6822,9.6822,9.6822,9.6822,9.6822,9.6822,9.6822,9.6822,10.6395,10.6395,10.6395,10.6405,10.6426,10.6449,10.6131,10.5722,10.5404,10.4485,10.3042,10.2353,10.1928,10.1928,10.1889,10.1889,10.1889,10.1889,10.1966,10.2082,10.216,10.2005,10.2005,10.2044,10.216,10.1966,10.2082,10.216,10.2121,10.2315,10.2237,10.2353,10.2817,10.2856,10.2121,10.2779,10.3127,10.3282,10.3862,10.363,10.332,10.3166,10.2779,10.2276,10.2121,10.216,10.1928,10.1889,10.1889,10.1889,10.1889,10.1773,10.1696,10.1696,10.158,10.1541,10.0883,10.062,10.0427,9.8949,9.7827,9.6938,9.6822,9.6822,9.6822,9.6822,9.6822,9.6822,9.6822,9.6822,9.6822,9.6822,9.6822,9.6822,9.6822,9.6822,9.6822,9.6822,9.6822,9.6822,9.6822,9.6822,9.6822,9.6822,9.6822,9.6822,9.6822,9.6822,9.6822,9.6822,9.6822,9.6822,9.6822,9.6822,9.6822,9.6822,9.6822,9.6822,9.6822,9.6822,9.6822,9.6822,9.6822,9.6822,9.6822,9.6822,9.6822,9.6822,9.6822,9.6822,9.6822,9.6822,9.6822,9.6822,9.6822,10.6395,10.6395,10.6395,10.6395,10.6415,10.6477,10.6353,10.6063,10.567,10.4708,10.3382,10.2817,10.2392,10.2082,10.1889,10.1889,10.1889,10.1928,10.2044,10.2701,10.2701,10.2779,10.274,10.274,10.274,10.2779,10.2779,10.3088,10.363,10.3398,10.3475,10.3707,10.373,10.3823,10.3707,10.3939,10.3978,10.4017,10.4249,10.421,10.4055,10.3939,10.3591,10.2779,10.274,10.2508,10.2044,10.2005,10.2005,10.1928,10.1889,10.1889,10.1889,10.1889,10.1889,10.1889,10.1464,10.1162,10.0613,9.9413,9.8253,9.7402,9.6822,9.6822,9.6822,9.6822,9.6822,9.6822,9.6822,9.6822,9.6822,9.6822,9.6822,9.6822,9.6822,9.6822,9.6822,9.6822,9.6822,9.6822,9.6822,9.6822,9.6822,9.6822,9.6822,9.6822,9.6822,9.6822,9.6822,9.6822,9.6822,9.6822,9.6822,9.6822,9.6822,9.6822,9.6822,9.6822,9.6822,9.6822,9.6822,9.6822,9.6822,9.6822,9.6822,9.6822,9.6822,9.6822,9.6822,9.6822,9.6822,9.6822,9.6822,9.6822,9.6822,10.6395,10.6395,10.6395,10.6395,10.6415,10.6438,10.6507,10.6449,10.5863,10.4979,10.4117,10.3514,10.2933,10.2392,10.2044,10.1889,10.1889,10.1928,10.2392,10.3127,10.3204,10.3359,10.3514,10.363,10.3591,10.363,10.3668,10.3901,10.421,10.4357,10.4495,10.4664,10.4819,10.4979,10.5026,10.5034,10.486,10.4976,10.5177,10.5254,10.5014,10.4744,10.4442,10.3862,10.3514,10.3243,10.2624,10.2315,10.2199,10.2044,10.1928,10.1928,10.1889,10.1889,10.1889,10.1889,10.185,10.1425,10.0613,10.0226,9.9104,9.8021,9.7286,9.7015,9.7054,9.7015,9.686,9.6822,9.6822,9.6822,9.6822,9.6822,9.6822,9.6822,9.6822,9.6822,9.6822,9.6822,9.6822,9.6822,9.6822,9.6822,9.6822,9.6822,9.6822,9.6822,9.6822,9.6822,9.6822,9.6822,9.6822,9.6822,9.6822,9.6822,9.6822,9.6822,9.6822,9.6822,9.6822,9.6822,9.6822,9.6822,9.6822,9.6822,9.6822,9.6822,9.6822,9.6822,9.6822,9.6822,9.6822,9.6822,9.6822,9.6822,9.6822,10.6395,10.6395,10.6395,10.6395,10.6405,10.6415,10.6526,10.663,10.5949,10.5619,10.5432,10.3807,10.3119,10.2933,10.2276,10.2044,10.2199,10.216,10.2817,10.3312,10.373,10.4001,10.4263,10.4418,10.441,10.4426,10.4503,10.4565,10.4542,10.4849,10.5202,10.5478,10.5615,10.585,10.6014,10.5941,10.5691,10.5807,10.6078,10.6039,10.576,10.5686,10.5222,10.4719,10.4387,10.397,10.3436,10.3088,10.2663,10.2315,10.1966,10.1928,10.1889,10.1889,10.1889,10.1881,10.1873,10.1394,10.0883,10.0604,10.0264,9.9197,9.7913,9.7696,9.7711,9.7634,9.7402,9.717,9.7131,9.6938,9.6822,9.6822,9.6822,9.6822,9.6822,9.6822,9.6822,9.6822,9.6822,9.6822,9.6822,9.6822,9.6822,9.6822,9.6807,9.6822,9.6822,9.6822,9.6822,9.6822,9.6822,9.6822,9.6822,9.6822,9.6822,9.6822,9.6822,9.6822,9.6822,9.6822,9.6822,9.6822,9.6822,9.6822,9.6822,9.6822,9.6822,9.6822,9.6822,9.6822,9.6822,9.6822,9.6822,9.6822,9.6822,10.6395,10.6395,10.6395,10.6395,10.6395,10.6395,10.6448,10.6497,10.6304,10.5779,10.4692,10.4228,10.3527,10.2353,10.2624,10.2771,10.3042,10.3475,10.4249,10.4573,10.4639,10.4971,10.5155,10.5233,10.5233,10.5233,10.531,10.5503,10.595,10.6001,10.5957,10.6338,10.626,10.6494,10.6503,10.6501,10.6403,10.6382,10.6661,10.6554,10.6456,10.6366,10.5881,10.5473,10.5283,10.4797,10.4225,10.3567,10.315,10.2887,10.2199,10.1928,10.1889,10.1889,10.1881,10.1755,10.1713,10.1547,10.1238,10.0745,10.0483,10.0461,9.9373,9.8818,9.881,9.8632,9.8245,9.7905,9.7673,9.7595,9.7201,9.7039,9.6923,9.6799,9.6792,9.6738,9.6738,9.6738,9.6738,9.6738,9.6738,9.6738,9.6746,9.6753,9.6738,9.6807,9.6822,9.6814,9.6822,9.6822,9.6822,9.6822,9.6822,9.6822,9.6822,9.6822,9.6822,9.6822,9.6822,9.6822,9.6822,9.6822,9.6822,9.6822,9.6822,9.6822,9.6822,9.6822,9.6822,9.6822,9.6822,9.6822,9.6822,9.6822,9.6822,10.6395,10.6395,10.6395,10.6395,10.6395,10.6395,10.6446,10.6467,10.6468,10.5928,10.5283,10.4868,10.4207,10.3546,10.3554,10.3554,10.3593,10.3894,10.4589,10.519,10.5598,10.5735,10.588,10.6026,10.6026,10.6026,10.6064,10.6219,10.6664,10.6714,10.6669,10.6583,10.6622,10.6594,10.6565,10.6507,10.6555,10.6555,10.667,10.6659,10.6696,10.6733,10.6403,10.6121,10.6057,10.5572,10.4885,10.4189,10.3957,10.3532,10.2712,10.2326,10.2171,10.2055,10.1777,10.1663,10.1637,10.1603,10.1448,10.1178,10.1247,10.1208,10.0711,10.0405,9.9853,9.9583,9.9073,9.8632,9.8524,9.8323,9.7735,9.7256,9.7016,9.6815,9.6746,9.6684,9.6676,9.6676,9.6676,9.6676,9.6676,9.6676,9.6676,9.6692,9.67,9.6754,9.6777,9.6753,9.6768,9.6822,9.6822,9.6822,9.6822,9.6822,9.6822,9.6822,9.6822,9.6822,9.6822,9.6822,9.6822,9.6822,9.6822,9.6822,9.6822,9.6822,9.6822,9.6822,9.6822,9.6822,9.6822,9.6822,9.6822,9.6822,9.6822,10.6395,10.6395,10.6395,10.6395,10.6395,10.6395,10.6405,10.6405,10.6467,10.6459,10.6303,10.5704,10.5173,10.4553,10.4408,10.4283,10.4369,10.4601,10.5102,10.552,10.5666,10.5974,10.6399,10.6669,10.6437,10.6591,10.6621,10.6496,10.6611,10.6651,10.6565,10.6517,10.6517,10.6487,10.6466,10.6456,10.6466,10.6486,10.6575,10.6642,10.6622,10.665,10.6669,10.663,10.6533,10.631,10.5684,10.5298,10.5057,10.4209,10.3523,10.3069,10.2808,10.2288,10.1932,10.1674,10.1648,10.1514,10.1514,10.136,10.1407,10.1502,10.1567,10.1306,10.0818,10.0438,9.9938,9.9444,9.9281,9.8895,9.8384,9.8059,9.7773,9.7379,9.7084,9.6836,9.6597,9.6605,9.6605,9.6566,9.6566,9.6558,9.6558,9.6613,9.6653,9.6661,9.6723,9.6715,9.6753,9.6814,9.6822,9.6822,9.6822,9.6822,9.6822,9.6822,9.6822,9.6822,9.6822,9.6822,9.6822,9.6822,9.6822,9.6822,9.6822,9.6822,9.6822,9.6822,9.6822,9.6822,9.6822,9.6822,9.6822,9.6822,9.6822,10.6395,10.6395,10.6395,10.6395,10.6395,10.6395,10.6395,10.6405,10.6426,10.6149,10.5659,10.5447,10.5061,10.4721,10.503,10.5069,10.5155,10.5474,10.609,10.6207,10.617,10.618,10.6488,10.6565,10.6565,10.6565,10.6555,10.6575,10.6641,10.6573,10.6515,10.6523,10.66,10.6695,10.6674,10.6626,10.6636,10.6597,10.6725,10.667,10.6516,10.6536,10.6565,10.6584,10.6526,10.6573,10.611,10.5695,10.5434,10.4942,10.4247,10.39,10.3784,10.2902,10.2518,10.2307,10.1884,10.1625,10.151,10.1471,10.1394,10.1442,10.147,10.1498,10.136,10.1139,10.0796,10.0342,9.9917,9.9501,9.9106,9.8858,9.8494,9.7975,9.738,9.6985,9.6553,9.6514,9.6476,9.6476,9.6476,9.6476,9.6476,9.6501,9.6589,9.6621,9.6699,9.6731,9.6784,9.6814,9.6822,9.6822,9.6822,9.6822,9.6822,9.6822,9.6822,9.6822,9.6822,9.6822,9.6822,9.6822,9.6822,9.6822,9.6822,9.6822,9.6822,9.6822,9.6822,9.6822,9.6822,9.6822,9.6822,9.6822,9.6822,10.6395,10.6395,10.6395,10.6395,10.6395,10.6395,10.6395,10.6395,10.6395,10.6156,10.5822,10.5764,10.5524,10.511,10.565,10.5785,10.59,10.6305,10.6362,10.6468,10.6507,10.6429,10.6457,10.6457,10.6457,10.6457,10.6486,10.6571,10.6828,10.7059,10.7108,10.7367,10.7444,10.7405,10.7444,10.7444,10.7251,10.7059,10.7251,10.7059,10.6626,10.6504,10.6457,10.6487,10.6507,10.6584,10.6469,10.6074,10.5958,10.5611,10.4985,10.4292,10.4013,10.3483,10.3262,10.2983,10.252,10.1866,10.1789,10.1587,10.1394,10.1424,10.1356,10.1375,10.1414,10.119,10.1271,10.0855,10.0917,10.0578,9.9935,9.957,9.9102,9.8575,9.7799,9.7147,9.6675,9.6415,9.6376,9.6376,9.6376,9.6376,9.6367,9.6415,9.6429,9.6514,9.6556,9.6691,9.6746,9.6814,9.6822,9.6822,9.6822,9.6822,9.6822,9.6822,9.6822,9.6822,9.6822,9.6822,9.6822,9.6822,9.6822,9.6822,9.6822,9.6822,9.6822,9.6822,9.6822,9.6822,9.6822,9.6822,9.6822,9.6822,9.6822,10.6395,10.6395,10.6395,10.6395,10.6395,10.6395,10.6395,10.6395,10.6395,10.6395,10.6328,10.6328,10.6395,10.6395,10.6395,10.6395,10.6377,10.6417,10.6426,10.6426,10.6415,10.6426,10.6426,10.6415,10.6415,10.6531,10.6646,10.7069,10.7521,10.7752,10.8136,10.8752,10.8906,10.8867,10.8906,10.879,10.8406,10.8136,10.8059,10.7905,10.729,10.6549,10.6569,10.6521,10.6395,10.6395,10.6405,10.6405,10.6405,10.6146,10.5705,10.5176,10.4637,10.4291,10.4127,10.3848,10.327,10.2866,10.2635,10.2058,10.1741,10.1558,10.1394,10.1317,10.1327,10.1328,10.1422,10.143,10.1484,10.13,10.0657,10.0253,9.9746,9.9025,9.8152,9.722,9.672,9.6345,9.6297,9.6297,9.6297,9.6306,9.6297,9.6297,9.6343,9.6385,9.648,9.6572,9.6691,9.6777,9.6822,9.6822,9.6822,9.6822,9.6822,9.6822,9.6822,9.6822,9.6822,9.6822,9.6822,9.6822,9.6822,9.6822,9.6822,9.6822,9.6822,9.6822,9.6822,9.6822,9.6822,9.6822,9.6822,9.6822,9.6822,10.6395,10.6395,10.6395,10.6395,10.6395,10.6395,10.6395,10.6395,10.6395,10.6395,10.6395,10.6395,10.6395,10.6395,10.6395,10.6395,10.6395,10.6395,10.6395,10.6405,10.6395,10.6395,10.6472,10.6549,10.6433,10.6664,10.7087,10.7559,10.8213,10.8559,10.879,10.906,10.9021,10.9021,10.8983,10.8983,10.906,10.8906,10.8867,10.879,10.8406,10.7752,10.7021,10.6741,10.6395,10.6395,10.6395,10.6395,10.6395,10.6318,10.6203,10.5933,10.5636,10.5174,10.4943,10.4713,10.4097,10.3751,10.3366,10.2789,10.2443,10.2097,10.1894,10.1394,10.1404,10.1289,10.1337,10.1337,10.1375,10.1375,10.0971,10.0971,10.0558,9.949,9.8567,9.7403,9.6596,9.6403,9.6288,9.6288,9.6288,9.6288,9.6288,9.6297,9.6325,9.6376,9.6433,9.6556,9.6629,9.6707,9.6822,9.6822,9.6822,9.6822,9.6822,9.6822,9.6822,9.6822,9.6822,9.6822,9.6822,9.6822,9.6822,9.6822,9.6822,9.6822,9.6822,9.6822,9.6822,9.6822,9.6822,9.6822,9.6822,9.6822,9.6822]}]]